GEFSCGP_prec_meanprecacc_054.txt.gz
Total_Precipitation_Accumulation
0.00 0.00 0.00 0.00 0.00 0.00 0.00 0.00 0.00 0.00 0.00 0.00 0.00 0.00 0.00 0.00 0.00 0.00 0.00 0.00 0.01 0.02 0.04 0.09 0.19 0.42 0.67 0.57 0.44 0.32 0.24 0.25 0.30 0.34 0.38 0.52 0.61 0.71 0.89 1.04 1.14 1.19 1.19 1.12
0.00 0.00 0.00 0.00 0.00 0.00 0.00 0.00 0.00 0.00 0.00 0.00 0.00 0.00 0.00 0.00 0.00 0.00 0.00 0.00 0.01 0.02 0.04 0.08 0.21 0.45 0.61 0.60 0.56 0.53 0.56 0.55 0.58 0.74 0.95 1.17 1.38 1.58 1.76 1.91 1.95 1.88 1.70 1.51
0.00 0.00 0.00 0.00 0.00 0.00 0.00 0.00 0.00 0.00 0.00 0.00 0.00 0.00 0.01 0.00 0.00 0.00 0.00 0.00 0.01 0.02 0.04 0.07 0.16 0.27 0.45 0.56 0.64 0.69 0.83 0.97 1.06 1.26 1.50 1.80 2.11 2.31 2.32 2.22 2.12 1.98 1.80 1.60
0.00 0.00 0.00 0.00 0.00 0.00 0.00 0.00 0.00 0.00 0.00 0.00 0.00 0.00 0.01 0.00 0.00 0.01 0.01 0.01 0.01 0.02 0.04 0.06 0.12 0.19 0.30 0.45 0.56 0.70 0.92 1.24 1.59 2.00 2.34 2.55 2.66 2.65 2.50 2.23 1.99 1.72 1.49 1.33
0.00 0.00 0.00 0.00 0.00 0.00 0.00 0.00 0.00 0.00 0.00 0.00 0.00 0.00 0.00 0.01 0.01 0.01 0.02 0.02 0.03 0.04 0.05 0.07 0.13 0.21 0.36 0.50 0.69 0.92 1.21 1.63 2.03 2.37 2.64 2.77 2.69 2.50 2.22 1.90 1.57 1.27 1.08 0.99
0.00 0.00 0.00 0.00 0.00 0.00 0.00 0.00 0.00 0.00 0.00 0.00 0.00 0.00 0.01 0.02 0.01 0.02 0.03 0.04 0.05 0.06 0.07 0.09 0.14 0.22 0.38 0.59 0.83 1.07 1.34 1.72 2.06 2.24 2.42 2.40 2.32 2.12 1.78 1.43 1.14 0.91 0.76 0.61
0.00 0.00 0.00 0.00 0.00 0.00 0.00 0.00 0.00 0.00 0.00 0.00 0.00 0.00 0.03 0.04 0.03 0.03 0.04 0.06 0.07 0.07 0.09 0.12 0.18 0.27 0.40 0.59 0.81 0.97 1.15 1.40 1.62 1.80 1.96 1.88 1.67 1.47 1.26 1.01 0.81 0.64 0.53 0.44
0.00 0.00 0.00 0.00 0.00 0.00 0.00 0.00 0.00 0.00 0.00 0.00 0.00 0.03 0.10 0.09 0.08 0.07 0.06 0.07 0.10 0.12 0.15 0.19 0.24 0.31 0.43 0.55 0.69 0.80 0.88 0.98 1.05 1.08 1.11 1.07 0.98 0.87 0.77 0.67 0.58 0.48 0.39 0.29
0.00 0.00 0.00 0.00 0.00 0.00 0.00 0.00 0.00 0.00 0.00 0.00 0.01 0.09 0.15 0.16 0.14 0.11 0.11 0.10 0.13 0.17 0.19 0.24 0.30 0.35 0.40 0.44 0.50 0.50 0.49 0.52 0.52 0.49 0.50 0.52 0.50 0.47 0.44 0.40 0.33 0.26 0.21 0.16
0.00 0.00 0.00 0.00 0.00 0.00 0.00 0.00 0.00 0.00 0.00 0.00 0.02 0.08 0.15 0.23 0.25 0.22 0.18 0.16 0.16 0.19 0.23 0.28 0.31 0.32 0.30 0.29 0.28 0.26 0.26 0.26 0.24 0.23 0.23 0.24 0.25 0.22 0.21 0.19 0.16 0.14 0.11 0.08
0.00 0.00 0.00 0.00 0.00 0.00 0.00 0.00 0.00 0.00 0.00 0.00 0.01 0.09 0.15 0.28 0.37 0.39 0.36 0.27 0.24 0.27 0.33 0.35 0.34 0.27 0.22 0.20 0.18 0.17 0.18 0.16 0.15 0.14 0.14 0.12 0.11 0.10 0.08 0.06 0.06 0.05 0.04 0.03
0.00 0.01 0.00 0.00 0.00 0.00 0.00 0.00 0.00 0.00 0.00 0.00 0.02 0.15 0.20 0.38 0.53 0.51 0.46 0.41 0.40 0.46 0.48 0.46 0.38 0.27 0.20 0.16 0.13 0.12 0.12 0.11 0.11 0.10 0.08 0.07 0.06 0.05 0.04 0.03 0.03 0.02 0.02 0.01
0.00 0.02 0.02 0.02 0.02 0.01 0.00 0.00 0.00 0.00 0.00 0.01 0.05 0.24 0.33 0.49 0.64 0.66 0.59 0.62 0.72 0.80 0.73 0.55 0.39 0.26 0.18 0.14 0.13 0.13 0.11 0.10 0.08 0.06 0.05 0.04 0.04 0.03 0.02 0.02 0.01 0.01 0.02 0.02
0.00 0.01 0.03 0.09 0.09 0.04 0.02 0.01 0.02 0.02 0.04 0.06 0.10 0.28 0.41 0.57 0.70 0.78 0.83 0.98 1.03 0.86 0.61 0.44 0.33 0.24 0.20 0.18 0.16 0.13 0.10 0.08 0.05 0.04 0.04 0.04 0.04 0.03 0.03 0.02 0.02 0.02 0.02 0.01
0.00 0.01 0.02 0.02 0.03 0.02 0.03 0.03 0.04 0.05 0.06 0.09 0.16 0.35 0.59 0.80 0.90 0.98 1.14 1.14 0.94 0.72 0.56 0.45 0.38 0.32 0.27 0.23 0.17 0.12 0.09 0.07 0.05 0.05 0.05 0.05 0.04 0.04 0.03 0.03 0.03 0.02 0.02 0.02
0.00 0.01 0.01 0.01 0.02 0.03 0.04 0.06 0.07 0.08 0.11 0.15 0.25 0.48 0.67 0.85 1.00 1.04 1.06 1.00 0.93 0.82 0.67 0.53 0.43 0.37 0.32 0.27 0.22 0.18 0.17 0.15 0.12 0.10 0.09 0.08 0.07 0.06 0.05 0.04 0.04 0.03 0.03 0.02
0.00 0.01 0.01 0.01 0.02 0.03 0.08 0.09 0.10 0.14 0.20 0.24 0.34 0.51 0.58 0.62 0.72 0.82 0.89 0.87 0.82 0.77 0.68 0.57 0.52 0.46 0.42 0.38 0.34 0.30 0.27 0.22 0.17 0.15 0.13 0.12 0.10 0.09 0.07 0.04 0.03 0.03 0.02 0.01
0.01 0.02 0.02 0.02 0.03 0.09 0.15 0.11 0.14 0.20 0.26 0.24 0.29 0.37 0.42 0.45 0.51 0.56 0.60 0.68 0.73 0.70 0.66 0.60 0.54 0.51 0.49 0.45 0.39 0.33 0.27 0.21 0.19 0.19 0.17 0.13 0.10 0.08 0.05 0.03 0.02 0.01 0.01 0.01
0.01 0.03 0.08 0.07 0.08 0.16 0.24 0.14 0.12 0.25 0.34 0.25 0.24 0.26 0.28 0.30 0.34 0.38 0.40 0.44 0.49 0.51 0.52 0.53 0.52 0.52 0.49 0.43 0.35 0.28 0.24 0.21 0.19 0.16 0.12 0.08 0.06 0.05 0.02 0.01 0.01 0.01 0.01 0.02
0.02 0.04 0.12 0.15 0.19 0.23 0.28 0.13 0.10 0.22 0.48 0.39 0.32 0.31 0.34 0.37 0.39 0.31 0.24 0.24 0.28 0.35 0.44 0.49 0.49 0.45 0.39 0.32 0.23 0.19 0.18 0.15 0.11 0.07 0.05 0.03 0.03 0.02 0.01 0.01 0.01 0.01 0.02 0.02
0.10 0.12 0.15 0.21 0.31 0.36 0.19 0.12 0.16 0.33 0.49 0.53 0.49 0.47 0.47 0.44 0.39 0.31 0.24 0.24 0.28 0.37 0.44 0.43 0.39 0.34 0.27 0.20 0.15 0.13 0.10 0.08 0.05 0.03 0.03 0.03 0.02 0.01 0.01 0.01 0.02 0.02 0.02 0.04
0.14 0.21 0.23 0.29 0.39 0.43 0.17 0.14 0.27 0.36 0.37 0.44 0.39 0.33 0.29 0.25 0.23 0.24 0.25 0.27 0.33 0.38 0.40 0.36 0.30 0.23 0.16 0.13 0.11 0.10 0.07 0.04 0.02 0.03 0.03 0.03 0.02 0.01 0.01 0.03 0.03 0.03 0.04 0.05
0.06 0.11 0.23 0.35 0.41 0.36 0.21 0.18 0.20 0.25 0.31 0.32 0.29 0.25 0.28 0.31 0.31 0.27 0.25 0.28 0.32 0.32 0.29 0.23 0.16 0.12 0.10 0.09 0.08 0.07 0.05 0.04 0.04 0.05 0.05 0.04 0.03 0.01 0.01 0.03 0.03 0.04 0.05 0.04
0.06 0.05 0.12 0.23 0.27 0.25 0.24 0.23 0.20 0.18 0.21 0.20 0.20 0.23 0.27 0.32 0.29 0.23 0.21 0.21 0.20 0.17 0.13 0.10 0.08 0.08 0.07 0.05 0.05 0.05 0.04 0.05 0.07 0.09 0.07 0.07 0.05 0.03 0.02 0.03 0.02 0.03 0.04 0.04
0.10 0.20 0.27 0.27 0.31 0.35 0.33 0.28 0.22 0.20 0.17 0.16 0.18 0.20 0.22 0.21 0.19 0.16 0.14 0.12 0.10 0.08 0.08 0.07 0.06 0.05 0.04 0.03 0.02 0.02 0.03 0.04 0.08 0.09 0.08 0.07 0.04 0.03 0.04 0.04 0.02 0.02 0.03 0.01
0.08 0.33 0.69 0.47 0.40 0.50 0.45 0.33 0.28 0.27 0.25 0.23 0.19 0.16 0.16 0.15 0.12 0.08 0.07 0.07 0.07 0.06 0.05 0.03 0.02 0.01 0.01 0.01 0.02 0.02 0.01 0.01 0.04 0.06 0.07 0.06 0.04 0.04 0.05 0.06 0.07 0.02 0.00 0.00

GEFSCGP_prec_meanprecacc_060.txt.gz
Total_Precipitation_Accumulation
0.00 0.00 0.00 0.00 0.00 0.00 0.00 0.00 0.00 0.00 0.00 0.00 0.00 0.00 0.00 0.00 0.00 0.00 0.00 0.00 0.01 0.02 0.05 0.09 0.20 0.44 0.69 0.60 0.47 0.34 0.27 0.29 0.37 0.44 0.51 0.69 0.78 0.88 1.08 1.23 1.35 1.42 1.42 1.36
0.00 0.00 0.00 0.00 0.00 0.00 0.00 0.00 0.00 0.00 0.00 0.00 0.00 0.00 0.00 0.00 0.00 0.00 0.00 0.00 0.01 0.02 0.04 0.09 0.23 0.47 0.64 0.63 0.59 0.55 0.61 0.66 0.73 0.95 1.24 1.54 1.75 1.94 2.13 2.27 2.31 2.22 2.04 1.87
0.00 0.00 0.00 0.00 0.00 0.00 0.00 0.00 0.00 0.00 0.00 0.00 0.00 0.01 0.01 0.01 0.01 0.01 0.01 0.01 0.01 0.03 0.05 0.09 0.19 0.30 0.49 0.61 0.68 0.72 0.90 1.10 1.29 1.61 1.97 2.33 2.69 2.84 2.82 2.65 2.52 2.37 2.19 2.00
0.00 0.00 0.00 0.00 0.00 0.00 0.00 0.00 0.00 0.00 0.00 0.00 0.00 0.01 0.02 0.02 0.02 0.02 0.03 0.03 0.04 0.05 0.06 0.10 0.15 0.24 0.36 0.51 0.62 0.77 1.01 1.40 1.86 2.40 2.87 3.15 3.33 3.30 3.13 2.84 2.54 2.24 1.98 1.80
0.00 0.00 0.00 0.00 0.00 0.00 0.00 0.00 0.00 0.00 0.00 0.00 0.00 0.00 0.02 0.02 0.03 0.04 0.05 0.06 0.07 0.08 0.10 0.13 0.19 0.28 0.43 0.60 0.81 1.05 1.37 1.88 2.40 2.88 3.25 3.42 3.40 3.24 2.97 2.60 2.21 1.79 1.54 1.41
0.00 0.00 0.00 0.00 0.00 0.00 0.00 0.00 0.00 0.00 0.00 0.00 0.00 0.00 0.02 0.04 0.03 0.04 0.06 0.08 0.09 0.12 0.14 0.17 0.23 0.31 0.48 0.73 1.00 1.28 1.58 2.01 2.43 2.72 2.98 2.99 2.94 2.77 2.42 2.01 1.64 1.35 1.15 0.96
0.00 0.00 0.00 0.00 0.00 0.00 0.00 0.00 0.00 0.00 0.00 0.00 0.00 0.01 0.05 0.07 0.05 0.05 0.06 0.08 0.10 0.12 0.15 0.20 0.27 0.37 0.53 0.74 0.99 1.19 1.41 1.69 1.94 2.16 2.37 2.32 2.15 1.95 1.71 1.43 1.19 1.00 0.85 0.70
0.00 0.00 0.00 0.00 0.00 0.00 0.00 0.00 0.00 0.00 0.00 0.00 0.01 0.05 0.14 0.13 0.10 0.09 0.08 0.10 0.13 0.16 0.19 0.25 0.32 0.41 0.55 0.68 0.84 0.97 1.08 1.21 1.30 1.36 1.40 1.36 1.25 1.11 0.98 0.87 0.76 0.66 0.55 0.42
0.00 0.00 0.00 0.00 0.00 0.00 0.00 0.00 0.00 0.00 0.00 0.00 0.02 0.12 0.20 0.21 0.18 0.14 0.13 0.13 0.17 0.20 0.23 0.29 0.36 0.42 0.49 0.53 0.59 0.59 0.59 0.64 0.65 0.64 0.66 0.66 0.61 0.58 0.55 0.50 0.43 0.35 0.29 0.25
0.00 0.00 0.00 0.00 0.00 0.00 0.00 0.00 0.00 0.00 0.00 0.00 0.02 0.11 0.20 0.29 0.30 0.27 0.22 0.20 0.22 0.24 0.28 0.33 0.35 0.36 0.36 0.35 0.34 0.32 0.33 0.33 0.31 0.31 0.31 0.32 0.32 0.30 0.28 0.27 0.24 0.20 0.17 0.14
0.01 0.01 0.01 0.00 0.00 0.00 0.00 0.00 0.00 0.00 0.00 0.00 0.01 0.10 0.19 0.35 0.44 0.45 0.41 0.34 0.32 0.35 0.40 0.42 0.40 0.33 0.29 0.27 0.24 0.24 0.25 0.23 0.20 0.19 0.20 0.17 0.15 0.14 0.11 0.10 0.11 0.09 0.07 0.06
0.01 0.01 0.01 0.00 0.00 0.00 0.00 0.00 0.00 0.00 0.00 0.00 0.02 0.16 0.24 0.42 0.58 0.57 0.53 0.50 0.50 0.54 0.57 0.55 0.49 0.37 0.30 0.25 0.22 0.19 0.17 0.15 0.14 0.13 0.11 0.11 0.09 0.08 0.06 0.05 0.05 0.04 0.03 0.03
0.01 0.02 0.02 0.03 0.02 0.01 0.01 0.00 0.00 0.00 0.00 0.01 0.05 0.27 0.38 0.53 0.68 0.71 0.65 0.69 0.79 0.88 0.83 0.68 0.54 0.40 0.30 0.25 0.23 0.21 0.17 0.14 0.11 0.09 0.07 0.07 0.06 0.05 0.04 0.04 0.03 0.03 0.03 0.03
0.00 0.01 0.04 0.10 0.09 0.05 0.02 0.01 0.02 0.02 0.04 0.06 0.12 0.30 0.44 0.60 0.74 0.81 0.87 1.02 1.10 0.95 0.70 0.53 0.44 0.36 0.31 0.28 0.26 0.21 0.17 0.13 0.10 0.08 0.07 0.06 0.06 0.05 0.05 0.04 0.03 0.03 0.02 0.02
0.01 0.01 0.02 0.04 0.05 0.03 0.03 0.03 0.04 0.05 0.06 0.10 0.19 0.38 0.62 0.84 0.95 1.02 1.17 1.19 1.00 0.80 0.66 0.55 0.48 0.42 0.38 0.33 0.26 0.20 0.17 0.14 0.11 0.09 0.08 0.07 0.06 0.05 0.04 0.04 0.03 0.03 0.02 0.02
0.00 0.01 0.02 0.02 0.03 0.03 0.05 0.07 0.08 0.09 0.14 0.19 0.30 0.52 0.73 0.92 1.06 1.10 1.11 1.06 0.99 0.90 0.78 0.64 0.54 0.48 0.42 0.36 0.31 0.26 0.24 0.21 0.17 0.14 0.11 0.09 0.08 0.07 0.06 0.05 0.04 0.03 0.03 0.03
0.01 0.01 0.01 0.02 0.02 0.04 0.09 0.10 0.11 0.15 0.22 0.29 0.40 0.57 0.66 0.71 0.82 0.90 0.95 0.92 0.89 0.85 0.78 0.68 0.63 0.58 0.52 0.46 0.40 0.37 0.33 0.27 0.21 0.17 0.15 0.14 0.12 0.10 0.07 0.05 0.03 0.03 0.02 0.02
0.01 0.02 0.02 0.02 0.04 0.10 0.15 0.12 0.14 0.20 0.27 0.27 0.32 0.41 0.48 0.52 0.58 0.62 0.67 0.77 0.81 0.78 0.75 0.70 0.64 0.61 0.58 0.52 0.44 0.37 0.30 0.24 0.21 0.20 0.17 0.14 0.11 0.09 0.06 0.03 0.02 0.01 0.01 0.01
0.01 0.04 0.08 0.07 0.08 0.16 0.24 0.14 0.12 0.25 0.35 0.26 0.27 0.29 0.32 0.35 0.40 0.47 0.49 0.55 0.60 0.61 0.61 0.62 0.62 0.61 0.56 0.48 0.38 0.30 0.24 0.21 0.19 0.16 0.12 0.08 0.06 0.05 0.03 0.01 0.01 0.01 0.01 0.02
0.02 0.04 0.12 0.15 0.19 0.23 0.28 0.14 0.10 0.23 0.49 0.40 0.34 0.36 0.42 0.46 0.48 0.41 0.33 0.33 0.38 0.45 0.54 0.58 0.55 0.50 0.43 0.35 0.25 0.20 0.18 0.15 0.12 0.08 0.05 0.03 0.03 0.02 0.01 0.01 0.01 0.02 0.02 0.02
0.10 0.12 0.15 0.21 0.31 0.36 0.19 0.12 0.18 0.35 0.50 0.55 0.51 0.50 0.53 0.56 0.53 0.40 0.30 0.30 0.34 0.44 0.51 0.49 0.43 0.37 0.29 0.21 0.16 0.13 0.10 0.08 0.05 0.03 0.03 0.03 0.02 0.01 0.01 0.01 0.02 0.02 0.02 0.04
0.14 0.21 0.23 0.29 0.39 0.43 0.17 0.14 0.28 0.37 0.38 0.45 0.41 0.35 0.31 0.29 0.28 0.28 0.28 0.30 0.35 0.40 0.42 0.38 0.32 0.24 0.17 0.13 0.12 0.10 0.07 0.04 0.02 0.03 0.04 0.03 0.02 0.01 0.01 0.03 0.03 0.03 0.04 0.05
0.06 0.11 0.23 0.35 0.41 0.36 0.21 0.18 0.20 0.25 0.33 0.33 0.30 0.26 0.28 0.31 0.32 0.28 0.26 0.29 0.33 0.33 0.30 0.24 0.16 0.12 0.10 0.09 0.08 0.07 0.06 0.04 0.04 0.06 0.06 0.04 0.03 0.01 0.01 0.03 0.03 0.04 0.05 0.04
0.06 0.05 0.12 0.23 0.27 0.25 0.24 0.23 0.20 0.18 0.21 0.20 0.20 0.23 0.27 0.33 0.30 0.24 0.23 0.22 0.21 0.17 0.13 0.11 0.09 0.08 0.07 0.05 0.05 0.05 0.04 0.05 0.07 0.09 0.08 0.07 0.06 0.03 0.02 0.03 0.02 0.03 0.04 0.04
0.10 0.20 0.27 0.27 0.31 0.35 0.34 0.28 0.22 0.20 0.17 0.16 0.19 0.20 0.22 0.22 0.20 0.17 0.15 0.13 0.10 0.08 0.08 0.07 0.06 0.05 0.04 0.03 0.02 0.02 0.03 0.04 0.08 0.09 0.08 0.07 0.04 0.03 0.04 0.04 0.02 0.02 0.03 0.01
0.08 0.33 0.69 0.47 0.40 0.51 0.45 0.33 0.28 0.27 0.25 0.23 0.19 0.16 0.17 0.15 0.12 0.09 0.08 0.07 0.07 0.06 0.05 0.03 0.02 0.01 0.01 0.01 0.02 0.02 0.01 0.01 0.04 0.06 0.07 0.06 0.04 0.04 0.05 0.06 0.07 0.03 0.01 0.00

GEFSCGP_prec_meanprecacc_066.txt.gz
Total_Precipitation_Accumulation
0.00 0.00 0.00 0.00 0.00 0.00 0.00 0.00 0.00 0.00 0.00 0.00 0.00 0.00 0.00 0.00 0.00 0.00 0.00 0.00 0.01 0.02 0.05 0.10 0.21 0.45 0.71 0.63 0.51 0.36 0.28 0.32 0.41 0.48 0.55 0.72 0.82 0.93 1.14 1.32 1.49 1.63 1.64 1.59
0.00 0.00 0.00 0.00 0.00 0.00 0.00 0.00 0.00 0.00 0.00 0.00 0.00 0.01 0.01 0.01 0.01 0.01 0.01 0.01 0.01 0.02 0.04 0.10 0.23 0.48 0.66 0.66 0.63 0.59 0.64 0.70 0.79 1.01 1.31 1.63 1.89 2.11 2.32 2.51 2.62 2.56 2.40 2.24
0.00 0.00 0.00 0.00 0.00 0.00 0.00 0.00 0.00 0.00 0.00 0.00 0.00 0.02 0.02 0.02 0.01 0.01 0.02 0.03 0.03 0.04 0.06 0.10 0.19 0.32 0.51 0.64 0.71 0.76 0.93 1.16 1.37 1.73 2.14 2.55 2.98 3.20 3.22 3.12 3.02 2.87 2.69 2.50
0.00 0.00 0.00 0.00 0.00 0.00 0.00 0.00 0.00 0.00 0.00 0.00 0.00 0.02 0.04 0.03 0.03 0.03 0.04 0.04 0.05 0.06 0.08 0.11 0.18 0.27 0.40 0.55 0.66 0.80 1.05 1.46 1.93 2.54 3.06 3.42 3.72 3.80 3.72 3.50 3.20 2.86 2.59 2.36
0.00 0.00 0.00 0.00 0.00 0.00 0.00 0.00 0.00 0.00 0.00 0.00 0.00 0.02 0.04 0.04 0.04 0.06 0.07 0.07 0.08 0.09 0.12 0.15 0.22 0.31 0.47 0.63 0.85 1.10 1.42 1.94 2.47 2.99 3.42 3.67 3.74 3.68 3.48 3.15 2.78 2.36 2.07 1.88
0.00 0.00 0.00 0.00 0.00 0.00 0.00 0.00 0.00 0.00 0.00 0.01 0.01 0.03 0.05 0.06 0.05 0.06 0.08 0.10 0.11 0.14 0.17 0.20 0.25 0.34 0.51 0.77 1.04 1.33 1.65 2.10 2.53 2.83 3.14 3.23 3.25 3.16 2.88 2.51 2.10 1.75 1.51 1.27
0.00 0.00 0.00 0.00 0.00 0.00 0.00 0.00 0.00 0.00 0.00 0.01 0.01 0.03 0.09 0.11 0.07 0.06 0.08 0.11 0.13 0.14 0.17 0.23 0.30 0.41 0.56 0.78 1.05 1.25 1.49 1.78 2.03 2.27 2.57 2.61 2.46 2.27 2.07 1.80 1.52 1.28 1.08 0.90
0.00 0.00 0.00 0.00 0.00 0.00 0.00 0.00 0.00 0.00 0.00 0.01 0.03 0.07 0.18 0.17 0.12 0.10 0.10 0.11 0.15 0.18 0.21 0.27 0.35 0.44 0.58 0.72 0.88 1.03 1.13 1.29 1.40 1.47 1.57 1.57 1.47 1.33 1.23 1.09 0.93 0.80 0.66 0.51
0.01 0.00 0.00 0.00 0.00 0.00 0.00 0.00 0.00 0.00 0.00 0.01 0.04 0.14 0.24 0.25 0.21 0.16 0.15 0.15 0.19 0.22 0.25 0.31 0.38 0.44 0.51 0.56 0.62 0.63 0.63 0.69 0.72 0.71 0.74 0.75 0.71 0.69 0.66 0.61 0.53 0.44 0.37 0.32
0.01 0.01 0.00 0.00 0.00 0.00 0.00 0.00 0.00 0.00 0.00 0.01 0.04 0.13 0.23 0.33 0.34 0.29 0.24 0.22 0.24 0.26 0.29 0.34 0.37 0.38 0.38 0.37 0.36 0.35 0.36 0.37 0.35 0.35 0.35 0.37 0.38 0.36 0.36 0.35 0.33 0.28 0.24 0.21
0.01 0.01 0.01 0.00 0.00 0.00 0.00 0.00 0.00 0.00 0.00 0.00 0.03 0.13 0.21 0.38 0.46 0.47 0.43 0.35 0.33 0.37 0.42 0.44 0.41 0.34 0.31 0.29 0.26 0.25 0.27 0.25 0.22 0.22 0.23 0.21 0.20 0.19 0.17 0.16 0.16 0.15 0.13 0.11
0.01 0.02 0.01 0.00 0.00 0.00 0.00 0.00 0.00 0.00 0.00 0.00 0.04 0.19 0.25 0.45 0.61 0.60 0.55 0.53 0.51 0.56 0.58 0.56 0.50 0.38 0.31 0.27 0.23 0.20 0.19 0.17 0.16 0.15 0.13 0.13 0.13 0.12 0.11 0.11 0.11 0.10 0.09 0.08
0.01 0.03 0.03 0.03 0.03 0.01 0.01 0.00 0.00 0.00 0.01 0.02 0.07 0.29 0.39 0.55 0.71 0.74 0.68 0.72 0.81 0.90 0.84 0.69 0.55 0.41 0.30 0.26 0.24 0.23 0.19 0.16 0.13 0.11 0.10 0.10 0.10 0.10 0.10 0.10 0.09 0.09 0.09 0.08
0.01 0.02 0.04 0.10 0.10 0.05 0.02 0.02 0.02 0.02 0.04 0.08 0.14 0.32 0.46 0.63 0.77 0.84 0.89 1.05 1.12 0.97 0.72 0.55 0.46 0.37 0.32 0.29 0.27 0.23 0.18 0.15 0.11 0.10 0.10 0.11 0.11 0.10 0.10 0.10 0.09 0.07 0.06 0.05
0.01 0.02 0.03 0.04 0.05 0.04 0.04 0.04 0.04 0.05 0.07 0.11 0.20 0.41 0.65 0.87 0.98 1.06 1.22 1.23 1.04 0.84 0.69 0.58 0.51 0.45 0.40 0.35 0.28 0.22 0.18 0.16 0.13 0.12 0.12 0.12 0.11 0.09 0.08 0.07 0.06 0.05 0.04 0.03
0.01 0.02 0.02 0.04 0.04 0.04 0.05 0.07 0.08 0.09 0.14 0.21 0.33 0.55 0.76 0.97 1.11 1.16 1.19 1.13 1.06 0.97 0.85 0.71 0.60 0.52 0.46 0.39 0.33 0.28 0.25 0.22 0.18 0.15 0.14 0.12 0.10 0.09 0.07 0.05 0.04 0.04 0.03 0.03
0.01 0.02 0.03 0.04 0.04 0.04 0.10 0.10 0.11 0.15 0.23 0.31 0.44 0.61 0.70 0.78 0.91 1.01 1.07 1.03 0.99 0.95 0.88 0.78 0.71 0.64 0.57 0.50 0.43 0.39 0.35 0.28 0.22 0.18 0.16 0.15 0.13 0.10 0.08 0.05 0.03 0.03 0.02 0.02
0.01 0.02 0.03 0.03 0.05 0.12 0.17 0.12 0.14 0.21 0.27 0.28 0.34 0.44 0.52 0.58 0.66 0.74 0.82 0.92 0.96 0.91 0.86 0.80 0.73 0.68 0.63 0.55 0.47 0.40 0.31 0.24 0.21 0.21 0.18 0.14 0.11 0.09 0.06 0.03 0.02 0.02 0.01 0.01
0.01 0.04 0.08 0.08 0.09 0.17 0.25 0.14 0.12 0.27 0.36 0.27 0.28 0.32 0.36 0.40 0.47 0.59 0.66 0.75 0.81 0.80 0.78 0.76 0.72 0.68 0.61 0.52 0.41 0.31 0.25 0.22 0.20 0.18 0.13 0.09 0.07 0.05 0.03 0.02 0.02 0.02 0.02 0.02
0.02 0.04 0.12 0.16 0.19 0.24 0.29 0.14 0.11 0.25 0.52 0.41 0.35 0.37 0.44 0.51 0.55 0.50 0.43 0.43 0.49 0.58 0.67 0.69 0.64 0.57 0.48 0.38 0.27 0.21 0.19 0.16 0.13 0.09 0.05 0.04 0.04 0.02 0.02 0.02 0.02 0.02 0.02 0.02
0.10 0.12 0.15 0.21 0.31 0.36 0.19 0.13 0.19 0.38 0.54 0.57 0.52 0.51 0.56 0.62 0.62 0.49 0.39 0.38 0.41 0.51 0.58 0.55 0.48 0.41 0.32 0.23 0.17 0.14 0.11 0.08 0.06 0.04 0.03 0.04 0.03 0.03 0.02 0.02 0.03 0.03 0.03 0.05
0.14 0.21 0.23 0.29 0.39 0.43 0.17 0.15 0.29 0.39 0.39 0.46 0.42 0.37 0.34 0.33 0.34 0.36 0.36 0.38 0.42 0.46 0.46 0.42 0.35 0.26 0.18 0.14 0.13 0.11 0.08 0.05 0.03 0.04 0.04 0.04 0.03 0.01 0.01 0.04 0.05 0.04 0.06 0.07
0.06 0.11 0.23 0.35 0.41 0.36 0.21 0.18 0.21 0.26 0.34 0.34 0.31 0.27 0.29 0.33 0.34 0.31 0.31 0.33 0.36 0.36 0.33 0.26 0.17 0.13 0.11 0.10 0.10 0.09 0.07 0.04 0.05 0.07 0.07 0.05 0.04 0.02 0.02 0.04 0.05 0.06 0.06 0.06
0.06 0.05 0.12 0.23 0.27 0.25 0.24 0.23 0.20 0.19 0.22 0.22 0.22 0.24 0.28 0.33 0.31 0.26 0.25 0.24 0.23 0.19 0.15 0.13 0.10 0.09 0.08 0.07 0.06 0.06 0.05 0.06 0.09 0.10 0.09 0.08 0.07 0.04 0.03 0.03 0.03 0.05 0.05 0.06
0.10 0.20 0.27 0.27 0.31 0.35 0.34 0.28 0.22 0.20 0.18 0.16 0.19 0.21 0.22 0.23 0.22 0.18 0.17 0.15 0.12 0.10 0.09 0.08 0.07 0.06 0.05 0.03 0.03 0.02 0.03 0.05 0.09 0.10 0.09 0.08 0.05 0.04 0.05 0.05 0.02 0.02 0.03 0.01
0.08 0.33 0.69 0.48 0.40 0.51 0.45 0.33 0.28 0.28 0.25 0.23 0.19 0.16 0.17 0.16 0.13 0.10 0.09 0.08 0.07 0.07 0.05 0.03 0.02 0.02 0.01 0.01 0.02 0.02 0.01 0.02 0.04 0.07 0.07 0.07 0.04 0.04 0.05 0.07 0.08 0.03 0.01 0.00

GEFSCGP_prec_meanprecacc_072.txt.gz
Total_Precipitation_Accumulation
0.00 0.00 0.00 0.00 0.00 0.00 0.00 0.00 0.00 0.00 0.00 0.00 0.01 0.01 0.02 0.01 0.03 0.06 0.13 0.21 0.26 0.20 0.20 0.31 0.34 0.53 0.79 0.72 0.61 0.44 0.37 0.43 0.51 0.57 0.64 0.82 0.95 1.08 1.30 1.49 1.67 1.79 1.77 1.71
0.00 0.00 0.00 0.00 0.00 0.00 0.00 0.00 0.00 0.00 0.00 0.00 0.01 0.03 0.03 0.03 0.06 0.13 0.25 0.35 0.46 0.43 0.32 0.31 0.36 0.57 0.75 0.75 0.74 0.70 0.77 0.85 0.94 1.16 1.44 1.78 2.08 2.32 2.52 2.69 2.78 2.72 2.57 2.40
0.00 0.00 0.00 0.00 0.00 0.00 0.00 0.00 0.00 0.00 0.01 0.01 0.01 0.05 0.06 0.04 0.06 0.11 0.28 0.37 0.43 0.42 0.39 0.34 0.35 0.45 0.64 0.76 0.83 0.87 1.09 1.33 1.56 1.94 2.35 2.76 3.19 3.42 3.48 3.40 3.27 3.09 2.90 2.71
0.00 0.00 0.00 0.00 0.00 0.00 0.00 0.00 0.00 0.00 0.01 0.02 0.03 0.09 0.10 0.07 0.07 0.09 0.13 0.20 0.27 0.25 0.27 0.31 0.37 0.44 0.55 0.69 0.77 0.91 1.17 1.62 2.12 2.76 3.28 3.65 3.95 4.06 4.03 3.83 3.52 3.16 2.86 2.59
0.00 0.00 0.00 0.00 0.00 0.00 0.00 0.00 0.00 0.00 0.00 0.01 0.02 0.10 0.18 0.12 0.11 0.10 0.10 0.11 0.15 0.19 0.21 0.29 0.33 0.43 0.62 0.78 0.98 1.23 1.56 2.09 2.63 3.16 3.63 3.92 4.04 4.03 3.85 3.51 3.12 2.71 2.36 2.08
0.00 0.00 0.00 0.00 0.00 0.00 0.00 0.00 0.00 0.00 0.00 0.02 0.02 0.08 0.21 0.26 0.17 0.10 0.10 0.12 0.15 0.19 0.21 0.27 0.30 0.38 0.58 0.85 1.14 1.43 1.75 2.20 2.63 2.94 3.29 3.43 3.52 3.44 3.17 2.80 2.38 2.01 1.73 1.45
0.01 0.00 0.00 0.00 0.00 0.00 0.00 0.00 0.00 0.00 0.00 0.02 0.04 0.12 0.28 0.41 0.27 0.11 0.09 0.12 0.15 0.17 0.19 0.25 0.32 0.43 0.58 0.81 1.08 1.29 1.54 1.84 2.11 2.36 2.68 2.77 2.66 2.49 2.29 2.03 1.76 1.51 1.27 1.04
0.05 0.01 0.00 0.00 0.00 0.00 0.00 0.00 0.00 0.00 0.01 0.03 0.07 0.20 0.33 0.37 0.26 0.13 0.11 0.12 0.15 0.19 0.22 0.28 0.36 0.45 0.60 0.73 0.91 1.06 1.17 1.33 1.45 1.53 1.65 1.67 1.60 1.47 1.39 1.26 1.10 0.95 0.78 0.61
0.08 0.04 0.00 0.00 0.00 0.00 0.00 0.00 0.00 0.00 0.01 0.06 0.15 0.29 0.36 0.34 0.25 0.18 0.16 0.15 0.19 0.23 0.26 0.32 0.39 0.45 0.53 0.57 0.64 0.64 0.65 0.71 0.75 0.75 0.79 0.81 0.79 0.78 0.75 0.70 0.61 0.52 0.45 0.39
0.05 0.04 0.01 0.00 0.00 0.00 0.00 0.00 0.00 0.01 0.03 0.10 0.18 0.29 0.39 0.45 0.41 0.32 0.26 0.23 0.25 0.27 0.30 0.35 0.38 0.39 0.39 0.38 0.38 0.36 0.37 0.38 0.36 0.37 0.38 0.40 0.41 0.41 0.40 0.40 0.39 0.35 0.31 0.27
0.03 0.03 0.02 0.00 0.00 0.01 0.00 0.00 0.00 0.00 0.02 0.08 0.20 0.42 0.51 0.61 0.59 0.52 0.46 0.37 0.34 0.38 0.43 0.45 0.42 0.35 0.32 0.30 0.27 0.26 0.28 0.26 0.23 0.23 0.25 0.23 0.22 0.22 0.20 0.20 0.21 0.20 0.18 0.16
0.03 0.06 0.04 0.01 0.01 0.00 0.01 0.01 0.00 0.01 0.01 0.03 0.18 0.55 0.67 0.74 0.72 0.65 0.59 0.55 0.53 0.57 0.59 0.57 0.51 0.39 0.32 0.28 0.24 0.21 0.20 0.18 0.16 0.15 0.14 0.14 0.14 0.13 0.13 0.13 0.13 0.12 0.12 0.12
0.03 0.11 0.10 0.08 0.05 0.02 0.01 0.01 0.00 0.00 0.01 0.03 0.18 0.55 0.77 0.83 0.82 0.79 0.71 0.75 0.83 0.91 0.85 0.70 0.56 0.41 0.31 0.26 0.25 0.23 0.19 0.17 0.14 0.11 0.10 0.10 0.11 0.11 0.11 0.11 0.11 0.11 0.11 0.10
0.02 0.08 0.18 0.26 0.20 0.08 0.03 0.02 0.02 0.02 0.05 0.11 0.25 0.50 0.65 0.78 0.86 0.89 0.93 1.07 1.13 0.98 0.73 0.56 0.46 0.38 0.33 0.30 0.28 0.23 0.19 0.15 0.12 0.11 0.11 0.12 0.12 0.11 0.11 0.11 0.10 0.09 0.07 0.06
0.03 0.09 0.13 0.15 0.13 0.07 0.05 0.04 0.05 0.07 0.08 0.17 0.35 0.56 0.78 0.96 1.05 1.12 1.25 1.25 1.06 0.87 0.71 0.60 0.53 0.46 0.41 0.36 0.29 0.22 0.19 0.16 0.14 0.13 0.13 0.13 0.11 0.10 0.09 0.08 0.07 0.05 0.04 0.03
0.03 0.10 0.07 0.08 0.08 0.09 0.08 0.08 0.09 0.11 0.18 0.29 0.48 0.70 0.88 1.05 1.18 1.23 1.26 1.20 1.12 1.04 0.91 0.75 0.64 0.55 0.48 0.41 0.35 0.29 0.26 0.23 0.19 0.16 0.14 0.12 0.10 0.09 0.08 0.06 0.05 0.04 0.04 0.03
0.01 0.04 0.06 0.07 0.05 0.09 0.17 0.12 0.12 0.17 0.25 0.36 0.53 0.70 0.77 0.83 0.97 1.09 1.18 1.15 1.11 1.07 1.00 0.88 0.79 0.71 0.62 0.54 0.46 0.41 0.37 0.29 0.23 0.19 0.17 0.16 0.13 0.11 0.08 0.05 0.04 0.04 0.04 0.03
0.02 0.03 0.04 0.05 0.08 0.21 0.23 0.13 0.14 0.22 0.29 0.30 0.37 0.48 0.56 0.61 0.71 0.82 0.91 1.03 1.08 1.04 1.00 0.94 0.83 0.75 0.68 0.59 0.50 0.42 0.33 0.25 0.22 0.21 0.19 0.15 0.12 0.10 0.07 0.04 0.04 0.03 0.04 0.04
0.01 0.04 0.10 0.10 0.15 0.27 0.30 0.15 0.13 0.30 0.40 0.30 0.30 0.33 0.39 0.43 0.51 0.66 0.75 0.86 0.94 0.94 0.92 0.89 0.83 0.78 0.69 0.58 0.45 0.34 0.28 0.24 0.22 0.19 0.14 0.10 0.08 0.06 0.04 0.04 0.04 0.04 0.05 0.05
0.02 0.04 0.12 0.17 0.24 0.32 0.35 0.15 0.11 0.27 0.58 0.46 0.38 0.39 0.48 0.57 0.62 0.57 0.50 0.51 0.60 0.71 0.79 0.81 0.75 0.66 0.56 0.44 0.30 0.24 0.21 0.18 0.14 0.10 0.06 0.05 0.05 0.04 0.04 0.04 0.04 0.05 0.05 0.06
0.10 0.12 0.16 0.23 0.35 0.42 0.21 0.13 0.21 0.45 0.64 0.62 0.56 0.55 0.63 0.73 0.71 0.55 0.45 0.45 0.49 0.59 0.65 0.62 0.53 0.45 0.36 0.26 0.19 0.17 0.13 0.10 0.06 0.05 0.04 0.05 0.04 0.04 0.04 0.04 0.06 0.06 0.07 0.09
0.14 0.21 0.23 0.30 0.43 0.47 0.17 0.15 0.32 0.43 0.43 0.48 0.47 0.42 0.41 0.38 0.37 0.39 0.41 0.43 0.48 0.53 0.53 0.47 0.39 0.29 0.21 0.17 0.16 0.15 0.11 0.06 0.04 0.05 0.05 0.06 0.04 0.02 0.02 0.06 0.08 0.08 0.10 0.12
0.06 0.12 0.23 0.36 0.43 0.37 0.21 0.18 0.21 0.28 0.36 0.37 0.34 0.30 0.31 0.34 0.36 0.33 0.34 0.38 0.42 0.42 0.38 0.31 0.21 0.17 0.15 0.14 0.13 0.12 0.10 0.06 0.06 0.08 0.08 0.06 0.05 0.03 0.03 0.05 0.07 0.09 0.11 0.11
0.06 0.05 0.12 0.23 0.27 0.25 0.24 0.24 0.21 0.20 0.24 0.24 0.23 0.24 0.29 0.34 0.32 0.27 0.27 0.27 0.27 0.24 0.20 0.18 0.16 0.15 0.12 0.10 0.09 0.08 0.06 0.06 0.10 0.13 0.11 0.10 0.09 0.05 0.04 0.04 0.04 0.07 0.08 0.08
0.10 0.20 0.28 0.28 0.31 0.35 0.34 0.29 0.23 0.21 0.18 0.17 0.20 0.21 0.23 0.24 0.23 0.19 0.19 0.17 0.15 0.13 0.13 0.12 0.11 0.09 0.06 0.04 0.03 0.03 0.03 0.05 0.09 0.11 0.10 0.09 0.06 0.05 0.06 0.06 0.03 0.03 0.04 0.02
0.08 0.33 0.69 0.48 0.40 0.51 0.45 0.34 0.29 0.28 0.25 0.24 0.19 0.16 0.18 0.17 0.14 0.11 0.11 0.10 0.09 0.08 0.06 0.05 0.03 0.02 0.01 0.01 0.02 0.02 0.01 0.02 0.05 0.08 0.08 0.07 0.04 0.04 0.06 0.09 0.10 0.03 0.01 0.00

GEFSCGP_prec_meanprecacc_078.txt.gz
Total_Precipitation_Accumulation
0.00 0.00 0.00 0.00 0.00 0.00 0.00 0.00 0.00 0.00 0.00 0.00 0.02 0.03 0.04 0.04 0.04 0.09 0.16 0.25 0.37 0.40 0.55 0.86 1.05 1.32 1.55 1.43 1.36 1.12 0.91 0.91 0.87 0.84 0.85 1.02 1.14 1.29 1.52 1.73 1.89 2.01 2.00 1.94
0.00 0.00 0.00 0.00 0.00 0.00 0.00 0.00 0.00 0.01 0.01 0.01 0.02 0.05 0.06 0.07 0.09 0.17 0.31 0.42 0.60 0.73 0.76 0.95 1.20 1.44 1.57 1.52 1.41 1.27 1.24 1.28 1.33 1.48 1.70 2.01 2.30 2.54 2.76 2.97 3.03 2.99 2.83 2.68
0.00 0.00 0.00 0.00 0.00 0.00 0.00 0.00 0.01 0.02 0.03 0.04 0.04 0.10 0.11 0.10 0.11 0.16 0.33 0.44 0.57 0.77 0.89 0.87 0.93 1.08 1.24 1.34 1.38 1.34 1.50 1.76 1.95 2.30 2.68 3.05 3.49 3.73 3.78 3.70 3.60 3.43 3.23 3.02
0.00 0.00 0.00 0.00 0.00 0.00 0.00 0.00 0.01 0.02 0.03 0.07 0.05 0.15 0.18 0.14 0.16 0.16 0.20 0.27 0.38 0.44 0.58 0.72 0.80 0.92 1.06 1.22 1.30 1.35 1.54 1.99 2.48 3.09 3.60 3.95 4.24 4.37 4.37 4.22 3.94 3.56 3.24 2.96
0.00 0.00 0.00 0.00 0.00 0.00 0.00 0.00 0.00 0.02 0.02 0.05 0.05 0.16 0.28 0.24 0.21 0.21 0.20 0.19 0.23 0.30 0.37 0.51 0.62 0.77 0.96 1.13 1.32 1.54 1.84 2.38 2.91 3.45 3.91 4.19 4.30 4.29 4.12 3.81 3.45 3.05 2.66 2.35
0.00 0.00 0.00 0.00 0.00 0.00 0.00 0.00 0.00 0.01 0.02 0.07 0.07 0.15 0.34 0.44 0.35 0.27 0.23 0.22 0.24 0.29 0.38 0.45 0.49 0.61 0.78 1.03 1.32 1.60 1.90 2.37 2.80 3.12 3.51 3.70 3.80 3.75 3.49 3.07 2.60 2.20 1.90 1.64
0.01 0.00 0.00 0.00 0.00 0.00 0.00 0.00 0.00 0.01 0.02 0.07 0.08 0.21 0.43 0.59 0.50 0.39 0.28 0.26 0.24 0.26 0.32 0.39 0.45 0.54 0.68 0.90 1.18 1.39 1.62 1.93 2.21 2.48 2.81 2.93 2.86 2.72 2.55 2.27 1.95 1.66 1.40 1.17
0.05 0.02 0.00 0.00 0.00 0.00 0.00 0.00 0.00 0.01 0.03 0.07 0.13 0.33 0.51 0.58 0.47 0.32 0.26 0.23 0.23 0.25 0.27 0.35 0.46 0.55 0.65 0.77 0.95 1.12 1.24 1.39 1.51 1.60 1.73 1.77 1.72 1.61 1.54 1.40 1.21 1.04 0.84 0.67
0.10 0.05 0.00 0.00 0.00 0.00 0.00 0.00 0.00 0.01 0.02 0.09 0.26 0.47 0.65 0.64 0.51 0.34 0.26 0.22 0.25 0.27 0.28 0.34 0.42 0.50 0.56 0.60 0.66 0.67 0.68 0.75 0.79 0.79 0.86 0.92 0.90 0.88 0.83 0.76 0.66 0.56 0.48 0.41
0.08 0.07 0.01 0.00 0.00 0.00 0.00 0.00 0.00 0.01 0.05 0.13 0.26 0.45 0.68 0.88 0.79 0.60 0.45 0.32 0.29 0.30 0.32 0.37 0.40 0.41 0.41 0.40 0.39 0.37 0.39 0.40 0.38 0.39 0.40 0.43 0.45 0.44 0.42 0.42 0.41 0.37 0.33 0.29
0.06 0.07 0.03 0.01 0.01 0.01 0.01 0.01 0.01 0.03 0.06 0.14 0.32 0.62 0.77 0.91 0.91 0.80 0.63 0.46 0.39 0.41 0.45 0.46 0.44 0.36 0.33 0.31 0.28 0.27 0.28 0.26 0.24 0.24 0.26 0.24 0.23 0.23 0.21 0.21 0.22 0.20 0.18 0.16
0.05 0.09 0.06 0.03 0.02 0.02 0.02 0.02 0.02 0.03 0.05 0.08 0.31 0.85 1.06 1.18 1.12 0.93 0.78 0.66 0.59 0.60 0.60 0.58 0.52 0.40 0.33 0.29 0.25 0.21 0.20 0.18 0.17 0.16 0.14 0.14 0.14 0.14 0.13 0.13 0.13 0.13 0.12 0.12
0.04 0.13 0.14 0.12 0.08 0.04 0.03 0.02 0.02 0.02 0.05 0.11 0.32 0.84 1.14 1.24 1.20 1.02 0.84 0.84 0.90 0.95 0.87 0.71 0.57 0.43 0.32 0.27 0.25 0.24 0.19 0.17 0.14 0.11 0.11 0.11 0.11 0.11 0.11 0.11 0.11 0.11 0.11 0.10
0.04 0.12 0.21 0.30 0.23 0.10 0.04 0.03 0.03 0.04 0.08 0.18 0.36 0.68 0.93 1.04 1.05 1.05 1.06 1.16 1.19 1.01 0.75 0.57 0.48 0.39 0.33 0.30 0.28 0.24 0.19 0.16 0.12 0.11 0.11 0.12 0.12 0.11 0.11 0.11 0.10 0.09 0.07 0.06
0.06 0.13 0.16 0.18 0.15 0.10 0.09 0.07 0.07 0.08 0.10 0.22 0.42 0.69 0.98 1.12 1.16 1.20 1.31 1.29 1.10 0.89 0.73 0.61 0.53 0.47 0.42 0.36 0.30 0.23 0.20 0.17 0.14 0.13 0.13 0.13 0.11 0.10 0.09 0.08 0.07 0.05 0.04 0.03
0.05 0.14 0.12 0.14 0.14 0.16 0.18 0.17 0.19 0.17 0.21 0.33 0.54 0.81 1.02 1.16 1.25 1.28 1.30 1.24 1.17 1.08 0.94 0.78 0.66 0.58 0.50 0.42 0.35 0.30 0.27 0.23 0.19 0.16 0.14 0.13 0.11 0.09 0.08 0.06 0.05 0.04 0.04 0.03
0.03 0.08 0.12 0.16 0.12 0.18 0.28 0.23 0.20 0.22 0.29 0.42 0.58 0.77 0.84 0.90 1.04 1.16 1.25 1.22 1.17 1.11 1.04 0.93 0.85 0.76 0.66 0.56 0.47 0.42 0.37 0.30 0.23 0.19 0.17 0.16 0.13 0.11 0.09 0.06 0.05 0.04 0.04 0.03
0.04 0.07 0.10 0.13 0.15 0.33 0.36 0.24 0.23 0.26 0.32 0.34 0.39 0.51 0.60 0.66 0.75 0.86 0.95 1.07 1.11 1.07 1.03 0.97 0.87 0.79 0.72 0.62 0.52 0.43 0.34 0.26 0.23 0.22 0.19 0.15 0.12 0.10 0.07 0.05 0.04 0.03 0.04 0.04
0.02 0.06 0.13 0.15 0.22 0.35 0.36 0.24 0.20 0.33 0.41 0.31 0.31 0.35 0.41 0.46 0.54 0.70 0.79 0.89 0.97 0.97 0.95 0.92 0.86 0.81 0.71 0.59 0.46 0.34 0.28 0.25 0.23 0.20 0.14 0.10 0.09 0.07 0.05 0.04 0.04 0.04 0.05 0.05
0.03 0.05 0.14 0.22 0.31 0.38 0.40 0.20 0.14 0.30 0.61 0.49 0.39 0.40 0.50 0.59 0.64 0.60 0.53 0.54 0.64 0.75 0.83 0.84 0.78 0.67 0.57 0.45 0.31 0.25 0.22 0.18 0.15 0.11 0.07 0.05 0.05 0.04 0.04 0.04 0.04 0.05 0.05 0.06
0.11 0.13 0.17 0.24 0.39 0.44 0.22 0.15 0.23 0.48 0.67 0.65 0.58 0.57 0.66 0.76 0.74 0.58 0.47 0.47 0.51 0.61 0.68 0.64 0.56 0.47 0.37 0.27 0.20 0.18 0.14 0.10 0.07 0.05 0.05 0.05 0.05 0.04 0.04 0.04 0.06 0.07 0.07 0.10
0.14 0.22 0.25 0.31 0.45 0.48 0.18 0.16 0.33 0.44 0.44 0.50 0.48 0.44 0.44 0.42 0.41 0.41 0.42 0.45 0.50 0.55 0.55 0.50 0.41 0.31 0.23 0.18 0.17 0.16 0.12 0.07 0.04 0.05 0.06 0.06 0.04 0.02 0.02 0.06 0.08 0.08 0.11 0.12
0.06 0.12 0.24 0.36 0.44 0.37 0.21 0.19 0.22 0.29 0.37 0.37 0.35 0.30 0.32 0.34 0.36 0.34 0.35 0.40 0.44 0.44 0.40 0.32 0.23 0.19 0.16 0.15 0.14 0.13 0.10 0.06 0.06 0.08 0.09 0.07 0.05 0.03 0.03 0.05 0.08 0.09 0.11 0.11
0.06 0.05 0.12 0.23 0.27 0.26 0.24 0.24 0.21 0.20 0.24 0.24 0.23 0.24 0.29 0.35 0.33 0.28 0.28 0.28 0.29 0.26 0.21 0.19 0.17 0.16 0.13 0.11 0.10 0.09 0.07 0.07 0.10 0.13 0.11 0.10 0.09 0.05 0.04 0.05 0.04 0.07 0.08 0.08
0.10 0.20 0.28 0.28 0.31 0.35 0.34 0.29 0.24 0.21 0.18 0.17 0.20 0.21 0.23 0.24 0.23 0.20 0.19 0.18 0.16 0.14 0.14 0.13 0.12 0.09 0.07 0.05 0.03 0.03 0.03 0.05 0.10 0.12 0.10 0.09 0.06 0.05 0.07 0.07 0.03 0.03 0.04 0.02
0.08 0.33 0.69 0.48 0.40 0.51 0.45 0.34 0.30 0.28 0.25 0.24 0.19 0.16 0.18 0.17 0.14 0.11 0.11 0.11 0.10 0.09 0.07 0.05 0.04 0.03 0.02 0.01 0.02 0.02 0.01 0.02 0.05 0.08 0.08 0.07 0.05 0.05 0.07 0.10 0.10 0.03 0.01 0.00

GEFSCGP_prec_meanprecacc_084.txt.gz
Total_Precipitation_Accumulation
0.00 0.00 0.00 0.00 0.00 0.00 0.00 0.00 0.00 0.00 0.00 0.01 0.02 0.04 0.05 0.05 0.06 0.10 0.18 0.28 0.39 0.43 0.59 0.91 1.13 1.47 1.77 1.66 1.62 1.46 1.35 1.37 1.36 1.34 1.34 1.47 1.51 1.60 1.83 2.06 2.24 2.39 2.39 2.27
0.00 0.00 0.00 0.00 0.00 0.00 0.00 0.00 0.01 0.01 0.02 0.02 0.03 0.07 0.09 0.09 0.11 0.19 0.34 0.45 0.63 0.76 0.79 1.00 1.28 1.58 1.81 1.80 1.73 1.69 1.72 1.73 1.82 2.04 2.34 2.61 2.81 2.97 3.10 3.29 3.36 3.29 3.12 2.97
0.00 0.00 0.00 0.00 0.00 0.00 0.00 0.00 0.01 0.03 0.05 0.07 0.07 0.14 0.16 0.14 0.14 0.20 0.38 0.48 0.60 0.80 0.93 0.92 1.00 1.18 1.48 1.66 1.77 1.82 2.03 2.26 2.49 2.92 3.38 3.67 4.01 4.20 4.16 4.02 3.88 3.65 3.45 3.23
0.00 0.00 0.00 0.00 0.00 0.00 0.00 0.00 0.01 0.03 0.05 0.11 0.10 0.20 0.26 0.21 0.21 0.21 0.26 0.32 0.42 0.49 0.62 0.77 0.87 1.00 1.22 1.43 1.63 1.82 2.08 2.53 3.08 3.73 4.30 4.66 4.81 4.82 4.75 4.53 4.17 3.76 3.44 3.13
0.00 0.00 0.00 0.00 0.00 0.00 0.00 0.00 0.00 0.02 0.03 0.08 0.09 0.23 0.37 0.32 0.27 0.27 0.28 0.28 0.31 0.38 0.43 0.57 0.69 0.85 1.06 1.26 1.53 1.86 2.25 2.82 3.38 3.94 4.41 4.72 4.80 4.70 4.48 4.13 3.70 3.27 2.85 2.51
0.00 0.00 0.00 0.00 0.00 0.00 0.00 0.00 0.01 0.02 0.03 0.08 0.10 0.20 0.44 0.54 0.46 0.40 0.35 0.33 0.36 0.41 0.49 0.54 0.57 0.68 0.86 1.11 1.43 1.76 2.13 2.63 3.06 3.40 3.82 4.02 4.12 4.02 3.72 3.29 2.78 2.36 2.05 1.77
0.01 0.00 0.00 0.00 0.00 0.00 0.00 0.00 0.01 0.01 0.03 0.08 0.11 0.26 0.51 0.72 0.62 0.52 0.42 0.38 0.38 0.42 0.46 0.51 0.55 0.61 0.74 0.96 1.26 1.48 1.73 2.09 2.37 2.67 2.98 3.11 3.05 2.90 2.69 2.40 2.07 1.76 1.48 1.24
0.05 0.02 0.00 0.00 0.00 0.00 0.00 0.00 0.00 0.01 0.03 0.09 0.19 0.39 0.58 0.69 0.59 0.45 0.36 0.31 0.32 0.34 0.38 0.48 0.59 0.64 0.75 0.86 1.02 1.19 1.30 1.46 1.59 1.70 1.85 1.87 1.81 1.70 1.62 1.48 1.29 1.10 0.90 0.71
0.10 0.05 0.01 0.00 0.00 0.00 0.00 0.00 0.01 0.01 0.02 0.11 0.31 0.52 0.73 0.73 0.61 0.43 0.35 0.29 0.31 0.33 0.34 0.41 0.52 0.61 0.67 0.71 0.74 0.73 0.74 0.79 0.82 0.83 0.92 0.98 0.97 0.95 0.89 0.80 0.69 0.60 0.53 0.45
0.09 0.07 0.02 0.01 0.00 0.00 0.00 0.00 0.01 0.02 0.05 0.14 0.31 0.50 0.75 0.98 0.90 0.71 0.55 0.41 0.37 0.36 0.39 0.44 0.47 0.48 0.48 0.48 0.47 0.43 0.44 0.43 0.41 0.41 0.43 0.46 0.50 0.49 0.47 0.46 0.44 0.40 0.36 0.31
0.07 0.07 0.04 0.02 0.02 0.01 0.01 0.01 0.01 0.04 0.07 0.15 0.34 0.64 0.81 1.02 1.04 0.92 0.73 0.55 0.45 0.47 0.50 0.53 0.53 0.43 0.38 0.35 0.33 0.32 0.34 0.30 0.27 0.27 0.28 0.27 0.26 0.25 0.23 0.23 0.24 0.22 0.20 0.18
0.05 0.10 0.07 0.04 0.03 0.02 0.03 0.02 0.02 0.04 0.06 0.09 0.32 0.86 1.09 1.25 1.25 1.10 0.95 0.79 0.68 0.66 0.65 0.63 0.58 0.45 0.37 0.31 0.27 0.24 0.24 0.22 0.20 0.18 0.16 0.16 0.16 0.15 0.14 0.14 0.14 0.13 0.12 0.12
0.04 0.14 0.14 0.12 0.08 0.05 0.04 0.03 0.03 0.03 0.05 0.11 0.33 0.86 1.17 1.28 1.27 1.13 0.99 0.97 1.01 1.04 0.95 0.76 0.61 0.45 0.34 0.28 0.26 0.25 0.21 0.19 0.16 0.13 0.12 0.12 0.12 0.11 0.11 0.11 0.11 0.11 0.11 0.10
0.04 0.12 0.21 0.31 0.23 0.11 0.06 0.04 0.04 0.05 0.09 0.19 0.37 0.70 0.95 1.07 1.08 1.10 1.15 1.26 1.29 1.11 0.83 0.62 0.51 0.42 0.35 0.31 0.29 0.24 0.20 0.16 0.12 0.11 0.11 0.12 0.12 0.11 0.11 0.11 0.10 0.09 0.07 0.06
0.06 0.13 0.17 0.19 0.16 0.12 0.10 0.08 0.08 0.09 0.11 0.23 0.44 0.72 1.00 1.14 1.18 1.23 1.38 1.39 1.18 0.97 0.79 0.65 0.56 0.50 0.45 0.38 0.31 0.24 0.21 0.17 0.15 0.13 0.13 0.13 0.12 0.10 0.09 0.08 0.07 0.05 0.04 0.03
0.05 0.15 0.13 0.15 0.16 0.17 0.19 0.18 0.20 0.18 0.22 0.34 0.56 0.83 1.04 1.18 1.28 1.31 1.34 1.31 1.25 1.14 0.99 0.82 0.69 0.60 0.53 0.44 0.36 0.31 0.28 0.24 0.19 0.16 0.14 0.13 0.11 0.09 0.08 0.06 0.05 0.04 0.04 0.03
0.04 0.09 0.13 0.17 0.14 0.20 0.30 0.24 0.21 0.23 0.31 0.44 0.59 0.78 0.85 0.92 1.08 1.22 1.31 1.28 1.24 1.19 1.10 0.97 0.88 0.79 0.68 0.57 0.48 0.42 0.38 0.30 0.23 0.19 0.17 0.16 0.13 0.11 0.09 0.06 0.05 0.04 0.04 0.03
0.04 0.08 0.11 0.14 0.17 0.35 0.38 0.26 0.24 0.27 0.34 0.36 0.41 0.52 0.62 0.68 0.79 0.91 1.00 1.13 1.20 1.16 1.09 1.02 0.92 0.82 0.74 0.63 0.52 0.43 0.34 0.27 0.23 0.22 0.19 0.15 0.13 0.10 0.07 0.05 0.04 0.03 0.04 0.04
0.04 0.08 0.14 0.16 0.23 0.36 0.37 0.25 0.23 0.35 0.43 0.33 0.32 0.35 0.43 0.49 0.57 0.76 0.86 0.97 1.07 1.06 1.00 0.96 0.89 0.83 0.72 0.60 0.47 0.35 0.29 0.26 0.25 0.21 0.15 0.10 0.09 0.08 0.05 0.04 0.04 0.04 0.05 0.05
0.03 0.06 0.15 0.23 0.32 0.40 0.41 0.21 0.14 0.31 0.62 0.49 0.39 0.40 0.50 0.61 0.67 0.64 0.57 0.60 0.72 0.85 0.91 0.89 0.81 0.70 0.59 0.46 0.32 0.25 0.22 0.19 0.16 0.12 0.08 0.06 0.06 0.05 0.04 0.04 0.04 0.05 0.05 0.06
0.11 0.13 0.17 0.25 0.39 0.45 0.23 0.15 0.24 0.49 0.67 0.65 0.58 0.58 0.66 0.77 0.77 0.61 0.50 0.51 0.57 0.69 0.76 0.71 0.60 0.50 0.39 0.28 0.21 0.18 0.14 0.10 0.07 0.06 0.05 0.06 0.05 0.04 0.04 0.04 0.06 0.07 0.07 0.10
0.14 0.22 0.25 0.32 0.45 0.48 0.18 0.16 0.33 0.45 0.44 0.50 0.48 0.44 0.45 0.44 0.44 0.46 0.47 0.49 0.54 0.60 0.60 0.54 0.44 0.34 0.25 0.20 0.18 0.16 0.12 0.07 0.05 0.05 0.06 0.06 0.04 0.02 0.02 0.06 0.08 0.08 0.11 0.12
0.06 0.12 0.24 0.37 0.44 0.37 0.21 0.19 0.22 0.29 0.37 0.38 0.35 0.31 0.32 0.35 0.39 0.38 0.39 0.43 0.48 0.47 0.43 0.35 0.25 0.21 0.18 0.17 0.16 0.14 0.11 0.06 0.06 0.09 0.09 0.07 0.05 0.03 0.03 0.05 0.08 0.09 0.11 0.11
0.06 0.05 0.12 0.23 0.27 0.26 0.24 0.24 0.21 0.20 0.24 0.24 0.24 0.25 0.30 0.36 0.35 0.30 0.29 0.30 0.31 0.29 0.23 0.21 0.19 0.17 0.14 0.12 0.10 0.09 0.07 0.07 0.10 0.13 0.12 0.10 0.09 0.05 0.04 0.05 0.04 0.07 0.08 0.08
0.10 0.20 0.28 0.28 0.31 0.35 0.34 0.29 0.24 0.21 0.18 0.17 0.20 0.22 0.23 0.24 0.24 0.21 0.20 0.19 0.17 0.16 0.15 0.14 0.13 0.10 0.08 0.05 0.03 0.03 0.03 0.05 0.10 0.12 0.11 0.09 0.06 0.05 0.07 0.07 0.03 0.03 0.04 0.02
0.08 0.33 0.69 0.48 0.40 0.51 0.45 0.34 0.30 0.28 0.25 0.24 0.19 0.17 0.18 0.17 0.14 0.11 0.11 0.11 0.11 0.10 0.08 0.06 0.05 0.04 0.03 0.02 0.02 0.02 0.01 0.02 0.05 0.08 0.08 0.07 0.05 0.05 0.07 0.10 0.10 0.03 0.01 0.00

GEFSCGP_prec_meanprecacc_090.txt.gz
Total_Precipitation_Accumulation
0.00 0.00 0.00 0.00 0.00 0.00 0.00 0.00 0.00 0.00 0.01 0.01 0.03 0.04 0.06 0.06 0.07 0.11 0.19 0.29 0.41 0.44 0.61 0.94 1.16 1.52 1.82 1.72 1.71 1.57 1.49 1.56 1.59 1.62 1.63 1.79 1.83 1.90 2.13 2.36 2.52 2.64 2.64 2.49
0.00 0.00 0.00 0.00 0.00 0.00 0.00 0.00 0.01 0.02 0.02 0.03 0.04 0.08 0.10 0.10 0.13 0.21 0.35 0.46 0.65 0.78 0.81 1.02 1.30 1.61 1.85 1.85 1.80 1.78 1.84 1.87 1.98 2.24 2.58 2.92 3.12 3.28 3.40 3.56 3.60 3.52 3.35 3.20
0.00 0.00 0.00 0.00 0.00 0.00 0.00 0.00 0.02 0.03 0.06 0.08 0.09 0.16 0.19 0.16 0.16 0.22 0.39 0.49 0.62 0.81 0.94 0.93 1.02 1.21 1.51 1.71 1.83 1.89 2.13 2.38 2.66 3.12 3.60 3.96 4.31 4.50 4.45 4.27 4.07 3.85 3.65 3.43
0.00 0.00 0.00 0.00 0.00 0.00 0.00 0.00 0.01 0.03 0.06 0.14 0.13 0.25 0.30 0.26 0.24 0.24 0.29 0.35 0.45 0.50 0.63 0.78 0.89 1.02 1.25 1.48 1.70 1.91 2.22 2.69 3.29 3.95 4.51 4.91 5.09 5.07 4.97 4.72 4.37 3.97 3.65 3.32
0.00 0.00 0.00 0.00 0.00 0.00 0.00 0.00 0.01 0.03 0.04 0.11 0.12 0.28 0.42 0.37 0.32 0.31 0.32 0.31 0.34 0.40 0.45 0.59 0.71 0.87 1.09 1.29 1.59 1.94 2.36 2.97 3.55 4.10 4.59 4.95 5.07 4.96 4.71 4.33 3.91 3.45 3.06 2.72
0.00 0.00 0.00 0.00 0.00 0.00 0.00 0.00 0.01 0.03 0.05 0.12 0.13 0.24 0.49 0.59 0.51 0.44 0.39 0.38 0.39 0.44 0.50 0.55 0.59 0.70 0.89 1.14 1.47 1.82 2.22 2.73 3.19 3.54 3.97 4.20 4.31 4.23 3.92 3.47 2.96 2.52 2.22 1.95
0.01 0.00 0.00 0.00 0.00 0.00 0.00 0.00 0.02 0.03 0.05 0.11 0.13 0.29 0.55 0.78 0.71 0.59 0.47 0.43 0.41 0.45 0.49 0.54 0.58 0.63 0.77 0.99 1.30 1.52 1.80 2.16 2.46 2.77 3.10 3.24 3.20 3.04 2.83 2.53 2.20 1.88 1.59 1.34
0.05 0.02 0.00 0.00 0.00 0.00 0.00 0.00 0.01 0.02 0.05 0.12 0.23 0.44 0.62 0.72 0.67 0.54 0.44 0.35 0.35 0.37 0.40 0.51 0.63 0.68 0.78 0.88 1.06 1.23 1.35 1.51 1.65 1.78 1.93 1.96 1.91 1.81 1.75 1.62 1.42 1.22 0.99 0.76
0.10 0.05 0.01 0.00 0.00 0.00 0.00 0.00 0.01 0.01 0.03 0.14 0.36 0.56 0.77 0.76 0.67 0.49 0.42 0.34 0.33 0.35 0.36 0.42 0.54 0.67 0.72 0.75 0.79 0.80 0.80 0.85 0.88 0.90 0.98 1.03 1.03 1.01 0.95 0.88 0.77 0.68 0.59 0.50
0.09 0.07 0.02 0.01 0.00 0.00 0.00 0.01 0.01 0.02 0.07 0.17 0.34 0.55 0.81 1.03 0.96 0.77 0.61 0.48 0.42 0.40 0.42 0.47 0.51 0.55 0.58 0.56 0.53 0.50 0.52 0.52 0.48 0.46 0.47 0.49 0.53 0.53 0.51 0.49 0.47 0.43 0.39 0.34
0.07 0.07 0.04 0.02 0.02 0.02 0.01 0.01 0.02 0.04 0.08 0.18 0.38 0.70 0.86 1.08 1.09 1.00 0.82 0.64 0.54 0.55 0.57 0.58 0.57 0.50 0.49 0.47 0.43 0.40 0.42 0.38 0.34 0.33 0.33 0.30 0.28 0.28 0.26 0.25 0.25 0.24 0.22 0.19
0.05 0.10 0.07 0.04 0.03 0.02 0.03 0.03 0.03 0.05 0.07 0.11 0.35 0.91 1.13 1.32 1.31 1.18 1.08 0.95 0.83 0.78 0.74 0.70 0.64 0.53 0.46 0.41 0.37 0.34 0.32 0.29 0.27 0.23 0.20 0.19 0.18 0.17 0.16 0.16 0.16 0.14 0.13 0.12
0.04 0.15 0.15 0.13 0.09 0.05 0.04 0.03 0.03 0.04 0.07 0.13 0.35 0.90 1.22 1.34 1.31 1.19 1.06 1.06 1.13 1.16 1.03 0.82 0.65 0.52 0.41 0.35 0.33 0.31 0.27 0.25 0.21 0.18 0.16 0.16 0.14 0.13 0.13 0.13 0.12 0.12 0.11 0.11
0.05 0.13 0.23 0.32 0.25 0.12 0.07 0.05 0.05 0.05 0.10 0.21 0.40 0.72 0.99 1.12 1.13 1.15 1.19 1.31 1.37 1.20 0.90 0.66 0.54 0.46 0.41 0.37 0.34 0.28 0.23 0.19 0.16 0.15 0.15 0.17 0.17 0.14 0.13 0.13 0.12 0.09 0.07 0.06
0.07 0.14 0.18 0.19 0.17 0.12 0.11 0.09 0.09 0.10 0.12 0.25 0.47 0.74 1.03 1.17 1.21 1.26 1.41 1.44 1.26 1.04 0.87 0.71 0.60 0.54 0.49 0.42 0.34 0.27 0.23 0.19 0.16 0.15 0.15 0.15 0.14 0.12 0.10 0.09 0.07 0.05 0.04 0.03
0.06 0.16 0.14 0.16 0.17 0.19 0.20 0.18 0.21 0.20 0.25 0.36 0.59 0.85 1.06 1.20 1.30 1.34 1.40 1.37 1.33 1.23 1.07 0.90 0.77 0.67 0.57 0.47 0.39 0.33 0.30 0.25 0.20 0.18 0.16 0.14 0.12 0.10 0.08 0.07 0.05 0.04 0.04 0.03
0.05 0.11 0.16 0.19 0.15 0.22 0.33 0.25 0.22 0.24 0.32 0.46 0.62 0.80 0.87 0.94 1.10 1.25 1.36 1.34 1.32 1.26 1.17 1.04 0.94 0.84 0.73 0.60 0.50 0.45 0.40 0.32 0.25 0.21 0.19 0.17 0.14 0.12 0.09 0.06 0.05 0.05 0.04 0.04
0.06 0.11 0.14 0.17 0.19 0.38 0.40 0.26 0.24 0.28 0.35 0.37 0.43 0.53 0.64 0.70 0.81 0.93 1.05 1.19 1.28 1.24 1.16 1.08 0.96 0.86 0.77 0.65 0.54 0.45 0.36 0.28 0.25 0.24 0.21 0.16 0.14 0.12 0.09 0.06 0.05 0.04 0.04 0.04
0.04 0.09 0.17 0.19 0.25 0.39 0.39 0.26 0.24 0.37 0.45 0.34 0.33 0.36 0.44 0.50 0.61 0.81 0.92 1.06 1.19 1.18 1.10 1.03 0.94 0.86 0.75 0.62 0.49 0.38 0.32 0.28 0.27 0.24 0.17 0.12 0.11 0.09 0.06 0.05 0.05 0.05 0.05 0.06
0.04 0.07 0.17 0.25 0.34 0.42 0.42 0.21 0.15 0.33 0.63 0.50 0.40 0.41 0.51 0.61 0.70 0.69 0.64 0.70 0.85 1.01 1.05 0.98 0.87 0.74 0.62 0.48 0.34 0.27 0.24 0.21 0.19 0.14 0.09 0.07 0.08 0.06 0.05 0.05 0.05 0.06 0.06 0.07
0.12 0.14 0.19 0.27 0.41 0.46 0.23 0.16 0.25 0.50 0.69 0.66 0.59 0.59 0.68 0.79 0.79 0.64 0.55 0.60 0.68 0.81 0.89 0.79 0.65 0.55 0.43 0.31 0.24 0.21 0.16 0.13 0.09 0.07 0.06 0.07 0.07 0.06 0.05 0.06 0.07 0.08 0.08 0.11
0.15 0.22 0.25 0.33 0.47 0.49 0.18 0.16 0.34 0.45 0.45 0.50 0.49 0.47 0.47 0.46 0.47 0.50 0.52 0.57 0.64 0.70 0.69 0.61 0.50 0.39 0.29 0.24 0.21 0.19 0.14 0.09 0.06 0.06 0.07 0.07 0.05 0.03 0.03 0.07 0.09 0.09 0.11 0.13
0.06 0.12 0.24 0.37 0.45 0.38 0.21 0.19 0.22 0.29 0.37 0.38 0.36 0.33 0.35 0.38 0.41 0.41 0.43 0.49 0.55 0.56 0.51 0.41 0.30 0.25 0.21 0.19 0.18 0.16 0.13 0.08 0.08 0.10 0.11 0.08 0.06 0.04 0.03 0.06 0.08 0.10 0.12 0.11
0.06 0.05 0.12 0.24 0.27 0.26 0.24 0.24 0.21 0.20 0.25 0.24 0.24 0.27 0.32 0.38 0.37 0.33 0.33 0.36 0.38 0.35 0.29 0.26 0.23 0.21 0.17 0.14 0.12 0.11 0.09 0.08 0.12 0.15 0.13 0.11 0.10 0.07 0.04 0.05 0.05 0.07 0.08 0.08
0.10 0.20 0.28 0.28 0.31 0.35 0.34 0.29 0.24 0.21 0.18 0.17 0.20 0.23 0.26 0.27 0.26 0.23 0.24 0.24 0.23 0.20 0.19 0.18 0.16 0.13 0.10 0.07 0.05 0.04 0.04 0.06 0.12 0.14 0.12 0.10 0.07 0.06 0.08 0.08 0.04 0.03 0.04 0.02
0.08 0.33 0.69 0.48 0.40 0.51 0.45 0.35 0.30 0.28 0.25 0.24 0.19 0.17 0.19 0.18 0.16 0.13 0.14 0.15 0.14 0.12 0.11 0.09 0.08 0.06 0.05 0.03 0.03 0.03 0.02 0.03 0.07 0.09 0.09 0.08 0.06 0.05 0.07 0.10 0.10 0.03 0.01 0.00

GEFSCGP_prec_meanprecacc_096.txt.gz
Total_Precipitation_Accumulation
0.00 0.00 0.00 0.00 0.00 0.00 0.00 0.00 0.00 0.00 0.01 0.01 0.04 0.05 0.07 0.07 0.08 0.12 0.20 0.30 0.41 0.46 0.63 0.96 1.18 1.55 1.87 1.78 1.80 1.69 1.64 1.74 1.79 1.84 1.89 2.09 2.07 2.10 2.34 2.60 2.77 2.95 3.00 2.83
0.00 0.00 0.00 0.00 0.00 0.00 0.00 0.00 0.01 0.02 0.02 0.03 0.05 0.09 0.12 0.11 0.14 0.22 0.37 0.47 0.66 0.79 0.83 1.04 1.32 1.63 1.87 1.88 1.85 1.87 1.96 2.02 2.13 2.40 2.76 3.11 3.32 3.47 3.58 3.75 3.81 3.74 3.59 3.43
0.00 0.00 0.00 0.00 0.00 0.00 0.00 0.00 0.02 0.04 0.07 0.08 0.10 0.19 0.24 0.20 0.18 0.24 0.44 0.53 0.65 0.82 0.95 0.95 1.03 1.23 1.53 1.73 1.87 1.95 2.21 2.48 2.78 3.25 3.75 4.13 4.46 4.64 4.59 4.41 4.24 4.02 3.83 3.63
0.00 0.00 0.00 0.00 0.00 0.00 0.01 0.00 0.02 0.03 0.07 0.16 0.16 0.32 0.39 0.32 0.28 0.28 0.34 0.38 0.47 0.52 0.64 0.79 0.91 1.04 1.28 1.50 1.73 1.97 2.28 2.77 3.38 4.07 4.63 5.04 5.22 5.20 5.10 4.87 4.49 4.07 3.76 3.44
0.00 0.00 0.00 0.00 0.00 0.00 0.00 0.00 0.01 0.04 0.05 0.13 0.15 0.35 0.53 0.46 0.40 0.38 0.38 0.36 0.37 0.42 0.46 0.61 0.73 0.90 1.12 1.32 1.62 1.98 2.41 3.04 3.63 4.20 4.71 5.10 5.22 5.10 4.85 4.45 4.00 3.54 3.13 2.81
0.00 0.00 0.00 0.00 0.00 0.00 0.00 0.00 0.02 0.05 0.07 0.16 0.15 0.28 0.59 0.72 0.62 0.56 0.49 0.48 0.45 0.47 0.53 0.57 0.61 0.73 0.92 1.17 1.50 1.86 2.26 2.79 3.26 3.63 4.07 4.32 4.45 4.37 4.06 3.61 3.09 2.64 2.33 2.07
0.01 0.01 0.00 0.00 0.00 0.00 0.00 0.01 0.05 0.10 0.12 0.18 0.16 0.33 0.67 0.89 0.82 0.74 0.62 0.53 0.47 0.49 0.53 0.56 0.60 0.65 0.79 1.03 1.33 1.56 1.83 2.20 2.51 2.84 3.19 3.35 3.31 3.15 2.94 2.65 2.33 2.01 1.71 1.46
0.05 0.02 0.00 0.00 0.00 0.00 0.00 0.01 0.06 0.12 0.13 0.20 0.31 0.53 0.75 0.84 0.77 0.67 0.57 0.46 0.41 0.41 0.44 0.52 0.65 0.70 0.80 0.91 1.09 1.26 1.38 1.55 1.70 1.83 1.99 2.04 1.98 1.87 1.81 1.68 1.49 1.29 1.06 0.84
0.10 0.05 0.01 0.00 0.00 0.00 0.00 0.01 0.02 0.04 0.07 0.19 0.45 0.71 0.90 0.87 0.80 0.60 0.49 0.40 0.40 0.39 0.39 0.45 0.56 0.68 0.74 0.76 0.81 0.83 0.83 0.88 0.91 0.93 1.03 1.09 1.09 1.05 1.00 0.92 0.82 0.74 0.66 0.57
0.09 0.07 0.02 0.01 0.00 0.00 0.01 0.01 0.01 0.04 0.13 0.25 0.43 0.71 1.01 1.19 1.14 0.88 0.68 0.54 0.48 0.43 0.45 0.49 0.53 0.57 0.60 0.58 0.56 0.54 0.57 0.56 0.51 0.49 0.51 0.54 0.58 0.57 0.54 0.52 0.50 0.47 0.43 0.38
0.07 0.07 0.04 0.02 0.02 0.02 0.01 0.02 0.02 0.06 0.10 0.24 0.52 0.88 1.03 1.29 1.30 1.11 0.87 0.68 0.59 0.58 0.59 0.60 0.60 0.54 0.52 0.51 0.47 0.44 0.46 0.43 0.39 0.36 0.36 0.34 0.32 0.31 0.29 0.28 0.28 0.26 0.24 0.21
0.05 0.10 0.08 0.05 0.03 0.02 0.03 0.03 0.03 0.07 0.09 0.14 0.45 1.05 1.25 1.46 1.44 1.27 1.16 1.02 0.88 0.83 0.79 0.74 0.67 0.56 0.51 0.47 0.44 0.39 0.38 0.34 0.32 0.28 0.24 0.22 0.20 0.19 0.19 0.18 0.17 0.16 0.15 0.14
0.04 0.15 0.20 0.23 0.19 0.09 0.05 0.04 0.04 0.04 0.09 0.19 0.45 1.05 1.33 1.43 1.40 1.28 1.13 1.12 1.18 1.21 1.09 0.89 0.72 0.57 0.45 0.39 0.40 0.39 0.35 0.32 0.28 0.25 0.22 0.20 0.18 0.16 0.15 0.15 0.14 0.14 0.13 0.12
0.05 0.14 0.27 0.46 0.40 0.17 0.08 0.06 0.06 0.06 0.15 0.29 0.48 0.84 1.09 1.21 1.22 1.24 1.25 1.35 1.40 1.22 0.93 0.71 0.60 0.51 0.45 0.41 0.39 0.35 0.31 0.28 0.24 0.22 0.20 0.21 0.21 0.18 0.16 0.15 0.14 0.11 0.09 0.08
0.07 0.15 0.18 0.20 0.19 0.13 0.11 0.09 0.10 0.11 0.15 0.30 0.53 0.83 1.12 1.24 1.27 1.29 1.43 1.46 1.28 1.07 0.90 0.75 0.64 0.59 0.54 0.46 0.38 0.31 0.28 0.23 0.20 0.20 0.19 0.19 0.19 0.17 0.14 0.13 0.11 0.08 0.06 0.05
0.08 0.17 0.15 0.17 0.17 0.19 0.20 0.19 0.21 0.21 0.27 0.40 0.64 0.93 1.14 1.26 1.34 1.37 1.42 1.40 1.36 1.27 1.11 0.95 0.82 0.72 0.62 0.52 0.43 0.38 0.34 0.29 0.23 0.21 0.19 0.16 0.14 0.14 0.12 0.10 0.09 0.08 0.07 0.06
0.09 0.15 0.20 0.24 0.16 0.24 0.37 0.27 0.23 0.25 0.34 0.48 0.67 0.87 0.92 0.97 1.13 1.27 1.39 1.37 1.36 1.32 1.24 1.11 1.01 0.90 0.78 0.65 0.55 0.49 0.45 0.36 0.29 0.24 0.22 0.20 0.16 0.14 0.12 0.08 0.08 0.07 0.07 0.07
0.10 0.17 0.19 0.23 0.26 0.47 0.46 0.27 0.25 0.29 0.37 0.39 0.46 0.58 0.68 0.75 0.85 0.97 1.08 1.23 1.33 1.33 1.26 1.17 1.04 0.92 0.84 0.71 0.59 0.50 0.41 0.32 0.28 0.27 0.24 0.20 0.17 0.15 0.12 0.08 0.07 0.06 0.07 0.07
0.06 0.14 0.23 0.26 0.36 0.49 0.46 0.28 0.25 0.39 0.49 0.36 0.35 0.39 0.46 0.53 0.64 0.85 0.97 1.11 1.25 1.26 1.20 1.13 1.03 0.94 0.83 0.69 0.55 0.44 0.37 0.31 0.29 0.26 0.20 0.16 0.14 0.12 0.09 0.08 0.07 0.07 0.08 0.08
0.05 0.10 0.23 0.31 0.45 0.57 0.53 0.23 0.16 0.35 0.70 0.53 0.43 0.43 0.52 0.63 0.73 0.74 0.69 0.75 0.93 1.09 1.13 1.09 0.98 0.82 0.69 0.54 0.39 0.32 0.29 0.25 0.22 0.16 0.12 0.10 0.10 0.08 0.07 0.08 0.08 0.09 0.09 0.09
0.15 0.18 0.24 0.34 0.52 0.59 0.28 0.17 0.26 0.57 0.79 0.71 0.62 0.61 0.70 0.85 0.85 0.68 0.60 0.66 0.75 0.88 0.96 0.88 0.75 0.64 0.50 0.36 0.29 0.26 0.21 0.17 0.12 0.09 0.08 0.09 0.09 0.08 0.07 0.08 0.10 0.11 0.11 0.13
0.17 0.26 0.31 0.39 0.56 0.60 0.20 0.17 0.37 0.50 0.48 0.52 0.51 0.49 0.51 0.51 0.51 0.51 0.55 0.63 0.71 0.78 0.77 0.70 0.60 0.49 0.38 0.31 0.28 0.24 0.19 0.14 0.10 0.09 0.09 0.08 0.07 0.04 0.04 0.09 0.11 0.11 0.14 0.16
0.08 0.15 0.29 0.43 0.51 0.41 0.21 0.19 0.23 0.29 0.38 0.38 0.37 0.34 0.37 0.39 0.43 0.43 0.46 0.54 0.62 0.64 0.60 0.51 0.40 0.35 0.30 0.27 0.25 0.23 0.18 0.12 0.11 0.13 0.13 0.09 0.07 0.05 0.04 0.07 0.10 0.12 0.14 0.13
0.09 0.08 0.14 0.25 0.28 0.26 0.24 0.24 0.21 0.21 0.25 0.25 0.25 0.27 0.34 0.39 0.39 0.36 0.37 0.40 0.44 0.43 0.39 0.36 0.32 0.28 0.24 0.20 0.17 0.17 0.13 0.11 0.16 0.19 0.16 0.13 0.13 0.09 0.05 0.06 0.06 0.08 0.09 0.09
0.16 0.23 0.29 0.30 0.32 0.36 0.35 0.29 0.24 0.21 0.18 0.17 0.21 0.25 0.27 0.28 0.28 0.26 0.27 0.28 0.28 0.26 0.25 0.25 0.22 0.19 0.15 0.11 0.09 0.07 0.06 0.08 0.15 0.17 0.14 0.12 0.09 0.08 0.10 0.08 0.04 0.03 0.04 0.02
0.14 0.35 0.70 0.50 0.41 0.51 0.46 0.35 0.30 0.28 0.26 0.24 0.20 0.19 0.21 0.20 0.17 0.16 0.17 0.18 0.17 0.16 0.14 0.13 0.12 0.10 0.08 0.06 0.06 0.05 0.03 0.04 0.09 0.12 0.11 0.10 0.07 0.07 0.09 0.12 0.11 0.03 0.01 0.00

GEFSCGP_prec_meanprecacc_102.txt.gz
Total_Precipitation_Accumulation
0.00 0.00 0.00 0.00 0.00 0.00 0.00 0.00 0.00 0.00 0.01 0.02 0.04 0.07 0.11 0.11 0.11 0.18 0.23 0.31 0.43 0.47 0.64 0.97 1.20 1.57 1.90 1.83 1.87 1.79 1.78 1.98 2.05 2.17 2.26 2.43 2.39 2.35 2.58 2.88 3.05 3.24 3.30 3.12
0.00 0.00 0.00 0.00 0.00 0.00 0.00 0.00 0.01 0.02 0.02 0.03 0.06 0.11 0.19 0.20 0.20 0.28 0.42 0.52 0.70 0.83 0.86 1.07 1.36 1.66 1.91 1.92 1.91 1.96 2.08 2.17 2.29 2.60 3.00 3.37 3.60 3.73 3.81 3.97 4.02 3.96 3.83 3.69
0.00 0.00 0.00 0.00 0.00 0.00 0.00 0.00 0.02 0.04 0.07 0.09 0.12 0.22 0.28 0.29 0.29 0.37 0.54 0.62 0.74 0.90 1.02 1.01 1.09 1.28 1.59 1.82 1.97 2.03 2.33 2.65 2.94 3.40 3.94 4.32 4.67 4.89 4.80 4.62 4.45 4.22 4.04 3.85
0.00 0.00 0.00 0.00 0.00 0.00 0.01 0.00 0.02 0.03 0.07 0.16 0.17 0.33 0.43 0.40 0.36 0.37 0.43 0.47 0.54 0.56 0.70 0.86 0.96 1.10 1.33 1.57 1.84 2.07 2.42 2.93 3.59 4.25 4.79 5.20 5.38 5.38 5.27 5.01 4.64 4.22 3.90 3.61
0.00 0.01 0.01 0.00 0.00 0.00 0.00 0.00 0.01 0.04 0.06 0.13 0.16 0.36 0.56 0.53 0.48 0.47 0.48 0.43 0.43 0.46 0.51 0.65 0.77 0.93 1.15 1.36 1.67 2.04 2.51 3.14 3.75 4.38 4.89 5.27 5.39 5.27 5.00 4.58 4.14 3.67 3.24 2.90
0.01 0.00 0.00 0.00 0.00 0.00 0.00 0.00 0.02 0.05 0.07 0.17 0.16 0.30 0.62 0.78 0.72 0.69 0.63 0.60 0.56 0.55 0.58 0.61 0.65 0.77 0.95 1.21 1.54 1.90 2.31 2.84 3.33 3.73 4.21 4.49 4.59 4.49 4.19 3.72 3.20 2.77 2.46 2.18
0.02 0.01 0.00 0.00 0.00 0.00 0.00 0.01 0.06 0.11 0.13 0.19 0.17 0.35 0.73 0.97 0.92 0.88 0.84 0.80 0.68 0.65 0.62 0.60 0.63 0.68 0.82 1.06 1.38 1.61 1.88 2.24 2.56 2.90 3.26 3.46 3.43 3.25 3.03 2.74 2.42 2.11 1.81 1.56
0.06 0.03 0.01 0.00 0.00 0.00 0.00 0.01 0.07 0.14 0.16 0.23 0.34 0.61 0.88 0.95 0.88 0.82 0.79 0.70 0.65 0.58 0.53 0.58 0.69 0.75 0.85 0.95 1.12 1.31 1.43 1.62 1.76 1.87 2.05 2.11 2.07 1.97 1.92 1.76 1.55 1.34 1.11 0.90
0.10 0.05 0.01 0.00 0.00 0.01 0.01 0.02 0.03 0.05 0.09 0.23 0.52 0.87 1.07 1.03 0.94 0.81 0.68 0.55 0.54 0.49 0.43 0.47 0.58 0.70 0.76 0.79 0.83 0.85 0.86 0.91 0.94 0.96 1.06 1.11 1.13 1.11 1.07 0.97 0.85 0.76 0.69 0.60
0.09 0.07 0.03 0.01 0.01 0.01 0.01 0.02 0.03 0.06 0.16 0.30 0.50 0.83 1.16 1.36 1.29 1.13 0.87 0.62 0.54 0.48 0.47 0.50 0.55 0.59 0.62 0.60 0.58 0.56 0.59 0.58 0.54 0.51 0.52 0.56 0.60 0.59 0.57 0.55 0.53 0.49 0.45 0.40
0.07 0.08 0.05 0.03 0.03 0.03 0.02 0.02 0.04 0.08 0.13 0.28 0.58 0.96 1.12 1.41 1.39 1.19 0.95 0.74 0.65 0.61 0.61 0.61 0.61 0.55 0.54 0.54 0.50 0.47 0.48 0.45 0.41 0.39 0.39 0.36 0.34 0.33 0.30 0.29 0.30 0.28 0.25 0.23
0.07 0.11 0.10 0.07 0.05 0.04 0.04 0.04 0.04 0.10 0.11 0.16 0.49 1.13 1.34 1.52 1.50 1.31 1.20 1.09 0.96 0.87 0.81 0.76 0.70 0.58 0.52 0.49 0.47 0.43 0.41 0.37 0.35 0.31 0.27 0.25 0.23 0.22 0.21 0.20 0.19 0.17 0.16 0.15
0.05 0.17 0.22 0.28 0.23 0.10 0.06 0.05 0.05 0.06 0.11 0.21 0.49 1.11 1.39 1.47 1.43 1.31 1.16 1.15 1.21 1.23 1.10 0.90 0.75 0.59 0.47 0.41 0.42 0.42 0.38 0.35 0.32 0.28 0.26 0.24 0.21 0.18 0.17 0.17 0.15 0.15 0.14 0.13
0.06 0.15 0.30 0.51 0.44 0.19 0.10 0.07 0.07 0.08 0.17 0.31 0.51 0.89 1.14 1.25 1.25 1.29 1.28 1.37 1.41 1.24 0.94 0.72 0.61 0.53 0.48 0.43 0.41 0.39 0.35 0.32 0.29 0.27 0.24 0.25 0.25 0.21 0.19 0.18 0.15 0.12 0.09 0.08
0.09 0.17 0.20 0.23 0.21 0.16 0.14 0.11 0.11 0.13 0.16 0.32 0.55 0.87 1.16 1.28 1.32 1.33 1.45 1.47 1.29 1.08 0.91 0.76 0.65 0.60 0.56 0.49 0.42 0.35 0.32 0.28 0.26 0.24 0.22 0.22 0.22 0.20 0.18 0.15 0.13 0.09 0.06 0.05
0.11 0.20 0.17 0.19 0.19 0.21 0.24 0.21 0.24 0.24 0.29 0.42 0.67 0.96 1.19 1.32 1.41 1.41 1.44 1.41 1.37 1.28 1.13 0.96 0.83 0.74 0.64 0.54 0.45 0.40 0.37 0.33 0.28 0.25 0.23 0.19 0.17 0.16 0.15 0.13 0.11 0.09 0.07 0.06
0.15 0.18 0.23 0.26 0.19 0.28 0.43 0.32 0.27 0.29 0.37 0.51 0.70 0.91 0.95 1.00 1.16 1.30 1.40 1.38 1.37 1.34 1.26 1.13 1.03 0.92 0.80 0.67 0.57 0.51 0.48 0.40 0.32 0.29 0.27 0.24 0.19 0.16 0.13 0.10 0.09 0.08 0.08 0.07
0.14 0.21 0.23 0.26 0.31 0.54 0.52 0.33 0.29 0.33 0.41 0.42 0.49 0.60 0.70 0.77 0.87 0.98 1.09 1.24 1.34 1.34 1.28 1.19 1.06 0.94 0.86 0.74 0.62 0.53 0.44 0.35 0.31 0.30 0.28 0.23 0.19 0.17 0.13 0.10 0.08 0.07 0.08 0.08
0.07 0.18 0.27 0.31 0.43 0.59 0.54 0.33 0.32 0.47 0.54 0.39 0.37 0.41 0.47 0.54 0.65 0.87 0.98 1.12 1.26 1.28 1.22 1.15 1.05 0.96 0.86 0.72 0.59 0.47 0.41 0.34 0.31 0.28 0.22 0.18 0.16 0.13 0.10 0.08 0.07 0.08 0.08 0.08
0.06 0.13 0.27 0.38 0.57 0.73 0.66 0.31 0.22 0.42 0.77 0.57 0.45 0.44 0.53 0.63 0.74 0.76 0.71 0.77 0.95 1.11 1.15 1.12 1.00 0.85 0.72 0.57 0.42 0.36 0.32 0.27 0.23 0.18 0.13 0.12 0.11 0.09 0.08 0.08 0.08 0.09 0.09 0.10
0.18 0.23 0.32 0.44 0.66 0.74 0.38 0.22 0.29 0.61 0.84 0.73 0.63 0.61 0.71 0.86 0.86 0.68 0.61 0.68 0.78 0.90 0.98 0.91 0.78 0.67 0.53 0.39 0.31 0.29 0.23 0.19 0.13 0.10 0.09 0.10 0.10 0.09 0.07 0.08 0.10 0.11 0.12 0.14
0.23 0.34 0.41 0.51 0.71 0.72 0.24 0.20 0.40 0.52 0.49 0.53 0.52 0.49 0.52 0.52 0.51 0.51 0.55 0.64 0.73 0.81 0.79 0.71 0.62 0.51 0.40 0.33 0.30 0.27 0.22 0.16 0.11 0.10 0.09 0.09 0.08 0.04 0.04 0.10 0.12 0.12 0.15 0.17
0.16 0.24 0.37 0.51 0.61 0.48 0.25 0.21 0.24 0.30 0.38 0.39 0.37 0.35 0.37 0.40 0.44 0.44 0.46 0.54 0.64 0.67 0.62 0.53 0.41 0.36 0.32 0.28 0.26 0.25 0.20 0.14 0.13 0.15 0.14 0.10 0.08 0.06 0.05 0.08 0.11 0.12 0.14 0.14
0.23 0.18 0.22 0.35 0.36 0.33 0.29 0.26 0.22 0.21 0.25 0.25 0.25 0.28 0.34 0.40 0.40 0.37 0.37 0.41 0.45 0.45 0.41 0.38 0.34 0.31 0.27 0.22 0.19 0.19 0.15 0.13 0.18 0.21 0.17 0.14 0.13 0.09 0.06 0.07 0.06 0.08 0.10 0.09
0.32 0.34 0.40 0.45 0.43 0.43 0.40 0.31 0.24 0.22 0.19 0.18 0.21 0.25 0.28 0.29 0.29 0.27 0.28 0.29 0.29 0.27 0.27 0.27 0.25 0.21 0.17 0.13 0.10 0.09 0.09 0.10 0.17 0.17 0.14 0.12 0.09 0.09 0.11 0.09 0.04 0.03 0.04 0.02
0.27 0.48 0.80 0.61 0.54 0.59 0.51 0.36 0.30 0.28 0.26 0.25 0.20 0.19 0.21 0.20 0.18 0.16 0.18 0.19 0.18 0.17 0.16 0.16 0.14 0.12 0.10 0.08 0.08 0.07 0.05 0.05 0.09 0.12 0.12 0.10 0.07 0.07 0.09 0.12 0.11 0.03 0.01 0.00

GEFSCGP_prec_meanprecacc_108.txt.gz
Total_Precipitation_Accumulation
0.00 0.00 0.00 0.00 0.00 0.00 0.00 0.00 0.00 0.00 0.01 0.02 0.04 0.07 0.12 0.12 0.12 0.19 0.24 0.32 0.44 0.48 0.66 0.99 1.22 1.59 1.93 1.85 1.89 1.83 1.84 2.04 2.12 2.24 2.34 2.57 2.56 2.55 2.79 3.11 3.28 3.48 3.56 3.39
0.00 0.00 0.00 0.00 0.00 0.00 0.00 0.00 0.01 0.02 0.02 0.03 0.06 0.12 0.20 0.21 0.21 0.30 0.43 0.53 0.71 0.84 0.88 1.09 1.38 1.69 1.93 1.95 1.95 2.01 2.15 2.23 2.36 2.68 3.10 3.49 3.76 3.92 4.02 4.19 4.22 4.13 4.02 3.92
0.00 0.00 0.00 0.00 0.00 0.00 0.00 0.00 0.02 0.04 0.07 0.09 0.13 0.23 0.30 0.31 0.30 0.38 0.56 0.65 0.77 0.93 1.05 1.03 1.12 1.33 1.63 1.86 2.03 2.11 2.40 2.72 3.02 3.48 4.04 4.43 4.78 5.02 4.94 4.74 4.58 4.36 4.17 3.99
0.00 0.00 0.00 0.00 0.00 0.00 0.01 0.00 0.02 0.03 0.07 0.17 0.17 0.34 0.44 0.41 0.38 0.38 0.46 0.50 0.59 0.60 0.74 0.90 0.99 1.14 1.40 1.63 1.91 2.17 2.50 3.01 3.69 4.35 4.91 5.31 5.49 5.48 5.37 5.11 4.75 4.35 4.03 3.74
0.00 0.01 0.01 0.00 0.00 0.00 0.00 0.00 0.01 0.04 0.06 0.13 0.16 0.36 0.57 0.54 0.49 0.49 0.51 0.47 0.47 0.50 0.55 0.70 0.81 0.98 1.20 1.41 1.72 2.09 2.56 3.20 3.83 4.46 4.99 5.39 5.51 5.40 5.15 4.74 4.26 3.77 3.32 3.00
0.01 0.00 0.00 0.00 0.00 0.00 0.00 0.00 0.02 0.05 0.07 0.17 0.16 0.30 0.63 0.79 0.74 0.71 0.67 0.63 0.60 0.61 0.64 0.65 0.67 0.78 0.98 1.24 1.57 1.94 2.35 2.89 3.39 3.79 4.28 4.56 4.69 4.63 4.32 3.85 3.30 2.85 2.54 2.26
0.02 0.01 0.00 0.00 0.00 0.00 0.00 0.01 0.06 0.11 0.13 0.19 0.17 0.35 0.74 0.98 0.93 0.90 0.86 0.83 0.73 0.72 0.70 0.66 0.65 0.69 0.84 1.08 1.40 1.65 1.91 2.28 2.60 2.94 3.30 3.50 3.49 3.34 3.12 2.83 2.52 2.19 1.88 1.62
0.06 0.03 0.01 0.00 0.01 0.00 0.00 0.01 0.07 0.14 0.16 0.23 0.34 0.61 0.89 0.96 0.89 0.84 0.81 0.74 0.70 0.65 0.65 0.69 0.73 0.77 0.86 0.97 1.16 1.36 1.49 1.67 1.79 1.91 2.08 2.14 2.12 2.03 1.99 1.84 1.63 1.41 1.18 0.95
0.10 0.06 0.02 0.01 0.00 0.01 0.01 0.02 0.03 0.05 0.09 0.23 0.52 0.87 1.08 1.04 0.95 0.81 0.69 0.57 0.56 0.51 0.49 0.56 0.62 0.73 0.78 0.81 0.85 0.88 0.91 0.96 0.98 1.00 1.09 1.15 1.16 1.14 1.11 1.02 0.90 0.80 0.72 0.64
0.09 0.07 0.03 0.02 0.01 0.01 0.02 0.02 0.03 0.06 0.17 0.30 0.51 0.83 1.17 1.37 1.29 1.14 0.88 0.64 0.55 0.49 0.49 0.52 0.56 0.61 0.64 0.61 0.59 0.57 0.61 0.61 0.56 0.54 0.55 0.59 0.63 0.62 0.59 0.57 0.55 0.51 0.47 0.42
0.07 0.08 0.05 0.03 0.03 0.03 0.02 0.03 0.04 0.08 0.14 0.29 0.58 0.96 1.13 1.41 1.40 1.20 0.96 0.75 0.66 0.64 0.63 0.62 0.62 0.56 0.55 0.55 0.51 0.49 0.50 0.47 0.44 0.42 0.42 0.39 0.37 0.35 0.33 0.32 0.32 0.29 0.27 0.24
0.07 0.12 0.10 0.07 0.06 0.04 0.05 0.05 0.05 0.10 0.12 0.16 0.49 1.13 1.35 1.53 1.50 1.31 1.21 1.09 0.97 0.88 0.82 0.77 0.70 0.59 0.53 0.50 0.48 0.45 0.43 0.39 0.38 0.34 0.30 0.28 0.25 0.24 0.22 0.21 0.20 0.18 0.17 0.16
0.07 0.17 0.22 0.28 0.23 0.11 0.07 0.05 0.06 0.07 0.11 0.21 0.49 1.11 1.40 1.47 1.43 1.32 1.17 1.16 1.22 1.24 1.11 0.91 0.75 0.59 0.47 0.42 0.43 0.43 0.39 0.37 0.35 0.32 0.30 0.28 0.24 0.21 0.20 0.18 0.16 0.16 0.15 0.14
0.06 0.16 0.30 0.51 0.45 0.20 0.10 0.08 0.09 0.09 0.18 0.32 0.51 0.89 1.15 1.25 1.26 1.30 1.30 1.38 1.42 1.25 0.95 0.73 0.62 0.53 0.48 0.44 0.42 0.40 0.36 0.33 0.31 0.30 0.30 0.30 0.29 0.24 0.21 0.19 0.17 0.13 0.11 0.10
0.09 0.17 0.21 0.23 0.22 0.17 0.14 0.12 0.12 0.14 0.17 0.32 0.56 0.88 1.17 1.29 1.32 1.34 1.46 1.49 1.30 1.09 0.92 0.77 0.66 0.60 0.56 0.50 0.43 0.36 0.33 0.29 0.27 0.28 0.28 0.27 0.27 0.24 0.20 0.17 0.15 0.11 0.09 0.07
0.11 0.20 0.17 0.20 0.20 0.22 0.24 0.21 0.24 0.24 0.30 0.43 0.67 0.97 1.19 1.33 1.41 1.42 1.46 1.43 1.38 1.29 1.14 0.98 0.84 0.74 0.65 0.54 0.46 0.41 0.39 0.34 0.30 0.30 0.30 0.26 0.22 0.19 0.17 0.15 0.12 0.10 0.08 0.07
0.15 0.19 0.24 0.27 0.20 0.28 0.43 0.33 0.28 0.31 0.39 0.52 0.71 0.91 0.96 1.00 1.16 1.30 1.40 1.39 1.38 1.34 1.27 1.15 1.05 0.94 0.81 0.68 0.58 0.53 0.49 0.42 0.36 0.35 0.32 0.29 0.25 0.19 0.15 0.11 0.10 0.09 0.09 0.07
0.14 0.21 0.23 0.26 0.31 0.55 0.52 0.33 0.30 0.34 0.42 0.43 0.50 0.61 0.70 0.77 0.87 0.98 1.09 1.24 1.35 1.35 1.30 1.21 1.08 0.96 0.88 0.75 0.63 0.55 0.46 0.39 0.36 0.36 0.31 0.26 0.23 0.19 0.15 0.11 0.09 0.08 0.08 0.08
0.08 0.18 0.27 0.31 0.44 0.59 0.54 0.33 0.33 0.49 0.56 0.40 0.38 0.41 0.47 0.54 0.65 0.88 0.99 1.12 1.27 1.28 1.23 1.17 1.07 0.98 0.88 0.74 0.61 0.50 0.44 0.38 0.36 0.32 0.24 0.20 0.18 0.16 0.12 0.10 0.09 0.08 0.08 0.09
0.07 0.13 0.27 0.39 0.57 0.73 0.66 0.32 0.23 0.44 0.78 0.58 0.45 0.44 0.53 0.63 0.74 0.77 0.71 0.77 0.97 1.13 1.17 1.15 1.03 0.87 0.74 0.59 0.44 0.38 0.35 0.30 0.25 0.19 0.14 0.13 0.13 0.11 0.09 0.09 0.09 0.09 0.09 0.10
0.18 0.23 0.32 0.44 0.67 0.75 0.39 0.23 0.30 0.63 0.85 0.74 0.64 0.62 0.71 0.86 0.86 0.69 0.61 0.69 0.80 0.93 1.01 0.94 0.81 0.69 0.54 0.40 0.33 0.30 0.25 0.21 0.14 0.11 0.10 0.11 0.11 0.10 0.09 0.09 0.11 0.11 0.12 0.14
0.25 0.35 0.42 0.52 0.72 0.73 0.25 0.22 0.42 0.54 0.50 0.54 0.52 0.50 0.52 0.53 0.52 0.52 0.56 0.65 0.76 0.83 0.82 0.74 0.64 0.53 0.41 0.34 0.31 0.29 0.23 0.17 0.12 0.11 0.11 0.11 0.09 0.06 0.05 0.10 0.12 0.12 0.15 0.18
0.18 0.26 0.38 0.52 0.62 0.49 0.26 0.22 0.25 0.31 0.39 0.39 0.37 0.35 0.38 0.40 0.44 0.44 0.47 0.56 0.66 0.69 0.64 0.55 0.43 0.38 0.33 0.29 0.28 0.26 0.22 0.16 0.15 0.16 0.16 0.12 0.09 0.06 0.05 0.08 0.11 0.13 0.14 0.14
0.25 0.20 0.24 0.36 0.38 0.34 0.30 0.27 0.23 0.22 0.25 0.25 0.25 0.28 0.34 0.40 0.40 0.37 0.38 0.41 0.46 0.47 0.43 0.40 0.35 0.32 0.28 0.23 0.21 0.21 0.17 0.14 0.20 0.22 0.18 0.15 0.14 0.09 0.06 0.07 0.06 0.09 0.10 0.10
0.34 0.37 0.43 0.46 0.44 0.44 0.41 0.33 0.25 0.22 0.19 0.18 0.21 0.25 0.28 0.29 0.29 0.27 0.28 0.29 0.29 0.28 0.29 0.28 0.26 0.22 0.18 0.14 0.12 0.11 0.11 0.12 0.18 0.19 0.16 0.13 0.09 0.09 0.11 0.09 0.04 0.03 0.04 0.02
0.28 0.49 0.83 0.64 0.56 0.61 0.52 0.38 0.31 0.29 0.26 0.25 0.20 0.19 0.21 0.20 0.18 0.17 0.19 0.20 0.19 0.17 0.17 0.17 0.15 0.12 0.10 0.09 0.10 0.08 0.07 0.06 0.11 0.14 0.13 0.10 0.07 0.07 0.09 0.12 0.11 0.03 0.01 0.01

GEFSCGP_prec_meanprecacc_114.txt.gz
Total_Precipitation_Accumulation
0.00 0.00 0.00 0.00 0.00 0.00 0.00 0.00 0.00 0.00 0.01 0.02 0.04 0.07 0.12 0.12 0.12 0.19 0.25 0.33 0.45 0.49 0.66 1.00 1.23 1.61 1.94 1.86 1.91 1.85 1.86 2.08 2.17 2.29 2.39 2.62 2.62 2.61 2.85 3.17 3.35 3.56 3.64 3.47
0.00 0.00 0.00 0.00 0.00 0.00 0.00 0.00 0.01 0.02 0.02 0.03 0.06 0.12 0.20 0.22 0.22 0.30 0.44 0.54 0.72 0.85 0.89 1.10 1.40 1.72 1.96 1.98 1.98 2.04 2.17 2.25 2.39 2.71 3.14 3.53 3.80 3.97 4.07 4.24 4.30 4.22 4.10 3.98
0.00 0.00 0.00 0.00 0.00 0.00 0.00 0.00 0.02 0.04 0.07 0.10 0.13 0.23 0.30 0.31 0.30 0.39 0.57 0.66 0.78 0.94 1.07 1.05 1.13 1.35 1.65 1.88 2.05 2.14 2.43 2.75 3.05 3.51 4.07 4.47 4.81 5.06 4.98 4.80 4.66 4.47 4.28 4.08
0.00 0.00 0.00 0.00 0.00 0.00 0.01 0.00 0.02 0.03 0.08 0.17 0.18 0.35 0.45 0.42 0.38 0.39 0.47 0.53 0.62 0.62 0.76 0.92 1.01 1.16 1.42 1.66 1.94 2.19 2.52 3.03 3.71 4.38 4.95 5.36 5.53 5.52 5.42 5.16 4.80 4.42 4.12 3.83
0.00 0.01 0.01 0.00 0.00 0.00 0.00 0.00 0.01 0.04 0.06 0.14 0.16 0.37 0.57 0.55 0.50 0.50 0.54 0.51 0.49 0.51 0.58 0.73 0.84 1.01 1.24 1.44 1.75 2.12 2.58 3.22 3.84 4.48 5.03 5.44 5.57 5.45 5.20 4.78 4.31 3.81 3.37 3.05
0.01 0.00 0.00 0.00 0.00 0.00 0.00 0.00 0.02 0.05 0.08 0.17 0.16 0.30 0.63 0.79 0.74 0.72 0.68 0.65 0.62 0.63 0.67 0.68 0.69 0.81 1.01 1.27 1.60 1.96 2.38 2.92 3.42 3.82 4.31 4.60 4.74 4.67 4.36 3.89 3.33 2.89 2.58 2.31
0.02 0.01 0.00 0.00 0.00 0.00 0.00 0.01 0.06 0.11 0.13 0.19 0.17 0.35 0.74 0.99 0.93 0.90 0.86 0.84 0.75 0.73 0.71 0.67 0.67 0.70 0.85 1.10 1.42 1.66 1.93 2.30 2.62 2.98 3.33 3.53 3.53 3.38 3.16 2.87 2.55 2.22 1.90 1.64
0.06 0.03 0.01 0.00 0.01 0.00 0.00 0.01 0.07 0.14 0.16 0.23 0.34 0.62 0.89 0.96 0.89 0.84 0.82 0.74 0.71 0.67 0.66 0.72 0.78 0.81 0.90 1.00 1.18 1.37 1.51 1.70 1.84 1.96 2.14 2.18 2.15 2.06 2.02 1.87 1.67 1.44 1.20 0.97
0.10 0.06 0.02 0.01 0.00 0.01 0.01 0.02 0.03 0.05 0.09 0.23 0.52 0.87 1.08 1.05 0.95 0.82 0.70 0.57 0.57 0.54 0.52 0.62 0.70 0.81 0.87 0.89 0.89 0.92 0.94 1.01 1.05 1.06 1.15 1.20 1.20 1.17 1.14 1.04 0.93 0.82 0.74 0.65
0.09 0.07 0.03 0.02 0.01 0.01 0.02 0.02 0.03 0.06 0.17 0.30 0.51 0.83 1.17 1.37 1.30 1.14 0.89 0.64 0.56 0.53 0.54 0.55 0.58 0.63 0.67 0.66 0.62 0.59 0.63 0.64 0.59 0.56 0.57 0.61 0.65 0.64 0.62 0.59 0.56 0.52 0.49 0.44
0.07 0.08 0.05 0.03 0.03 0.03 0.02 0.03 0.04 0.08 0.14 0.30 0.59 0.97 1.13 1.41 1.40 1.20 0.97 0.76 0.67 0.66 0.66 0.65 0.65 0.58 0.57 0.58 0.54 0.50 0.51 0.48 0.45 0.43 0.44 0.41 0.39 0.37 0.35 0.34 0.33 0.30 0.28 0.26
0.07 0.12 0.10 0.07 0.06 0.04 0.05 0.05 0.05 0.11 0.12 0.17 0.50 1.14 1.35 1.53 1.50 1.32 1.22 1.11 0.99 0.90 0.85 0.79 0.72 0.60 0.54 0.52 0.49 0.46 0.44 0.41 0.39 0.35 0.32 0.29 0.27 0.25 0.24 0.22 0.21 0.19 0.18 0.18
0.07 0.18 0.23 0.29 0.24 0.11 0.07 0.05 0.06 0.07 0.12 0.23 0.51 1.12 1.40 1.47 1.43 1.33 1.18 1.17 1.24 1.25 1.12 0.92 0.76 0.60 0.48 0.42 0.44 0.43 0.40 0.39 0.37 0.33 0.32 0.30 0.25 0.22 0.21 0.19 0.17 0.16 0.16 0.15
0.07 0.17 0.31 0.52 0.46 0.21 0.11 0.08 0.09 0.10 0.19 0.33 0.52 0.90 1.15 1.26 1.26 1.30 1.31 1.39 1.43 1.26 0.96 0.74 0.63 0.54 0.49 0.45 0.43 0.40 0.37 0.34 0.32 0.31 0.31 0.33 0.31 0.26 0.22 0.20 0.18 0.14 0.12 0.10
0.09 0.19 0.22 0.24 0.22 0.17 0.14 0.12 0.13 0.14 0.18 0.34 0.57 0.88 1.17 1.29 1.33 1.34 1.47 1.50 1.31 1.10 0.93 0.78 0.67 0.62 0.58 0.51 0.43 0.37 0.34 0.30 0.28 0.29 0.29 0.30 0.30 0.26 0.22 0.19 0.16 0.12 0.09 0.08
0.12 0.21 0.18 0.20 0.20 0.22 0.24 0.21 0.24 0.25 0.31 0.44 0.68 0.98 1.20 1.33 1.41 1.42 1.46 1.43 1.39 1.29 1.15 0.99 0.86 0.76 0.66 0.56 0.47 0.42 0.40 0.36 0.32 0.32 0.31 0.28 0.25 0.22 0.19 0.16 0.14 0.11 0.10 0.08
0.15 0.20 0.24 0.27 0.20 0.29 0.45 0.33 0.28 0.32 0.39 0.54 0.73 0.94 0.96 1.01 1.17 1.31 1.41 1.39 1.38 1.35 1.28 1.16 1.07 0.96 0.83 0.70 0.59 0.54 0.51 0.43 0.38 0.37 0.35 0.32 0.27 0.22 0.17 0.12 0.12 0.11 0.11 0.09
0.15 0.22 0.24 0.27 0.32 0.57 0.54 0.34 0.31 0.36 0.44 0.45 0.52 0.63 0.71 0.78 0.88 0.99 1.09 1.25 1.36 1.36 1.30 1.22 1.09 0.97 0.89 0.76 0.64 0.55 0.47 0.40 0.38 0.39 0.34 0.28 0.25 0.22 0.17 0.13 0.11 0.10 0.11 0.10
0.08 0.19 0.29 0.33 0.45 0.61 0.56 0.34 0.34 0.52 0.60 0.42 0.39 0.42 0.48 0.55 0.66 0.89 1.00 1.13 1.29 1.29 1.24 1.18 1.08 0.98 0.88 0.75 0.62 0.51 0.46 0.40 0.39 0.35 0.27 0.22 0.20 0.18 0.15 0.13 0.11 0.10 0.10 0.10
0.07 0.14 0.29 0.41 0.59 0.76 0.69 0.32 0.23 0.46 0.84 0.59 0.46 0.45 0.54 0.64 0.76 0.79 0.74 0.79 0.98 1.15 1.19 1.16 1.04 0.88 0.75 0.61 0.46 0.39 0.37 0.32 0.28 0.22 0.17 0.15 0.15 0.12 0.11 0.10 0.09 0.10 0.10 0.10
0.20 0.25 0.34 0.46 0.69 0.77 0.40 0.23 0.31 0.67 0.89 0.75 0.64 0.62 0.71 0.87 0.89 0.71 0.63 0.71 0.82 0.95 1.03 0.95 0.82 0.71 0.56 0.42 0.35 0.33 0.27 0.23 0.16 0.13 0.12 0.13 0.12 0.12 0.10 0.11 0.12 0.12 0.12 0.14
0.28 0.38 0.45 0.54 0.75 0.75 0.26 0.23 0.44 0.57 0.52 0.54 0.52 0.50 0.53 0.53 0.53 0.53 0.58 0.68 0.78 0.85 0.83 0.76 0.66 0.55 0.44 0.37 0.34 0.31 0.25 0.19 0.14 0.14 0.14 0.13 0.11 0.07 0.06 0.12 0.14 0.13 0.16 0.19
0.21 0.29 0.41 0.55 0.65 0.50 0.26 0.23 0.26 0.32 0.39 0.39 0.38 0.35 0.39 0.41 0.45 0.45 0.48 0.57 0.67 0.70 0.65 0.57 0.45 0.40 0.35 0.31 0.30 0.28 0.24 0.18 0.17 0.19 0.19 0.14 0.11 0.08 0.07 0.10 0.13 0.14 0.16 0.15
0.27 0.20 0.26 0.39 0.39 0.34 0.31 0.28 0.23 0.22 0.25 0.25 0.25 0.28 0.35 0.41 0.41 0.38 0.38 0.42 0.47 0.49 0.45 0.43 0.38 0.35 0.30 0.25 0.23 0.23 0.19 0.16 0.23 0.26 0.22 0.18 0.16 0.11 0.08 0.09 0.08 0.10 0.11 0.11
0.35 0.38 0.45 0.49 0.46 0.45 0.42 0.34 0.25 0.22 0.19 0.18 0.21 0.25 0.28 0.29 0.29 0.28 0.29 0.30 0.30 0.29 0.30 0.30 0.27 0.24 0.20 0.16 0.14 0.13 0.13 0.14 0.22 0.22 0.18 0.15 0.11 0.10 0.12 0.10 0.05 0.04 0.05 0.03
0.29 0.51 0.85 0.66 0.57 0.61 0.53 0.39 0.31 0.29 0.26 0.25 0.21 0.19 0.21 0.20 0.18 0.17 0.20 0.21 0.20 0.18 0.18 0.18 0.17 0.14 0.12 0.10 0.11 0.10 0.08 0.08 0.13 0.16 0.15 0.11 0.08 0.07 0.10 0.13 0.11 0.03 0.01 0.01

GEFSCGP_prec_meanprecacc_120.txt.gz
Total_Precipitation_Accumulation
0.00 0.00 0.00 0.00 0.00 0.00 0.00 0.00 0.00 0.00 0.01 0.02 0.04 0.09 0.16 0.15 0.16 0.22 0.26 0.34 0.47 0.51 0.67 1.01 1.26 1.63 1.96 1.88 1.92 1.87 1.88 2.10 2.20 2.33 2.45 2.67 2.68 2.68 2.91 3.22 3.39 3.60 3.69 3.52
0.00 0.00 0.00 0.00 0.00 0.00 0.00 0.00 0.01 0.02 0.03 0.03 0.06 0.13 0.22 0.23 0.24 0.35 0.46 0.58 0.76 0.87 0.90 1.12 1.43 1.74 1.98 2.00 1.99 2.06 2.19 2.28 2.42 2.76 3.18 3.57 3.85 4.02 4.11 4.28 4.34 4.26 4.13 4.01
0.00 0.00 0.00 0.00 0.00 0.00 0.00 0.00 0.02 0.04 0.07 0.10 0.13 0.24 0.31 0.32 0.32 0.41 0.58 0.69 0.81 0.97 1.10 1.08 1.15 1.36 1.66 1.89 2.07 2.15 2.45 2.78 3.08 3.55 4.10 4.49 4.85 5.09 5.02 4.84 4.71 4.49 4.29 4.10
0.00 0.00 0.00 0.00 0.00 0.00 0.01 0.00 0.02 0.04 0.08 0.17 0.18 0.36 0.47 0.45 0.41 0.41 0.49 0.55 0.64 0.64 0.79 0.94 1.02 1.16 1.43 1.66 1.94 2.21 2.54 3.05 3.74 4.41 4.98 5.39 5.57 5.57 5.48 5.23 4.86 4.46 4.15 3.84
0.00 0.01 0.01 0.00 0.00 0.00 0.01 0.00 0.01 0.04 0.06 0.14 0.17 0.38 0.60 0.59 0.57 0.56 0.57 0.54 0.52 0.54 0.61 0.75 0.85 1.01 1.24 1.44 1.75 2.13 2.60 3.23 3.86 4.51 5.07 5.49 5.62 5.51 5.27 4.85 4.37 3.88 3.42 3.07
0.01 0.00 0.00 0.00 0.00 0.00 0.00 0.00 0.02 0.05 0.08 0.19 0.17 0.31 0.67 0.84 0.83 0.83 0.75 0.69 0.65 0.66 0.69 0.69 0.70 0.81 1.01 1.28 1.61 1.97 2.40 2.94 3.44 3.84 4.34 4.64 4.80 4.73 4.42 3.95 3.39 2.95 2.63 2.34
0.02 0.01 0.00 0.00 0.00 0.00 0.00 0.01 0.08 0.13 0.16 0.22 0.18 0.36 0.78 1.02 0.99 1.00 0.92 0.88 0.77 0.76 0.73 0.68 0.68 0.71 0.86 1.10 1.44 1.69 1.95 2.32 2.64 3.00 3.36 3.55 3.56 3.41 3.19 2.92 2.60 2.26 1.94 1.67
0.06 0.03 0.01 0.00 0.01 0.01 0.01 0.01 0.10 0.20 0.23 0.27 0.36 0.64 0.95 1.02 0.93 0.90 0.85 0.76 0.73 0.68 0.68 0.74 0.79 0.82 0.91 1.01 1.19 1.39 1.53 1.73 1.86 1.98 2.16 2.20 2.17 2.08 2.05 1.90 1.69 1.46 1.22 0.98
0.11 0.06 0.02 0.01 0.00 0.01 0.01 0.02 0.04 0.07 0.12 0.27 0.57 0.95 1.17 1.11 0.99 0.84 0.72 0.58 0.58 0.56 0.54 0.63 0.71 0.82 0.88 0.91 0.93 0.95 0.97 1.03 1.06 1.08 1.17 1.22 1.21 1.18 1.15 1.06 0.95 0.85 0.76 0.66
0.09 0.08 0.03 0.02 0.01 0.01 0.02 0.02 0.04 0.07 0.20 0.35 0.57 0.93 1.29 1.45 1.34 1.18 0.91 0.66 0.60 0.57 0.55 0.56 0.59 0.64 0.68 0.68 0.66 0.63 0.67 0.67 0.62 0.58 0.58 0.62 0.66 0.65 0.63 0.61 0.58 0.54 0.50 0.45
0.07 0.08 0.06 0.04 0.04 0.04 0.03 0.03 0.04 0.08 0.15 0.33 0.66 1.07 1.23 1.48 1.45 1.27 1.02 0.80 0.72 0.70 0.68 0.67 0.67 0.59 0.58 0.59 0.56 0.54 0.55 0.52 0.48 0.45 0.45 0.41 0.40 0.38 0.35 0.35 0.35 0.32 0.29 0.27
0.07 0.12 0.11 0.08 0.06 0.04 0.05 0.05 0.05 0.12 0.14 0.19 0.55 1.26 1.44 1.59 1.54 1.35 1.25 1.14 1.03 0.93 0.87 0.80 0.74 0.61 0.55 0.53 0.51 0.49 0.47 0.44 0.42 0.37 0.34 0.31 0.27 0.26 0.25 0.23 0.22 0.20 0.19 0.18
0.08 0.20 0.26 0.34 0.28 0.12 0.07 0.05 0.06 0.07 0.13 0.26 0.58 1.24 1.52 1.55 1.48 1.36 1.21 1.20 1.26 1.28 1.14 0.93 0.77 0.61 0.49 0.44 0.45 0.44 0.41 0.39 0.37 0.34 0.33 0.32 0.27 0.23 0.22 0.20 0.18 0.17 0.17 0.16
0.08 0.19 0.35 0.62 0.52 0.23 0.11 0.08 0.09 0.10 0.21 0.38 0.59 1.00 1.26 1.36 1.38 1.39 1.36 1.41 1.45 1.27 0.97 0.75 0.64 0.56 0.50 0.47 0.45 0.41 0.38 0.34 0.32 0.32 0.32 0.35 0.33 0.27 0.23 0.21 0.19 0.15 0.13 0.11
0.10 0.21 0.23 0.25 0.23 0.17 0.15 0.12 0.13 0.14 0.18 0.36 0.60 0.95 1.27 1.40 1.45 1.43 1.50 1.51 1.32 1.11 0.94 0.79 0.68 0.63 0.59 0.53 0.45 0.38 0.34 0.31 0.29 0.30 0.31 0.32 0.32 0.28 0.23 0.20 0.17 0.14 0.10 0.09
0.13 0.24 0.20 0.21 0.21 0.23 0.25 0.21 0.24 0.25 0.31 0.44 0.72 1.06 1.28 1.45 1.51 1.47 1.49 1.44 1.39 1.30 1.15 1.00 0.87 0.78 0.69 0.58 0.48 0.43 0.41 0.37 0.34 0.34 0.33 0.30 0.26 0.24 0.21 0.18 0.16 0.13 0.12 0.10
0.16 0.22 0.27 0.30 0.21 0.31 0.49 0.35 0.29 0.33 0.40 0.56 0.81 1.03 1.04 1.09 1.24 1.36 1.44 1.41 1.39 1.36 1.29 1.17 1.08 0.98 0.86 0.72 0.61 0.55 0.52 0.44 0.39 0.40 0.36 0.33 0.29 0.23 0.18 0.14 0.14 0.14 0.15 0.13
0.16 0.25 0.27 0.30 0.38 0.67 0.62 0.36 0.32 0.37 0.48 0.49 0.58 0.68 0.77 0.84 0.94 1.03 1.12 1.27 1.38 1.38 1.31 1.23 1.11 1.00 0.91 0.77 0.65 0.57 0.48 0.41 0.40 0.41 0.36 0.30 0.28 0.24 0.19 0.15 0.14 0.13 0.15 0.15
0.09 0.22 0.34 0.40 0.56 0.74 0.67 0.39 0.37 0.58 0.72 0.51 0.46 0.47 0.51 0.58 0.70 0.94 1.02 1.16 1.32 1.33 1.26 1.20 1.09 1.00 0.90 0.76 0.63 0.53 0.48 0.43 0.41 0.37 0.29 0.24 0.22 0.20 0.17 0.16 0.14 0.13 0.14 0.15
0.08 0.16 0.34 0.48 0.71 0.93 0.88 0.40 0.26 0.52 1.00 0.68 0.51 0.49 0.57 0.68 0.82 0.85 0.78 0.84 1.02 1.18 1.22 1.18 1.06 0.89 0.77 0.62 0.47 0.42 0.40 0.36 0.32 0.24 0.18 0.17 0.17 0.15 0.14 0.13 0.12 0.13 0.13 0.13
0.26 0.30 0.41 0.55 0.81 0.93 0.50 0.25 0.33 0.76 1.01 0.81 0.68 0.66 0.75 0.91 0.95 0.75 0.66 0.75 0.86 0.98 1.05 0.98 0.86 0.75 0.60 0.45 0.39 0.37 0.31 0.26 0.19 0.15 0.14 0.15 0.15 0.15 0.14 0.14 0.15 0.14 0.14 0.17
0.35 0.48 0.55 0.65 0.89 0.91 0.33 0.24 0.48 0.64 0.57 0.58 0.54 0.51 0.55 0.57 0.56 0.55 0.61 0.71 0.82 0.88 0.86 0.79 0.70 0.59 0.48 0.40 0.38 0.36 0.31 0.23 0.16 0.16 0.17 0.16 0.15 0.09 0.08 0.15 0.17 0.17 0.20 0.22
0.26 0.37 0.51 0.68 0.79 0.61 0.30 0.25 0.29 0.35 0.42 0.41 0.39 0.36 0.40 0.43 0.47 0.48 0.51 0.60 0.69 0.72 0.67 0.60 0.48 0.43 0.39 0.35 0.35 0.34 0.29 0.21 0.20 0.23 0.23 0.19 0.14 0.12 0.10 0.14 0.17 0.19 0.20 0.19
0.31 0.23 0.32 0.51 0.50 0.41 0.33 0.29 0.24 0.23 0.27 0.26 0.26 0.29 0.36 0.42 0.42 0.39 0.40 0.44 0.49 0.51 0.47 0.45 0.41 0.38 0.33 0.29 0.27 0.27 0.22 0.19 0.27 0.31 0.26 0.22 0.19 0.15 0.12 0.12 0.11 0.14 0.15 0.15
0.38 0.43 0.55 0.62 0.53 0.49 0.45 0.35 0.26 0.22 0.19 0.18 0.22 0.26 0.30 0.31 0.30 0.29 0.30 0.31 0.32 0.32 0.32 0.32 0.31 0.28 0.23 0.19 0.16 0.15 0.15 0.17 0.26 0.27 0.22 0.19 0.14 0.13 0.16 0.13 0.06 0.05 0.05 0.04
0.32 0.56 0.94 0.76 0.62 0.65 0.56 0.41 0.31 0.29 0.26 0.26 0.22 0.20 0.23 0.22 0.20 0.19 0.22 0.23 0.22 0.21 0.20 0.21 0.21 0.18 0.14 0.12 0.13 0.11 0.09 0.10 0.18 0.22 0.18 0.14 0.10 0.09 0.11 0.14 0.11 0.03 0.01 0.01

GEFSCGP_prec_meanprecacc_126.txt.gz
Total_Precipitation_Accumulation
0.00 0.00 0.00 0.00 0.00 0.00 0.00 0.00 0.00 0.00 0.01 0.02 0.06 0.11 0.20 0.24 0.32 0.41 0.49 0.46 0.57 0.59 0.77 1.17 1.56 1.81 2.07 1.98 2.01 1.93 1.96 2.16 2.25 2.38 2.50 2.73 2.74 2.72 2.96 3.26 3.42 3.62 3.70 3.53
0.00 0.00 0.00 0.00 0.00 0.00 0.00 0.00 0.01 0.02 0.04 0.04 0.08 0.17 0.29 0.35 0.35 0.46 0.60 0.65 0.85 0.95 0.96 1.18 1.54 1.83 2.03 2.05 2.03 2.09 2.25 2.34 2.45 2.78 3.22 3.62 3.91 4.07 4.15 4.31 4.37 4.29 4.15 4.03
0.00 0.00 0.00 0.00 0.00 0.00 0.00 0.01 0.02 0.04 0.08 0.10 0.15 0.32 0.40 0.39 0.39 0.51 0.68 0.77 0.92 1.06 1.19 1.14 1.20 1.40 1.69 1.91 2.09 2.18 2.47 2.80 3.11 3.58 4.13 4.52 4.89 5.13 5.05 4.86 4.73 4.51 4.31 4.11
0.00 0.00 0.00 0.00 0.00 0.00 0.01 0.00 0.02 0.04 0.08 0.18 0.19 0.40 0.53 0.50 0.56 0.60 0.65 0.68 0.76 0.74 0.86 1.01 1.08 1.20 1.46 1.68 1.96 2.22 2.55 3.06 3.76 4.43 5.01 5.42 5.60 5.61 5.52 5.26 4.88 4.48 4.16 3.85
0.00 0.01 0.01 0.00 0.00 0.00 0.01 0.00 0.01 0.04 0.06 0.15 0.18 0.40 0.65 0.66 0.67 0.73 0.83 0.76 0.69 0.65 0.67 0.79 0.90 1.05 1.26 1.45 1.76 2.14 2.61 3.24 3.87 4.53 5.09 5.52 5.67 5.59 5.34 4.90 4.40 3.90 3.43 3.08
0.01 0.01 0.00 0.00 0.00 0.00 0.00 0.01 0.02 0.06 0.10 0.21 0.19 0.34 0.71 0.90 0.91 0.99 0.97 0.95 0.85 0.76 0.75 0.73 0.74 0.84 1.02 1.28 1.61 1.98 2.40 2.94 3.45 3.86 4.37 4.68 4.85 4.79 4.46 3.99 3.41 2.96 2.64 2.35
0.02 0.01 0.01 0.00 0.00 0.00 0.00 0.02 0.08 0.14 0.18 0.23 0.20 0.39 0.85 1.12 1.09 1.14 1.07 1.03 0.94 0.88 0.81 0.73 0.71 0.73 0.86 1.11 1.44 1.69 1.96 2.32 2.65 3.01 3.38 3.58 3.60 3.45 3.22 2.95 2.62 2.28 1.96 1.68
0.07 0.04 0.01 0.00 0.01 0.01 0.01 0.01 0.11 0.22 0.25 0.29 0.38 0.70 1.10 1.15 1.04 1.03 1.01 0.92 0.86 0.78 0.74 0.78 0.81 0.83 0.91 1.01 1.19 1.39 1.53 1.73 1.87 2.00 2.18 2.22 2.19 2.10 2.06 1.92 1.71 1.48 1.24 1.00
0.12 0.07 0.02 0.01 0.01 0.01 0.01 0.03 0.06 0.09 0.16 0.30 0.62 1.05 1.33 1.24 1.14 1.03 0.92 0.74 0.76 0.70 0.63 0.69 0.74 0.84 0.89 0.91 0.93 0.95 0.97 1.03 1.07 1.09 1.19 1.24 1.23 1.19 1.16 1.08 0.97 0.86 0.77 0.67
0.10 0.08 0.04 0.02 0.01 0.01 0.02 0.03 0.05 0.09 0.26 0.41 0.65 1.04 1.43 1.56 1.48 1.40 1.13 0.83 0.80 0.73 0.64 0.60 0.61 0.65 0.69 0.68 0.66 0.64 0.67 0.68 0.63 0.60 0.61 0.64 0.68 0.66 0.63 0.61 0.59 0.55 0.51 0.46
0.08 0.09 0.07 0.05 0.05 0.05 0.04 0.04 0.05 0.10 0.18 0.37 0.75 1.20 1.36 1.60 1.61 1.49 1.22 0.97 0.93 0.84 0.75 0.69 0.68 0.60 0.58 0.60 0.57 0.54 0.55 0.52 0.49 0.48 0.48 0.44 0.42 0.39 0.36 0.35 0.35 0.32 0.30 0.28
0.08 0.13 0.11 0.09 0.08 0.06 0.06 0.06 0.06 0.14 0.17 0.23 0.63 1.36 1.56 1.71 1.71 1.60 1.55 1.34 1.15 1.00 0.89 0.81 0.74 0.61 0.55 0.53 0.51 0.49 0.48 0.44 0.42 0.38 0.35 0.32 0.29 0.27 0.25 0.24 0.23 0.20 0.20 0.19
0.09 0.21 0.27 0.35 0.29 0.13 0.08 0.07 0.09 0.10 0.15 0.31 0.66 1.35 1.67 1.72 1.65 1.60 1.46 1.35 1.36 1.32 1.16 0.94 0.78 0.62 0.50 0.45 0.46 0.45 0.42 0.40 0.37 0.35 0.34 0.32 0.27 0.23 0.22 0.21 0.19 0.18 0.17 0.17
0.09 0.21 0.37 0.66 0.55 0.24 0.13 0.10 0.11 0.13 0.25 0.43 0.65 1.09 1.38 1.55 1.66 1.72 1.62 1.57 1.52 1.31 0.99 0.75 0.64 0.56 0.51 0.48 0.46 0.42 0.38 0.35 0.33 0.32 0.33 0.36 0.34 0.28 0.24 0.22 0.20 0.16 0.13 0.12
0.11 0.23 0.25 0.27 0.25 0.19 0.16 0.14 0.14 0.17 0.21 0.40 0.66 1.03 1.36 1.50 1.62 1.63 1.67 1.63 1.39 1.14 0.95 0.79 0.69 0.64 0.60 0.53 0.45 0.38 0.35 0.31 0.29 0.31 0.32 0.33 0.33 0.29 0.24 0.21 0.18 0.15 0.11 0.09
0.14 0.26 0.21 0.23 0.22 0.26 0.30 0.25 0.27 0.27 0.34 0.49 0.77 1.13 1.33 1.53 1.62 1.55 1.54 1.48 1.42 1.31 1.16 1.01 0.88 0.79 0.70 0.58 0.49 0.44 0.41 0.37 0.34 0.34 0.34 0.31 0.27 0.24 0.22 0.19 0.16 0.14 0.12 0.11
0.18 0.24 0.29 0.32 0.23 0.35 0.55 0.41 0.34 0.38 0.47 0.64 0.89 1.11 1.10 1.15 1.30 1.41 1.47 1.43 1.42 1.39 1.31 1.19 1.09 0.99 0.87 0.72 0.61 0.55 0.52 0.44 0.40 0.40 0.37 0.34 0.29 0.24 0.19 0.14 0.15 0.15 0.15 0.14
0.17 0.26 0.30 0.34 0.42 0.74 0.72 0.47 0.42 0.47 0.58 0.58 0.68 0.78 0.85 0.89 0.99 1.08 1.16 1.31 1.44 1.42 1.34 1.25 1.12 1.01 0.92 0.78 0.65 0.57 0.49 0.41 0.41 0.42 0.36 0.30 0.28 0.25 0.19 0.16 0.14 0.13 0.15 0.15
0.10 0.23 0.37 0.44 0.63 0.83 0.77 0.50 0.50 0.70 0.82 0.58 0.51 0.53 0.56 0.61 0.73 0.99 1.08 1.22 1.39 1.38 1.31 1.23 1.11 1.00 0.90 0.76 0.63 0.53 0.48 0.43 0.42 0.38 0.30 0.25 0.23 0.21 0.18 0.16 0.14 0.14 0.15 0.15
0.09 0.17 0.38 0.53 0.79 1.04 1.00 0.49 0.33 0.60 1.08 0.73 0.56 0.54 0.62 0.72 0.85 0.90 0.82 0.86 1.05 1.21 1.26 1.21 1.08 0.91 0.78 0.63 0.48 0.43 0.41 0.37 0.33 0.25 0.19 0.18 0.18 0.16 0.14 0.13 0.13 0.13 0.14 0.14
0.27 0.32 0.46 0.61 0.90 1.05 0.60 0.31 0.39 0.84 1.06 0.86 0.73 0.70 0.78 0.95 0.98 0.78 0.69 0.77 0.88 1.00 1.07 0.99 0.87 0.76 0.61 0.46 0.40 0.38 0.32 0.27 0.20 0.16 0.15 0.16 0.16 0.16 0.14 0.15 0.15 0.15 0.15 0.17
0.38 0.53 0.62 0.73 0.99 1.03 0.43 0.30 0.52 0.67 0.60 0.61 0.56 0.53 0.57 0.58 0.57 0.57 0.63 0.74 0.84 0.89 0.87 0.79 0.70 0.59 0.48 0.41 0.39 0.37 0.32 0.23 0.17 0.17 0.17 0.16 0.15 0.09 0.08 0.16 0.18 0.17 0.21 0.22
0.29 0.42 0.58 0.75 0.89 0.72 0.38 0.30 0.32 0.37 0.43 0.42 0.40 0.37 0.41 0.45 0.49 0.49 0.53 0.62 0.70 0.73 0.68 0.60 0.48 0.43 0.40 0.36 0.36 0.34 0.30 0.22 0.21 0.24 0.24 0.19 0.15 0.12 0.11 0.14 0.18 0.20 0.21 0.19
0.33 0.25 0.35 0.57 0.60 0.50 0.38 0.31 0.26 0.24 0.28 0.27 0.27 0.30 0.37 0.44 0.44 0.42 0.42 0.45 0.50 0.51 0.47 0.45 0.41 0.38 0.34 0.30 0.27 0.28 0.23 0.19 0.28 0.31 0.27 0.22 0.20 0.16 0.13 0.13 0.12 0.14 0.15 0.15
0.40 0.46 0.60 0.70 0.60 0.53 0.47 0.37 0.27 0.23 0.20 0.18 0.23 0.27 0.31 0.32 0.32 0.31 0.31 0.32 0.33 0.33 0.32 0.32 0.31 0.29 0.24 0.19 0.17 0.15 0.15 0.17 0.27 0.28 0.23 0.19 0.15 0.13 0.16 0.13 0.06 0.05 0.06 0.04
0.34 0.59 0.97 0.79 0.65 0.66 0.57 0.42 0.33 0.30 0.27 0.26 0.23 0.22 0.24 0.24 0.23 0.22 0.25 0.26 0.25 0.22 0.21 0.22 0.22 0.19 0.15 0.13 0.14 0.11 0.09 0.10 0.18 0.22 0.19 0.14 0.10 0.10 0.11 0.14 0.12 0.04 0.01 0.01

GEFSCGP_prec_meanprecacc_132.txt.gz
Total_Precipitation_Accumulation
0.00 0.00 0.00 0.00 0.00 0.00 0.00 0.00 0.00 0.00 0.01 0.03 0.07 0.12 0.22 0.27 0.34 0.43 0.51 0.50 0.66 0.74 0.94 1.33 1.69 1.93 2.17 2.06 2.09 2.01 2.06 2.25 2.35 2.49 2.61 2.85 2.86 2.83 3.06 3.33 3.48 3.66 3.74 3.56
0.00 0.00 0.00 0.00 0.00 0.00 0.00 0.00 0.01 0.03 0.04 0.05 0.09 0.18 0.31 0.38 0.38 0.48 0.62 0.69 0.95 1.08 1.12 1.31 1.63 1.94 2.14 2.15 2.12 2.16 2.36 2.44 2.55 2.88 3.32 3.72 4.03 4.19 4.25 4.40 4.42 4.33 4.19 4.06
0.00 0.00 0.00 0.00 0.00 0.00 0.00 0.01 0.02 0.04 0.08 0.12 0.17 0.34 0.43 0.42 0.42 0.53 0.71 0.81 1.02 1.17 1.30 1.24 1.29 1.48 1.77 2.01 2.19 2.25 2.55 2.88 3.23 3.72 4.26 4.64 4.99 5.21 5.12 4.93 4.78 4.55 4.34 4.13
0.00 0.00 0.00 0.00 0.00 0.01 0.01 0.01 0.02 0.04 0.08 0.19 0.21 0.41 0.54 0.52 0.59 0.63 0.69 0.73 0.86 0.85 0.94 1.09 1.13 1.24 1.49 1.74 2.03 2.32 2.61 3.10 3.85 4.56 5.10 5.51 5.69 5.68 5.57 5.32 4.93 4.53 4.19 3.88
0.00 0.01 0.01 0.00 0.00 0.00 0.01 0.00 0.01 0.04 0.06 0.16 0.19 0.41 0.66 0.67 0.69 0.77 0.88 0.82 0.77 0.74 0.76 0.86 0.95 1.08 1.29 1.50 1.83 2.21 2.65 3.27 3.91 4.57 5.13 5.56 5.73 5.64 5.39 4.95 4.44 3.94 3.47 3.11
0.01 0.01 0.00 0.00 0.00 0.00 0.00 0.01 0.03 0.06 0.10 0.21 0.19 0.34 0.72 0.92 0.94 1.03 1.02 1.05 1.00 0.88 0.84 0.81 0.79 0.89 1.05 1.31 1.64 2.00 2.42 2.97 3.47 3.88 4.39 4.71 4.88 4.83 4.50 4.02 3.44 2.99 2.67 2.38
0.02 0.01 0.01 0.00 0.00 0.00 0.00 0.02 0.08 0.14 0.18 0.23 0.20 0.39 0.86 1.13 1.11 1.17 1.11 1.12 1.13 1.01 0.90 0.80 0.76 0.78 0.90 1.13 1.46 1.71 1.97 2.34 2.67 3.03 3.40 3.60 3.62 3.47 3.25 2.97 2.65 2.30 1.98 1.70
0.07 0.04 0.01 0.00 0.01 0.01 0.01 0.02 0.11 0.23 0.25 0.29 0.38 0.71 1.11 1.16 1.05 1.05 1.05 0.97 0.94 0.88 0.84 0.86 0.87 0.87 0.96 1.04 1.21 1.40 1.54 1.74 1.88 2.01 2.19 2.23 2.21 2.12 2.09 1.95 1.74 1.51 1.27 1.02
0.12 0.07 0.02 0.01 0.01 0.01 0.01 0.03 0.06 0.10 0.16 0.31 0.62 1.05 1.33 1.25 1.16 1.05 0.94 0.78 0.82 0.78 0.71 0.77 0.81 0.89 0.95 0.96 0.96 0.96 0.97 1.04 1.07 1.09 1.19 1.24 1.24 1.21 1.18 1.09 0.98 0.88 0.79 0.70
0.10 0.08 0.04 0.02 0.01 0.02 0.02 0.04 0.05 0.10 0.26 0.41 0.66 1.05 1.44 1.57 1.50 1.43 1.16 0.86 0.84 0.78 0.70 0.66 0.65 0.68 0.72 0.71 0.68 0.65 0.67 0.68 0.64 0.60 0.61 0.66 0.70 0.68 0.65 0.63 0.61 0.56 0.52 0.47
0.08 0.09 0.07 0.05 0.05 0.06 0.04 0.05 0.06 0.11 0.19 0.37 0.75 1.21 1.37 1.60 1.62 1.50 1.24 1.00 0.97 0.89 0.79 0.73 0.70 0.61 0.59 0.60 0.57 0.54 0.55 0.53 0.49 0.48 0.48 0.45 0.43 0.41 0.38 0.36 0.35 0.32 0.30 0.28
0.08 0.13 0.11 0.09 0.08 0.06 0.07 0.07 0.07 0.15 0.18 0.24 0.63 1.36 1.56 1.72 1.72 1.62 1.57 1.38 1.18 1.06 0.94 0.86 0.78 0.63 0.56 0.54 0.52 0.50 0.48 0.44 0.42 0.39 0.36 0.33 0.29 0.28 0.27 0.25 0.24 0.21 0.20 0.19
0.09 0.21 0.27 0.35 0.30 0.14 0.09 0.08 0.09 0.11 0.16 0.32 0.66 1.35 1.67 1.73 1.66 1.62 1.48 1.38 1.38 1.35 1.20 0.98 0.80 0.64 0.52 0.46 0.46 0.45 0.42 0.40 0.37 0.35 0.34 0.33 0.28 0.24 0.23 0.21 0.20 0.18 0.18 0.17
0.09 0.21 0.38 0.66 0.56 0.25 0.13 0.11 0.12 0.14 0.26 0.43 0.66 1.10 1.39 1.56 1.67 1.74 1.65 1.59 1.55 1.32 1.00 0.78 0.67 0.59 0.53 0.49 0.47 0.42 0.38 0.35 0.33 0.33 0.33 0.36 0.34 0.28 0.24 0.23 0.21 0.17 0.14 0.13
0.12 0.24 0.26 0.28 0.27 0.20 0.17 0.15 0.15 0.18 0.23 0.41 0.67 1.04 1.37 1.51 1.63 1.66 1.71 1.65 1.41 1.16 0.97 0.81 0.70 0.65 0.62 0.54 0.46 0.39 0.35 0.32 0.30 0.31 0.32 0.33 0.33 0.29 0.25 0.21 0.19 0.16 0.12 0.11
0.14 0.27 0.22 0.25 0.24 0.27 0.31 0.27 0.29 0.29 0.36 0.50 0.78 1.14 1.34 1.54 1.63 1.57 1.56 1.50 1.44 1.33 1.18 1.03 0.90 0.81 0.72 0.60 0.49 0.44 0.42 0.38 0.34 0.35 0.35 0.31 0.28 0.25 0.22 0.19 0.17 0.15 0.14 0.13
0.18 0.24 0.30 0.32 0.24 0.36 0.57 0.43 0.36 0.40 0.49 0.65 0.90 1.12 1.12 1.16 1.31 1.42 1.49 1.45 1.44 1.41 1.34 1.22 1.12 1.01 0.89 0.74 0.62 0.56 0.52 0.45 0.40 0.40 0.37 0.34 0.30 0.25 0.20 0.16 0.16 0.15 0.16 0.16
0.17 0.26 0.30 0.34 0.42 0.75 0.74 0.49 0.45 0.49 0.58 0.59 0.70 0.80 0.87 0.91 1.00 1.10 1.17 1.33 1.47 1.46 1.38 1.28 1.15 1.03 0.94 0.79 0.66 0.58 0.49 0.42 0.41 0.42 0.37 0.31 0.29 0.25 0.20 0.16 0.15 0.14 0.16 0.16
0.10 0.23 0.37 0.44 0.64 0.83 0.79 0.52 0.52 0.73 0.84 0.60 0.53 0.55 0.58 0.63 0.75 1.01 1.10 1.24 1.41 1.43 1.36 1.27 1.14 1.03 0.92 0.78 0.65 0.54 0.49 0.44 0.42 0.38 0.31 0.25 0.23 0.21 0.18 0.17 0.15 0.14 0.15 0.16
0.10 0.18 0.39 0.54 0.80 1.05 1.03 0.51 0.35 0.63 1.10 0.74 0.57 0.56 0.63 0.74 0.87 0.92 0.85 0.89 1.09 1.26 1.32 1.27 1.11 0.93 0.80 0.64 0.49 0.44 0.42 0.37 0.33 0.26 0.20 0.18 0.18 0.16 0.14 0.14 0.13 0.13 0.14 0.14
0.28 0.33 0.47 0.61 0.91 1.06 0.62 0.33 0.41 0.87 1.07 0.87 0.74 0.71 0.80 0.97 1.00 0.79 0.71 0.79 0.90 1.03 1.10 1.02 0.90 0.78 0.63 0.48 0.41 0.39 0.33 0.27 0.20 0.16 0.15 0.16 0.16 0.16 0.14 0.15 0.16 0.15 0.15 0.17
0.39 0.53 0.62 0.75 1.02 1.06 0.44 0.31 0.54 0.68 0.61 0.62 0.57 0.54 0.58 0.60 0.58 0.58 0.64 0.75 0.86 0.91 0.89 0.81 0.72 0.61 0.49 0.41 0.40 0.38 0.32 0.24 0.17 0.17 0.17 0.16 0.15 0.10 0.08 0.16 0.18 0.18 0.21 0.23
0.31 0.44 0.60 0.77 0.92 0.75 0.40 0.31 0.33 0.38 0.44 0.43 0.41 0.38 0.42 0.45 0.49 0.50 0.54 0.64 0.73 0.74 0.70 0.62 0.50 0.44 0.40 0.36 0.36 0.35 0.30 0.22 0.21 0.24 0.24 0.19 0.15 0.12 0.11 0.14 0.18 0.20 0.21 0.20
0.35 0.26 0.36 0.57 0.61 0.51 0.38 0.32 0.26 0.25 0.28 0.27 0.28 0.31 0.38 0.44 0.44 0.42 0.43 0.46 0.51 0.52 0.49 0.47 0.42 0.39 0.34 0.30 0.27 0.28 0.23 0.20 0.28 0.32 0.27 0.22 0.20 0.16 0.13 0.13 0.12 0.15 0.16 0.15
0.41 0.47 0.61 0.71 0.60 0.53 0.47 0.37 0.28 0.23 0.20 0.19 0.23 0.28 0.31 0.33 0.33 0.31 0.32 0.33 0.34 0.33 0.34 0.34 0.32 0.29 0.24 0.20 0.17 0.16 0.16 0.17 0.27 0.28 0.23 0.19 0.15 0.14 0.16 0.13 0.06 0.05 0.06 0.04
0.34 0.60 0.98 0.81 0.65 0.66 0.57 0.42 0.33 0.30 0.27 0.26 0.23 0.22 0.24 0.24 0.23 0.22 0.25 0.28 0.27 0.24 0.23 0.23 0.22 0.19 0.15 0.13 0.14 0.11 0.09 0.10 0.19 0.23 0.19 0.14 0.11 0.10 0.11 0.14 0.12 0.04 0.01 0.01

GEFSCGP_prec_meanprecacc_138.txt.gz
Total_Precipitation_Accumulation
0.00 0.00 0.00 0.00 0.00 0.00 0.00 0.00 0.00 0.01 0.01 0.03 0.08 0.13 0.23 0.28 0.35 0.44 0.53 0.52 0.68 0.77 0.99 1.38 1.74 1.99 2.24 2.16 2.19 2.10 2.13 2.31 2.40 2.55 2.67 2.89 2.91 2.89 3.12 3.40 3.55 3.74 3.81 3.63
0.00 0.00 0.00 0.00 0.00 0.00 0.00 0.00 0.01 0.03 0.05 0.06 0.10 0.21 0.33 0.40 0.39 0.50 0.64 0.70 0.97 1.13 1.19 1.36 1.68 2.00 2.20 2.22 2.19 2.22 2.41 2.48 2.60 2.93 3.36 3.77 4.09 4.25 4.32 4.48 4.50 4.41 4.26 4.12
0.00 0.00 0.00 0.00 0.00 0.00 0.00 0.01 0.02 0.05 0.10 0.13 0.19 0.40 0.47 0.44 0.43 0.54 0.72 0.83 1.04 1.22 1.37 1.30 1.35 1.53 1.81 2.05 2.22 2.30 2.60 2.94 3.28 3.75 4.30 4.71 5.05 5.27 5.19 5.00 4.85 4.62 4.40 4.19
0.00 0.00 0.00 0.00 0.00 0.01 0.01 0.01 0.02 0.04 0.09 0.20 0.23 0.46 0.57 0.53 0.59 0.64 0.70 0.75 0.88 0.91 1.01 1.15 1.19 1.29 1.54 1.78 2.07 2.37 2.66 3.18 3.92 4.60 5.15 5.61 5.80 5.77 5.63 5.37 4.99 4.58 4.25 3.93
0.00 0.01 0.01 0.00 0.00 0.00 0.01 0.00 0.01 0.04 0.07 0.16 0.20 0.43 0.67 0.68 0.70 0.77 0.88 0.83 0.80 0.79 0.80 0.91 1.01 1.13 1.33 1.54 1.86 2.25 2.70 3.31 3.94 4.60 5.17 5.62 5.81 5.71 5.44 5.00 4.49 3.98 3.51 3.15
0.01 0.01 0.00 0.00 0.00 0.00 0.00 0.01 0.03 0.06 0.10 0.22 0.19 0.35 0.73 0.92 0.94 1.03 1.03 1.06 1.02 0.91 0.88 0.87 0.88 0.94 1.08 1.34 1.66 2.05 2.47 2.99 3.50 3.92 4.44 4.75 4.92 4.86 4.52 4.04 3.46 3.02 2.69 2.40
0.02 0.01 0.01 0.00 0.00 0.00 0.00 0.02 0.09 0.14 0.18 0.23 0.20 0.39 0.86 1.13 1.11 1.17 1.12 1.15 1.16 1.04 0.94 0.87 0.85 0.83 0.93 1.16 1.49 1.73 1.99 2.37 2.69 3.05 3.44 3.64 3.65 3.49 3.26 2.99 2.66 2.31 1.99 1.71
0.07 0.04 0.01 0.00 0.01 0.01 0.01 0.02 0.11 0.23 0.26 0.30 0.39 0.71 1.11 1.16 1.05 1.05 1.06 1.01 0.97 0.90 0.87 0.90 0.93 0.93 1.01 1.07 1.24 1.43 1.57 1.75 1.89 2.02 2.21 2.25 2.22 2.13 2.09 1.96 1.75 1.52 1.28 1.03
0.12 0.07 0.02 0.01 0.01 0.01 0.01 0.03 0.06 0.10 0.16 0.31 0.63 1.05 1.34 1.25 1.17 1.07 0.96 0.80 0.84 0.80 0.73 0.80 0.85 0.94 1.00 1.01 1.01 1.03 1.03 1.06 1.08 1.10 1.20 1.25 1.25 1.22 1.19 1.10 0.99 0.89 0.80 0.70
0.10 0.08 0.04 0.03 0.01 0.02 0.02 0.04 0.05 0.10 0.27 0.42 0.67 1.06 1.45 1.59 1.53 1.45 1.18 0.88 0.86 0.80 0.72 0.69 0.68 0.72 0.77 0.78 0.76 0.70 0.71 0.71 0.65 0.62 0.63 0.67 0.71 0.69 0.66 0.64 0.61 0.57 0.53 0.48
0.08 0.09 0.07 0.05 0.05 0.06 0.04 0.05 0.06 0.11 0.19 0.38 0.76 1.23 1.38 1.62 1.63 1.50 1.24 1.01 0.99 0.90 0.81 0.76 0.74 0.66 0.63 0.64 0.65 0.60 0.58 0.55 0.52 0.50 0.50 0.46 0.44 0.42 0.38 0.37 0.36 0.33 0.31 0.28
0.08 0.13 0.12 0.09 0.08 0.06 0.07 0.07 0.07 0.17 0.19 0.25 0.65 1.38 1.57 1.72 1.72 1.62 1.57 1.38 1.19 1.07 0.97 0.89 0.84 0.71 0.63 0.58 0.58 0.56 0.51 0.46 0.44 0.41 0.38 0.34 0.30 0.29 0.27 0.26 0.24 0.21 0.20 0.19
0.10 0.21 0.27 0.36 0.30 0.14 0.09 0.08 0.10 0.12 0.18 0.34 0.69 1.37 1.68 1.74 1.67 1.62 1.49 1.39 1.39 1.36 1.23 1.02 0.86 0.71 0.58 0.50 0.50 0.49 0.45 0.42 0.40 0.37 0.35 0.34 0.28 0.25 0.24 0.22 0.20 0.19 0.18 0.17
0.10 0.22 0.38 0.66 0.57 0.25 0.14 0.11 0.12 0.15 0.29 0.46 0.68 1.11 1.40 1.57 1.68 1.75 1.66 1.61 1.56 1.34 1.03 0.80 0.70 0.63 0.57 0.53 0.50 0.45 0.41 0.37 0.35 0.35 0.35 0.37 0.35 0.29 0.26 0.23 0.21 0.18 0.15 0.14
0.12 0.25 0.26 0.29 0.27 0.20 0.18 0.15 0.15 0.19 0.24 0.43 0.69 1.06 1.39 1.53 1.64 1.68 1.73 1.67 1.43 1.19 1.00 0.84 0.73 0.69 0.65 0.57 0.48 0.40 0.36 0.33 0.31 0.32 0.33 0.34 0.34 0.30 0.26 0.22 0.20 0.17 0.14 0.12
0.15 0.28 0.24 0.27 0.25 0.27 0.32 0.27 0.29 0.29 0.37 0.52 0.81 1.16 1.36 1.55 1.64 1.58 1.59 1.53 1.47 1.37 1.22 1.07 0.94 0.85 0.75 0.62 0.50 0.45 0.43 0.39 0.35 0.36 0.36 0.32 0.29 0.26 0.23 0.21 0.18 0.17 0.16 0.15
0.19 0.25 0.32 0.35 0.25 0.37 0.59 0.44 0.38 0.42 0.51 0.68 0.94 1.15 1.13 1.17 1.32 1.43 1.50 1.47 1.47 1.45 1.38 1.26 1.15 1.05 0.92 0.76 0.64 0.58 0.54 0.47 0.41 0.41 0.38 0.35 0.31 0.26 0.21 0.17 0.18 0.16 0.17 0.18
0.18 0.27 0.32 0.36 0.44 0.77 0.76 0.50 0.47 0.52 0.60 0.60 0.72 0.81 0.88 0.92 1.02 1.12 1.20 1.36 1.48 1.48 1.40 1.31 1.18 1.07 0.98 0.83 0.70 0.60 0.51 0.43 0.42 0.44 0.38 0.32 0.30 0.26 0.21 0.17 0.18 0.15 0.17 0.19
0.11 0.24 0.39 0.47 0.66 0.85 0.81 0.53 0.54 0.76 0.86 0.61 0.54 0.56 0.59 0.64 0.76 1.03 1.12 1.27 1.44 1.44 1.38 1.30 1.17 1.05 0.95 0.81 0.68 0.57 0.52 0.46 0.43 0.39 0.32 0.26 0.24 0.22 0.19 0.17 0.16 0.15 0.16 0.18
0.10 0.18 0.40 0.56 0.82 1.08 1.06 0.53 0.37 0.66 1.14 0.76 0.58 0.57 0.64 0.75 0.90 0.94 0.87 0.91 1.11 1.28 1.34 1.31 1.15 0.96 0.82 0.67 0.53 0.47 0.45 0.39 0.34 0.26 0.20 0.19 0.19 0.17 0.15 0.14 0.14 0.14 0.15 0.17
0.30 0.34 0.49 0.64 0.93 1.08 0.63 0.36 0.44 0.92 1.13 0.91 0.77 0.72 0.81 0.98 1.02 0.82 0.74 0.82 0.93 1.06 1.14 1.08 0.96 0.82 0.66 0.50 0.44 0.42 0.35 0.29 0.22 0.17 0.16 0.17 0.18 0.17 0.15 0.16 0.17 0.16 0.16 0.19
0.41 0.56 0.64 0.77 1.04 1.08 0.45 0.32 0.57 0.71 0.64 0.64 0.59 0.55 0.59 0.60 0.58 0.59 0.66 0.78 0.89 0.94 0.92 0.86 0.77 0.65 0.52 0.44 0.42 0.41 0.35 0.26 0.19 0.19 0.18 0.18 0.17 0.10 0.09 0.17 0.20 0.18 0.22 0.24
0.33 0.46 0.61 0.78 0.95 0.76 0.40 0.32 0.33 0.39 0.45 0.44 0.42 0.38 0.43 0.46 0.50 0.50 0.54 0.65 0.74 0.76 0.72 0.64 0.53 0.48 0.43 0.38 0.38 0.37 0.32 0.24 0.23 0.26 0.26 0.21 0.16 0.13 0.12 0.16 0.19 0.21 0.22 0.21
0.37 0.27 0.38 0.60 0.63 0.52 0.38 0.32 0.26 0.25 0.29 0.28 0.29 0.32 0.39 0.45 0.45 0.42 0.43 0.47 0.52 0.54 0.51 0.50 0.46 0.44 0.38 0.32 0.29 0.30 0.25 0.21 0.30 0.34 0.29 0.24 0.22 0.18 0.15 0.15 0.12 0.15 0.17 0.16
0.41 0.47 0.62 0.73 0.62 0.54 0.48 0.37 0.28 0.24 0.20 0.19 0.23 0.28 0.32 0.33 0.33 0.31 0.32 0.33 0.34 0.34 0.37 0.39 0.37 0.33 0.27 0.21 0.18 0.17 0.16 0.18 0.28 0.30 0.24 0.21 0.17 0.15 0.17 0.14 0.07 0.06 0.06 0.04
0.34 0.60 0.99 0.82 0.66 0.68 0.58 0.42 0.33 0.31 0.27 0.27 0.23 0.23 0.25 0.25 0.23 0.22 0.26 0.28 0.27 0.25 0.25 0.28 0.27 0.22 0.18 0.15 0.15 0.12 0.10 0.11 0.20 0.24 0.20 0.16 0.12 0.10 0.12 0.14 0.12 0.04 0.01 0.01

GEFSCGP_prec_meanprecacc_144.txt.gz
Total_Precipitation_Accumulation
0.00 0.00 0.00 0.00 0.00 0.00 0.00 0.00 0.00 0.01 0.02 0.04 0.09 0.15 0.25 0.30 0.37 0.47 0.56 0.55 0.71 0.79 1.01 1.40 1.76 2.01 2.28 2.20 2.22 2.14 2.17 2.35 2.45 2.61 2.75 2.99 3.00 2.96 3.18 3.45 3.60 3.80 3.87 3.69
0.00 0.00 0.00 0.00 0.00 0.00 0.00 0.00 0.01 0.03 0.05 0.06 0.12 0.24 0.36 0.43 0.41 0.53 0.66 0.72 1.01 1.17 1.21 1.38 1.70 2.02 2.23 2.25 2.22 2.27 2.44 2.52 2.66 3.00 3.43 3.85 4.16 4.30 4.36 4.52 4.55 4.46 4.32 4.18
0.00 0.00 0.00 0.00 0.00 0.00 0.00 0.01 0.02 0.05 0.10 0.14 0.20 0.44 0.53 0.50 0.48 0.61 0.76 0.84 1.06 1.26 1.40 1.32 1.37 1.55 1.84 2.08 2.26 2.33 2.63 2.97 3.34 3.82 4.38 4.78 5.12 5.33 5.23 5.05 4.91 4.68 4.45 4.25
0.00 0.00 0.00 0.00 0.00 0.01 0.01 0.01 0.02 0.04 0.09 0.21 0.24 0.49 0.62 0.59 0.65 0.70 0.75 0.77 0.91 0.93 1.04 1.18 1.23 1.33 1.58 1.81 2.10 2.40 2.69 3.24 3.99 4.66 5.23 5.70 5.88 5.84 5.69 5.43 5.06 4.66 4.31 3.98
0.00 0.01 0.01 0.00 0.00 0.00 0.01 0.00 0.01 0.04 0.07 0.16 0.21 0.44 0.70 0.75 0.78 0.83 0.91 0.86 0.82 0.81 0.82 0.94 1.05 1.18 1.38 1.58 1.90 2.29 2.74 3.38 4.06 4.69 5.27 5.71 5.90 5.79 5.50 5.05 4.55 4.04 3.56 3.19
0.01 0.01 0.00 0.00 0.00 0.00 0.00 0.01 0.03 0.06 0.11 0.22 0.20 0.36 0.76 0.99 1.03 1.11 1.06 1.09 1.04 0.94 0.91 0.91 0.92 0.98 1.13 1.38 1.70 2.09 2.52 3.04 3.55 3.98 4.52 4.84 5.00 4.92 4.58 4.09 3.51 3.06 2.73 2.44
0.02 0.01 0.01 0.00 0.00 0.00 0.00 0.02 0.10 0.16 0.19 0.25 0.21 0.41 0.91 1.19 1.18 1.25 1.20 1.21 1.22 1.07 0.96 0.91 0.89 0.88 0.98 1.20 1.52 1.77 2.04 2.45 2.74 3.09 3.47 3.68 3.69 3.54 3.31 3.03 2.71 2.35 2.02 1.73
0.07 0.05 0.02 0.01 0.01 0.01 0.01 0.02 0.13 0.28 0.29 0.33 0.42 0.76 1.18 1.20 1.08 1.10 1.12 1.09 1.06 0.93 0.89 0.94 0.97 0.96 1.05 1.11 1.28 1.47 1.60 1.79 1.92 2.06 2.25 2.28 2.24 2.16 2.13 1.99 1.77 1.53 1.29 1.03
0.13 0.08 0.03 0.01 0.01 0.01 0.01 0.03 0.07 0.12 0.18 0.35 0.68 1.14 1.42 1.30 1.20 1.09 0.98 0.84 0.90 0.83 0.76 0.83 0.88 0.97 1.03 1.04 1.05 1.06 1.06 1.09 1.11 1.13 1.23 1.28 1.27 1.25 1.21 1.11 1.01 0.90 0.81 0.71
0.11 0.09 0.05 0.03 0.02 0.02 0.02 0.04 0.06 0.11 0.30 0.46 0.73 1.16 1.57 1.66 1.57 1.47 1.20 0.92 0.90 0.82 0.74 0.71 0.69 0.74 0.80 0.81 0.79 0.75 0.75 0.74 0.69 0.64 0.65 0.70 0.74 0.72 0.68 0.65 0.63 0.58 0.54 0.49
0.08 0.09 0.07 0.05 0.06 0.06 0.04 0.05 0.07 0.12 0.21 0.42 0.85 1.37 1.50 1.72 1.69 1.54 1.28 1.06 1.01 0.92 0.83 0.77 0.76 0.68 0.66 0.68 0.69 0.65 0.63 0.59 0.55 0.53 0.53 0.49 0.46 0.45 0.41 0.39 0.39 0.35 0.32 0.29
0.09 0.13 0.12 0.09 0.08 0.07 0.07 0.07 0.08 0.19 0.21 0.27 0.72 1.49 1.65 1.80 1.77 1.65 1.61 1.42 1.22 1.08 0.98 0.90 0.85 0.73 0.66 0.63 0.64 0.65 0.58 0.51 0.47 0.44 0.40 0.37 0.34 0.32 0.30 0.28 0.27 0.23 0.22 0.20
0.10 0.22 0.29 0.38 0.31 0.15 0.09 0.08 0.10 0.12 0.21 0.38 0.75 1.48 1.75 1.80 1.71 1.65 1.52 1.45 1.48 1.40 1.25 1.04 0.88 0.74 0.61 0.54 0.54 0.56 0.53 0.48 0.43 0.40 0.39 0.38 0.32 0.27 0.26 0.25 0.22 0.20 0.19 0.18
0.10 0.23 0.40 0.73 0.61 0.26 0.14 0.11 0.12 0.15 0.34 0.51 0.76 1.23 1.48 1.64 1.73 1.78 1.69 1.63 1.60 1.38 1.05 0.83 0.74 0.67 0.60 0.56 0.52 0.48 0.46 0.44 0.42 0.42 0.42 0.42 0.39 0.31 0.28 0.25 0.22 0.19 0.16 0.15
0.13 0.27 0.27 0.31 0.30 0.21 0.18 0.15 0.15 0.19 0.25 0.47 0.76 1.15 1.48 1.61 1.69 1.71 1.76 1.71 1.46 1.21 1.03 0.87 0.77 0.73 0.68 0.59 0.50 0.42 0.38 0.35 0.34 0.38 0.39 0.38 0.36 0.32 0.27 0.23 0.21 0.18 0.15 0.13
0.16 0.31 0.26 0.29 0.27 0.30 0.33 0.28 0.29 0.30 0.38 0.55 0.86 1.23 1.43 1.62 1.72 1.63 1.62 1.56 1.50 1.39 1.24 1.09 0.97 0.88 0.78 0.64 0.52 0.48 0.45 0.41 0.38 0.39 0.39 0.34 0.31 0.28 0.25 0.22 0.19 0.18 0.17 0.16
0.19 0.27 0.36 0.38 0.27 0.39 0.63 0.46 0.38 0.44 0.52 0.71 1.00 1.22 1.18 1.22 1.37 1.49 1.55 1.51 1.53 1.49 1.40 1.28 1.18 1.08 0.95 0.79 0.67 0.62 0.57 0.48 0.43 0.44 0.40 0.37 0.33 0.28 0.22 0.18 0.19 0.18 0.19 0.20
0.20 0.31 0.35 0.40 0.48 0.85 0.84 0.52 0.48 0.54 0.63 0.63 0.76 0.85 0.93 0.96 1.06 1.17 1.27 1.43 1.56 1.54 1.43 1.32 1.19 1.09 1.00 0.86 0.72 0.62 0.52 0.45 0.44 0.46 0.39 0.32 0.31 0.28 0.22 0.19 0.20 0.18 0.19 0.21
0.11 0.26 0.42 0.51 0.75 0.96 0.87 0.56 0.57 0.82 0.94 0.64 0.59 0.61 0.63 0.67 0.80 1.10 1.21 1.35 1.49 1.49 1.41 1.32 1.18 1.07 0.97 0.83 0.69 0.59 0.54 0.48 0.45 0.40 0.33 0.27 0.26 0.24 0.21 0.20 0.19 0.19 0.19 0.20
0.11 0.19 0.43 0.61 0.91 1.20 1.16 0.56 0.38 0.72 1.23 0.80 0.62 0.62 0.68 0.78 0.95 0.99 0.90 0.95 1.16 1.33 1.38 1.34 1.18 0.99 0.85 0.70 0.55 0.49 0.48 0.43 0.37 0.28 0.21 0.20 0.21 0.20 0.17 0.16 0.17 0.17 0.18 0.20
0.32 0.37 0.53 0.71 1.03 1.18 0.67 0.36 0.46 1.00 1.21 0.96 0.80 0.75 0.83 1.02 1.06 0.85 0.75 0.84 0.98 1.13 1.20 1.14 1.02 0.89 0.71 0.54 0.47 0.46 0.39 0.32 0.24 0.18 0.16 0.18 0.21 0.20 0.18 0.18 0.20 0.19 0.19 0.23
0.45 0.62 0.71 0.85 1.15 1.17 0.47 0.34 0.61 0.77 0.68 0.67 0.61 0.56 0.60 0.62 0.59 0.59 0.67 0.80 0.93 1.00 0.98 0.91 0.83 0.72 0.58 0.48 0.47 0.47 0.40 0.30 0.21 0.20 0.21 0.21 0.20 0.12 0.11 0.21 0.23 0.21 0.25 0.28
0.36 0.52 0.68 0.85 1.02 0.82 0.42 0.32 0.35 0.40 0.46 0.45 0.44 0.40 0.44 0.46 0.50 0.51 0.56 0.67 0.77 0.79 0.76 0.68 0.57 0.53 0.49 0.44 0.44 0.44 0.37 0.27 0.26 0.29 0.29 0.23 0.18 0.15 0.14 0.18 0.22 0.23 0.24 0.22
0.39 0.29 0.41 0.63 0.64 0.53 0.39 0.32 0.27 0.25 0.30 0.29 0.30 0.33 0.40 0.46 0.45 0.44 0.45 0.48 0.54 0.56 0.55 0.54 0.50 0.49 0.44 0.38 0.34 0.35 0.28 0.23 0.32 0.37 0.32 0.27 0.24 0.20 0.17 0.16 0.13 0.16 0.17 0.17
0.44 0.50 0.66 0.78 0.64 0.56 0.49 0.38 0.28 0.24 0.21 0.20 0.24 0.30 0.33 0.34 0.34 0.33 0.34 0.35 0.36 0.36 0.40 0.43 0.41 0.37 0.31 0.25 0.22 0.20 0.18 0.20 0.30 0.33 0.27 0.23 0.19 0.17 0.19 0.15 0.07 0.06 0.07 0.04
0.35 0.62 1.03 0.87 0.69 0.70 0.59 0.43 0.33 0.31 0.29 0.27 0.24 0.23 0.25 0.25 0.24 0.24 0.27 0.30 0.29 0.27 0.28 0.31 0.30 0.25 0.20 0.17 0.17 0.14 0.11 0.13 0.22 0.27 0.23 0.17 0.13 0.11 0.12 0.14 0.12 0.04 0.01 0.01

GEFSCGP_prec_meanprecacc_150.txt.gz
Total_Precipitation_Accumulation
0.00 0.00 0.00 0.00 0.00 0.00 0.00 0.00 0.00 0.01 0.02 0.05 0.10 0.17 0.30 0.38 0.45 0.56 0.64 0.61 0.79 0.85 1.05 1.43 1.79 2.04 2.31 2.22 2.24 2.16 2.20 2.37 2.46 2.63 2.78 3.01 3.02 3.01 3.27 3.54 3.68 3.88 3.93 3.74
0.00 0.00 0.00 0.00 0.00 0.00 0.00 0.01 0.01 0.04 0.06 0.08 0.14 0.27 0.39 0.45 0.47 0.62 0.76 0.79 1.07 1.22 1.25 1.41 1.73 2.04 2.27 2.29 2.25 2.29 2.47 2.54 2.67 3.01 3.47 3.87 4.18 4.33 4.43 4.65 4.66 4.54 4.38 4.24
0.00 0.00 0.00 0.00 0.00 0.00 0.01 0.01 0.03 0.06 0.11 0.15 0.22 0.49 0.56 0.53 0.53 0.69 0.88 0.94 1.11 1.30 1.44 1.34 1.39 1.57 1.87 2.12 2.28 2.34 2.64 3.00 3.35 3.84 4.39 4.81 5.16 5.37 5.27 5.10 4.97 4.73 4.49 4.29
0.00 0.00 0.00 0.00 0.00 0.01 0.01 0.01 0.02 0.04 0.10 0.22 0.25 0.52 0.65 0.63 0.71 0.80 0.88 0.88 0.98 1.01 1.12 1.22 1.26 1.36 1.63 1.85 2.12 2.42 2.72 3.27 4.01 4.68 5.24 5.71 5.91 5.88 5.73 5.47 5.09 4.69 4.35 4.01
0.00 0.01 0.01 0.00 0.00 0.00 0.01 0.00 0.01 0.04 0.07 0.17 0.22 0.46 0.73 0.79 0.85 0.93 1.02 0.96 0.94 0.98 0.96 1.01 1.10 1.23 1.48 1.67 1.95 2.32 2.77 3.42 4.09 4.71 5.29 5.74 5.93 5.83 5.55 5.10 4.58 4.07 3.59 3.22
0.01 0.01 0.00 0.00 0.00 0.00 0.00 0.01 0.03 0.06 0.11 0.23 0.20 0.37 0.79 1.04 1.12 1.25 1.20 1.22 1.24 1.12 1.06 1.03 1.00 1.04 1.19 1.44 1.75 2.12 2.55 3.07 3.57 4.00 4.55 4.88 5.05 4.98 4.64 4.15 3.55 3.09 2.76 2.47
0.02 0.01 0.01 0.00 0.00 0.00 0.00 0.02 0.10 0.17 0.20 0.25 0.21 0.42 0.94 1.24 1.27 1.36 1.30 1.36 1.39 1.22 1.10 1.04 0.99 0.95 1.03 1.25 1.56 1.80 2.06 2.47 2.75 3.10 3.49 3.71 3.72 3.57 3.35 3.10 2.80 2.41 2.06 1.77
0.07 0.05 0.02 0.01 0.01 0.01 0.01 0.02 0.14 0.30 0.30 0.34 0.44 0.79 1.24 1.27 1.16 1.19 1.22 1.21 1.17 1.03 0.97 1.02 1.05 1.03 1.11 1.16 1.31 1.49 1.61 1.80 1.93 2.07 2.26 2.29 2.26 2.18 2.15 2.02 1.82 1.58 1.31 1.05
0.14 0.08 0.03 0.01 0.01 0.01 0.01 0.03 0.08 0.13 0.20 0.37 0.72 1.20 1.52 1.40 1.30 1.20 1.08 0.92 0.97 0.92 0.86 0.90 0.93 1.01 1.08 1.08 1.07 1.08 1.08 1.11 1.12 1.14 1.24 1.29 1.29 1.27 1.23 1.14 1.03 0.92 0.82 0.72
0.12 0.10 0.05 0.03 0.02 0.02 0.03 0.05 0.07 0.13 0.34 0.52 0.79 1.22 1.67 1.78 1.73 1.64 1.34 1.03 1.00 0.96 0.89 0.81 0.75 0.79 0.85 0.84 0.81 0.77 0.77 0.76 0.70 0.66 0.67 0.72 0.76 0.74 0.70 0.67 0.63 0.58 0.54 0.49
0.08 0.10 0.08 0.06 0.06 0.07 0.05 0.06 0.08 0.15 0.25 0.49 0.93 1.44 1.58 1.85 1.87 1.72 1.42 1.16 1.12 1.05 0.97 0.91 0.87 0.77 0.72 0.72 0.72 0.68 0.66 0.62 0.59 0.56 0.55 0.51 0.49 0.47 0.42 0.40 0.39 0.36 0.32 0.30
0.09 0.14 0.13 0.10 0.09 0.08 0.08 0.08 0.10 0.22 0.24 0.32 0.77 1.54 1.69 1.88 1.90 1.76 1.71 1.51 1.30 1.17 1.06 0.97 0.92 0.79 0.71 0.67 0.67 0.67 0.59 0.53 0.51 0.46 0.42 0.39 0.35 0.33 0.31 0.29 0.27 0.24 0.22 0.20
0.11 0.23 0.31 0.40 0.33 0.16 0.10 0.09 0.12 0.14 0.22 0.40 0.79 1.53 1.79 1.85 1.78 1.72 1.59 1.53 1.56 1.52 1.35 1.13 0.96 0.81 0.67 0.58 0.57 0.57 0.55 0.49 0.45 0.42 0.41 0.39 0.33 0.29 0.28 0.26 0.23 0.21 0.20 0.19
0.11 0.24 0.42 0.75 0.63 0.28 0.16 0.13 0.15 0.18 0.36 0.55 0.79 1.26 1.52 1.70 1.80 1.87 1.78 1.74 1.72 1.46 1.10 0.87 0.78 0.71 0.63 0.59 0.55 0.50 0.48 0.46 0.44 0.44 0.45 0.47 0.45 0.37 0.33 0.30 0.25 0.20 0.17 0.15
0.14 0.27 0.28 0.33 0.32 0.22 0.20 0.18 0.21 0.24 0.27 0.49 0.78 1.18 1.53 1.67 1.78 1.83 1.89 1.81 1.56 1.28 1.06 0.89 0.79 0.75 0.70 0.61 0.51 0.43 0.40 0.37 0.36 0.40 0.42 0.43 0.42 0.39 0.34 0.30 0.27 0.22 0.16 0.13
0.16 0.32 0.28 0.31 0.28 0.32 0.36 0.31 0.32 0.32 0.40 0.56 0.87 1.26 1.48 1.68 1.80 1.75 1.76 1.69 1.61 1.47 1.28 1.12 0.99 0.90 0.80 0.65 0.53 0.49 0.47 0.43 0.39 0.41 0.40 0.36 0.32 0.29 0.26 0.23 0.20 0.19 0.17 0.16
0.20 0.28 0.39 0.41 0.29 0.44 0.70 0.52 0.43 0.47 0.55 0.74 1.03 1.25 1.23 1.27 1.45 1.54 1.58 1.55 1.57 1.52 1.44 1.32 1.21 1.10 0.97 0.81 0.69 0.63 0.59 0.50 0.45 0.46 0.41 0.37 0.34 0.29 0.22 0.18 0.19 0.19 0.19 0.20
0.20 0.33 0.39 0.44 0.52 0.92 0.93 0.59 0.53 0.59 0.68 0.67 0.79 0.88 0.96 1.00 1.11 1.21 1.30 1.45 1.58 1.57 1.47 1.38 1.24 1.12 1.02 0.87 0.73 0.63 0.54 0.46 0.45 0.46 0.39 0.33 0.32 0.28 0.23 0.19 0.20 0.19 0.20 0.21
0.12 0.29 0.45 0.57 0.82 1.06 0.95 0.63 0.62 0.87 0.98 0.67 0.61 0.65 0.67 0.70 0.84 1.14 1.26 1.39 1.54 1.54 1.45 1.35 1.21 1.09 0.98 0.84 0.71 0.60 0.56 0.49 0.46 0.41 0.33 0.27 0.26 0.25 0.22 0.20 0.19 0.19 0.20 0.21
0.12 0.22 0.47 0.67 0.98 1.29 1.23 0.60 0.41 0.75 1.26 0.82 0.63 0.64 0.70 0.81 0.98 1.03 0.95 0.99 1.20 1.38 1.43 1.38 1.20 1.00 0.87 0.72 0.57 0.51 0.49 0.44 0.38 0.29 0.22 0.20 0.22 0.20 0.18 0.17 0.17 0.17 0.19 0.20
0.34 0.41 0.58 0.78 1.11 1.26 0.71 0.39 0.49 1.04 1.24 0.98 0.82 0.76 0.84 1.02 1.07 0.86 0.77 0.86 1.01 1.16 1.24 1.18 1.06 0.93 0.74 0.57 0.50 0.49 0.41 0.34 0.25 0.19 0.17 0.19 0.21 0.21 0.18 0.19 0.20 0.19 0.19 0.24
0.48 0.67 0.78 0.92 1.22 1.23 0.50 0.37 0.65 0.80 0.70 0.69 0.64 0.58 0.62 0.62 0.59 0.60 0.68 0.82 0.94 1.01 1.00 0.94 0.87 0.76 0.63 0.52 0.51 0.50 0.43 0.32 0.23 0.22 0.22 0.22 0.21 0.13 0.12 0.21 0.23 0.21 0.25 0.28
0.39 0.56 0.73 0.91 1.08 0.86 0.45 0.35 0.37 0.43 0.49 0.47 0.47 0.42 0.44 0.47 0.50 0.51 0.57 0.68 0.77 0.80 0.77 0.69 0.58 0.55 0.52 0.47 0.48 0.48 0.41 0.29 0.28 0.31 0.31 0.25 0.19 0.16 0.14 0.19 0.22 0.23 0.25 0.23
0.42 0.31 0.44 0.66 0.66 0.55 0.41 0.34 0.28 0.27 0.32 0.31 0.32 0.35 0.41 0.47 0.46 0.45 0.46 0.49 0.55 0.57 0.56 0.55 0.51 0.50 0.45 0.40 0.36 0.38 0.31 0.25 0.34 0.38 0.33 0.27 0.25 0.20 0.17 0.16 0.13 0.17 0.17 0.17
0.46 0.52 0.69 0.80 0.66 0.57 0.50 0.39 0.29 0.25 0.23 0.22 0.26 0.31 0.34 0.35 0.35 0.34 0.35 0.35 0.37 0.37 0.41 0.44 0.42 0.39 0.32 0.27 0.24 0.21 0.19 0.21 0.31 0.34 0.28 0.24 0.19 0.17 0.19 0.15 0.07 0.06 0.07 0.04
0.35 0.63 1.04 0.88 0.70 0.71 0.60 0.43 0.34 0.33 0.31 0.30 0.25 0.24 0.26 0.26 0.25 0.25 0.28 0.31 0.30 0.28 0.30 0.33 0.32 0.27 0.22 0.19 0.19 0.16 0.12 0.14 0.23 0.28 0.24 0.18 0.13 0.12 0.13 0.14 0.12 0.04 0.01 0.01

GEFSCGP_prec_meanprecacc_156.txt.gz
Total_Precipitation_Accumulation
0.00 0.00 0.00 0.00 0.00 0.00 0.00 0.01 0.01 0.01 0.03 0.06 0.12 0.19 0.32 0.41 0.50 0.59 0.68 0.66 0.85 0.91 1.11 1.51 1.88 2.12 2.39 2.30 2.31 2.23 2.27 2.43 2.51 2.66 2.80 3.04 3.04 3.02 3.29 3.55 3.70 3.91 3.98 3.81
0.00 0.00 0.00 0.00 0.00 0.00 0.00 0.01 0.02 0.05 0.07 0.09 0.17 0.31 0.45 0.52 0.53 0.66 0.80 0.83 1.12 1.27 1.30 1.46 1.80 2.14 2.36 2.36 2.33 2.39 2.57 2.61 2.71 3.04 3.49 3.89 4.19 4.35 4.44 4.65 4.68 4.59 4.44 4.30
0.00 0.00 0.00 0.00 0.00 0.01 0.01 0.01 0.03 0.06 0.12 0.17 0.25 0.53 0.62 0.59 0.60 0.75 0.92 0.98 1.16 1.35 1.49 1.38 1.45 1.65 1.96 2.19 2.36 2.43 2.74 3.08 3.42 3.89 4.42 4.83 5.18 5.38 5.28 5.11 4.99 4.78 4.56 4.36
0.00 0.00 0.00 0.00 0.00 0.01 0.01 0.01 0.03 0.05 0.10 0.24 0.27 0.55 0.69 0.67 0.76 0.85 0.92 0.92 1.03 1.06 1.17 1.28 1.32 1.43 1.70 1.93 2.20 2.50 2.81 3.36 4.10 4.74 5.28 5.74 5.93 5.90 5.76 5.49 5.11 4.72 4.40 4.07
0.01 0.01 0.01 0.00 0.00 0.01 0.01 0.01 0.02 0.06 0.07 0.18 0.23 0.48 0.76 0.82 0.87 0.95 1.05 1.00 0.99 1.04 1.03 1.08 1.17 1.32 1.57 1.78 2.06 2.44 2.88 3.52 4.17 4.78 5.34 5.77 5.95 5.85 5.57 5.13 4.62 4.13 3.66 3.28
0.01 0.01 0.00 0.00 0.00 0.00 0.00 0.02 0.04 0.07 0.11 0.23 0.21 0.38 0.82 1.06 1.13 1.27 1.23 1.29 1.31 1.18 1.11 1.09 1.09 1.15 1.29 1.55 1.86 2.23 2.66 3.19 3.67 4.07 4.59 4.91 5.07 5.00 4.67 4.18 3.59 3.15 2.83 2.52
0.02 0.01 0.01 0.00 0.00 0.00 0.00 0.03 0.11 0.18 0.21 0.26 0.22 0.44 0.95 1.25 1.27 1.37 1.33 1.40 1.43 1.26 1.17 1.10 1.06 1.05 1.14 1.36 1.68 1.90 2.14 2.53 2.81 3.15 3.53 3.73 3.75 3.60 3.37 3.12 2.84 2.46 2.09 1.79
0.07 0.05 0.02 0.01 0.01 0.01 0.01 0.02 0.15 0.31 0.31 0.35 0.44 0.80 1.24 1.28 1.17 1.20 1.25 1.24 1.21 1.07 1.03 1.08 1.11 1.11 1.17 1.22 1.36 1.54 1.65 1.83 1.96 2.10 2.28 2.32 2.29 2.22 2.18 2.04 1.84 1.59 1.33 1.07
0.14 0.08 0.03 0.01 0.01 0.01 0.01 0.03 0.08 0.14 0.20 0.37 0.73 1.21 1.53 1.41 1.31 1.21 1.10 0.95 1.01 0.97 0.94 0.98 0.99 1.06 1.11 1.11 1.10 1.11 1.11 1.14 1.16 1.18 1.29 1.34 1.32 1.30 1.25 1.15 1.04 0.92 0.83 0.73
0.12 0.10 0.05 0.03 0.02 0.02 0.03 0.05 0.07 0.13 0.34 0.52 0.79 1.23 1.68 1.78 1.74 1.66 1.38 1.08 1.04 1.01 0.97 0.88 0.80 0.83 0.89 0.87 0.84 0.80 0.80 0.79 0.73 0.69 0.71 0.75 0.78 0.76 0.72 0.67 0.64 0.59 0.55 0.51
0.08 0.10 0.08 0.06 0.06 0.07 0.05 0.06 0.08 0.15 0.25 0.49 0.93 1.44 1.58 1.85 1.87 1.73 1.45 1.20 1.17 1.11 1.03 0.96 0.92 0.80 0.76 0.76 0.75 0.71 0.69 0.65 0.61 0.59 0.58 0.54 0.51 0.48 0.43 0.41 0.40 0.36 0.34 0.31
0.09 0.14 0.13 0.10 0.09 0.08 0.08 0.08 0.10 0.22 0.24 0.32 0.77 1.54 1.69 1.88 1.90 1.77 1.72 1.52 1.33 1.22 1.10 1.01 0.96 0.82 0.73 0.69 0.70 0.70 0.63 0.56 0.52 0.48 0.44 0.41 0.37 0.35 0.33 0.31 0.29 0.25 0.23 0.22
0.11 0.23 0.31 0.40 0.33 0.16 0.11 0.09 0.13 0.15 0.23 0.41 0.79 1.54 1.79 1.86 1.79 1.73 1.61 1.55 1.59 1.57 1.39 1.17 1.01 0.84 0.69 0.60 0.59 0.60 0.57 0.51 0.46 0.43 0.42 0.40 0.35 0.31 0.30 0.29 0.25 0.22 0.21 0.20
0.11 0.24 0.42 0.76 0.63 0.28 0.16 0.13 0.16 0.19 0.37 0.55 0.79 1.26 1.53 1.71 1.81 1.88 1.80 1.76 1.75 1.50 1.13 0.90 0.82 0.74 0.65 0.60 0.56 0.51 0.49 0.47 0.45 0.45 0.46 0.47 0.46 0.39 0.35 0.31 0.27 0.23 0.20 0.18
0.14 0.27 0.29 0.34 0.32 0.23 0.20 0.19 0.22 0.25 0.28 0.49 0.78 1.18 1.53 1.68 1.79 1.84 1.91 1.83 1.57 1.30 1.08 0.91 0.81 0.78 0.71 0.62 0.52 0.44 0.41 0.38 0.37 0.41 0.43 0.43 0.43 0.40 0.35 0.31 0.29 0.27 0.22 0.20
0.16 0.32 0.28 0.31 0.29 0.33 0.36 0.32 0.34 0.34 0.41 0.57 0.88 1.26 1.49 1.70 1.83 1.77 1.79 1.72 1.64 1.50 1.32 1.14 1.01 0.92 0.81 0.66 0.54 0.50 0.48 0.44 0.41 0.42 0.42 0.37 0.33 0.30 0.26 0.24 0.21 0.20 0.20 0.20
0.20 0.28 0.39 0.41 0.29 0.44 0.71 0.53 0.45 0.48 0.57 0.76 1.05 1.26 1.24 1.29 1.49 1.58 1.63 1.60 1.60 1.55 1.46 1.34 1.23 1.12 0.99 0.83 0.70 0.64 0.60 0.52 0.47 0.47 0.43 0.39 0.35 0.29 0.23 0.18 0.20 0.19 0.20 0.20
0.21 0.33 0.39 0.45 0.53 0.93 0.93 0.61 0.56 0.61 0.70 0.68 0.80 0.89 0.98 1.03 1.14 1.24 1.33 1.48 1.61 1.60 1.50 1.41 1.28 1.17 1.08 0.93 0.78 0.66 0.56 0.48 0.46 0.47 0.40 0.33 0.32 0.28 0.23 0.20 0.21 0.20 0.21 0.22
0.13 0.30 0.46 0.57 0.82 1.07 0.96 0.64 0.65 0.89 1.00 0.67 0.62 0.66 0.68 0.73 0.86 1.16 1.28 1.42 1.56 1.57 1.49 1.41 1.27 1.17 1.09 0.93 0.78 0.65 0.60 0.53 0.49 0.43 0.34 0.28 0.26 0.25 0.22 0.20 0.19 0.19 0.21 0.22
0.13 0.23 0.48 0.68 1.00 1.30 1.24 0.61 0.43 0.76 1.27 0.83 0.64 0.65 0.71 0.83 1.00 1.04 0.96 1.01 1.23 1.41 1.51 1.44 1.25 1.08 0.96 0.79 0.62 0.55 0.53 0.48 0.41 0.32 0.24 0.21 0.22 0.21 0.18 0.17 0.17 0.18 0.19 0.22
0.35 0.42 0.59 0.79 1.12 1.26 0.72 0.40 0.50 1.04 1.25 0.99 0.82 0.77 0.85 1.03 1.07 0.87 0.77 0.87 1.02 1.18 1.28 1.22 1.09 0.96 0.79 0.62 0.53 0.51 0.44 0.38 0.28 0.21 0.18 0.20 0.21 0.21 0.19 0.19 0.20 0.20 0.20 0.24
0.49 0.67 0.80 0.93 1.22 1.24 0.50 0.37 0.66 0.81 0.70 0.69 0.64 0.59 0.62 0.63 0.60 0.60 0.68 0.82 0.95 1.02 1.02 0.97 0.90 0.81 0.67 0.56 0.54 0.53 0.46 0.36 0.27 0.25 0.24 0.23 0.22 0.13 0.12 0.22 0.24 0.21 0.25 0.28
0.40 0.56 0.74 0.92 1.08 0.86 0.45 0.35 0.37 0.43 0.49 0.48 0.48 0.42 0.45 0.47 0.50 0.52 0.57 0.68 0.78 0.80 0.77 0.71 0.61 0.59 0.56 0.52 0.53 0.52 0.45 0.34 0.33 0.36 0.33 0.26 0.20 0.16 0.14 0.19 0.22 0.23 0.25 0.23
0.43 0.32 0.46 0.66 0.67 0.55 0.41 0.34 0.28 0.27 0.32 0.32 0.32 0.35 0.42 0.47 0.46 0.45 0.46 0.49 0.55 0.58 0.57 0.56 0.52 0.53 0.48 0.43 0.41 0.42 0.36 0.30 0.38 0.43 0.37 0.29 0.26 0.21 0.18 0.16 0.13 0.17 0.18 0.17
0.47 0.53 0.70 0.81 0.67 0.58 0.50 0.39 0.30 0.26 0.24 0.23 0.26 0.31 0.35 0.36 0.35 0.34 0.35 0.36 0.37 0.37 0.42 0.45 0.43 0.40 0.34 0.30 0.28 0.25 0.22 0.24 0.36 0.38 0.33 0.27 0.21 0.19 0.20 0.15 0.07 0.06 0.07 0.04
0.36 0.64 1.05 0.89 0.71 0.72 0.61 0.44 0.35 0.34 0.35 0.33 0.26 0.25 0.26 0.26 0.26 0.25 0.28 0.31 0.30 0.29 0.31 0.34 0.32 0.27 0.23 0.21 0.21 0.19 0.15 0.15 0.25 0.31 0.28 0.21 0.16 0.14 0.14 0.15 0.12 0.04 0.01 0.01

GEFSCGP_prec_meanprecacc_162.txt.gz
Total_Precipitation_Accumulation
0.00 0.00 0.00 0.00 0.00 0.00 0.00 0.01 0.01 0.02 0.03 0.07 0.13 0.21 0.35 0.44 0.53 0.61 0.70 0.68 0.87 0.93 1.14 1.54 1.91 2.17 2.45 2.39 2.41 2.33 2.36 2.53 2.60 2.73 2.86 3.10 3.08 3.06 3.32 3.58 3.72 3.92 3.99 3.82
0.00 0.00 0.00 0.00 0.01 0.01 0.00 0.01 0.02 0.05 0.08 0.11 0.19 0.34 0.48 0.56 0.56 0.69 0.84 0.86 1.15 1.29 1.33 1.49 1.83 2.18 2.42 2.46 2.45 2.50 2.66 2.69 2.78 3.11 3.57 3.97 4.26 4.40 4.49 4.69 4.70 4.60 4.45 4.32
0.00 0.00 0.00 0.00 0.00 0.01 0.01 0.01 0.03 0.06 0.13 0.19 0.28 0.56 0.65 0.62 0.64 0.79 0.96 1.02 1.19 1.37 1.51 1.41 1.47 1.68 2.02 2.26 2.43 2.52 2.80 3.14 3.48 3.95 4.48 4.88 5.23 5.43 5.31 5.13 5.01 4.79 4.58 4.38
0.00 0.01 0.00 0.00 0.01 0.01 0.01 0.01 0.03 0.05 0.11 0.26 0.30 0.58 0.71 0.69 0.78 0.87 0.94 0.95 1.06 1.09 1.20 1.31 1.35 1.46 1.74 1.98 2.24 2.57 2.87 3.42 4.16 4.81 5.35 5.80 5.98 5.95 5.79 5.52 5.14 4.74 4.41 4.08
0.01 0.01 0.01 0.01 0.01 0.01 0.01 0.01 0.02 0.06 0.08 0.19 0.25 0.50 0.78 0.83 0.88 0.96 1.06 1.02 1.03 1.08 1.09 1.14 1.22 1.35 1.60 1.81 2.10 2.48 2.92 3.58 4.22 4.84 5.40 5.82 6.00 5.88 5.60 5.14 4.64 4.15 3.69 3.32
0.01 0.01 0.00 0.00 0.00 0.00 0.00 0.02 0.04 0.08 0.12 0.24 0.21 0.39 0.83 1.06 1.14 1.27 1.24 1.30 1.33 1.20 1.15 1.14 1.13 1.18 1.32 1.58 1.89 2.26 2.69 3.22 3.72 4.11 4.63 4.95 5.10 5.02 4.69 4.19 3.60 3.16 2.85 2.56
0.02 0.01 0.01 0.00 0.00 0.00 0.00 0.03 0.11 0.19 0.22 0.26 0.22 0.44 0.96 1.25 1.28 1.37 1.33 1.41 1.44 1.28 1.19 1.13 1.10 1.08 1.17 1.39 1.71 1.94 2.16 2.56 2.84 3.18 3.57 3.78 3.78 3.62 3.40 3.15 2.86 2.47 2.11 1.82
0.07 0.05 0.02 0.01 0.01 0.01 0.01 0.02 0.15 0.32 0.31 0.35 0.45 0.80 1.24 1.28 1.17 1.20 1.25 1.24 1.21 1.08 1.05 1.11 1.15 1.14 1.21 1.25 1.40 1.56 1.67 1.85 1.98 2.12 2.31 2.34 2.31 2.24 2.21 2.06 1.86 1.61 1.34 1.08
0.14 0.09 0.03 0.01 0.01 0.01 0.01 0.04 0.08 0.14 0.20 0.37 0.73 1.21 1.53 1.41 1.31 1.21 1.10 0.95 1.01 0.98 0.96 1.01 1.04 1.10 1.15 1.15 1.13 1.14 1.13 1.16 1.17 1.19 1.30 1.36 1.34 1.32 1.27 1.17 1.05 0.94 0.84 0.74
0.12 0.10 0.05 0.03 0.02 0.02 0.03 0.05 0.07 0.13 0.34 0.52 0.79 1.23 1.68 1.79 1.74 1.66 1.38 1.08 1.05 1.02 0.99 0.90 0.83 0.88 0.94 0.91 0.86 0.81 0.81 0.81 0.75 0.70 0.72 0.76 0.80 0.77 0.73 0.69 0.65 0.60 0.56 0.51
0.09 0.10 0.08 0.06 0.06 0.07 0.05 0.06 0.08 0.15 0.25 0.50 0.93 1.44 1.58 1.85 1.87 1.73 1.45 1.21 1.17 1.12 1.04 0.98 0.96 0.86 0.82 0.81 0.78 0.73 0.70 0.66 0.63 0.60 0.60 0.55 0.52 0.49 0.44 0.42 0.40 0.37 0.35 0.33
0.10 0.14 0.13 0.10 0.09 0.08 0.08 0.08 0.10 0.22 0.25 0.33 0.78 1.55 1.69 1.88 1.91 1.77 1.72 1.53 1.33 1.23 1.12 1.05 1.01 0.88 0.79 0.74 0.73 0.72 0.65 0.57 0.54 0.50 0.46 0.42 0.39 0.36 0.34 0.32 0.30 0.26 0.25 0.24
0.11 0.23 0.31 0.40 0.33 0.16 0.11 0.09 0.13 0.15 0.23 0.41 0.80 1.55 1.79 1.86 1.80 1.73 1.61 1.56 1.60 1.58 1.41 1.20 1.05 0.88 0.73 0.64 0.62 0.62 0.59 0.53 0.47 0.45 0.44 0.42 0.37 0.33 0.31 0.30 0.27 0.24 0.23 0.22
0.11 0.24 0.43 0.76 0.63 0.29 0.16 0.14 0.16 0.19 0.37 0.56 0.80 1.27 1.53 1.71 1.81 1.89 1.81 1.77 1.76 1.51 1.15 0.92 0.84 0.76 0.68 0.62 0.58 0.53 0.51 0.49 0.46 0.46 0.48 0.49 0.48 0.42 0.37 0.33 0.29 0.25 0.21 0.19
0.14 0.28 0.29 0.34 0.32 0.23 0.20 0.19 0.22 0.26 0.28 0.51 0.79 1.19 1.55 1.70 1.81 1.85 1.91 1.83 1.58 1.32 1.10 0.93 0.83 0.80 0.73 0.64 0.54 0.46 0.43 0.39 0.39 0.43 0.44 0.45 0.45 0.43 0.37 0.33 0.31 0.28 0.24 0.21
0.16 0.32 0.28 0.32 0.29 0.33 0.37 0.33 0.34 0.35 0.43 0.59 0.89 1.28 1.50 1.72 1.84 1.78 1.80 1.73 1.65 1.51 1.34 1.17 1.03 0.94 0.84 0.68 0.56 0.52 0.50 0.46 0.43 0.45 0.44 0.40 0.36 0.33 0.29 0.26 0.23 0.22 0.21 0.21
0.20 0.29 0.40 0.42 0.29 0.44 0.72 0.54 0.46 0.50 0.58 0.77 1.07 1.28 1.25 1.30 1.49 1.60 1.65 1.63 1.64 1.59 1.51 1.38 1.26 1.16 1.03 0.86 0.74 0.68 0.64 0.55 0.50 0.51 0.46 0.42 0.38 0.33 0.25 0.20 0.21 0.21 0.22 0.22
0.21 0.34 0.40 0.46 0.54 0.94 0.94 0.61 0.56 0.62 0.71 0.69 0.82 0.90 0.98 1.03 1.14 1.25 1.35 1.51 1.66 1.67 1.57 1.46 1.32 1.21 1.13 0.99 0.85 0.72 0.61 0.51 0.50 0.50 0.44 0.37 0.35 0.31 0.26 0.22 0.23 0.21 0.22 0.23
0.14 0.31 0.47 0.59 0.84 1.08 0.97 0.65 0.65 0.90 1.02 0.69 0.63 0.66 0.69 0.74 0.88 1.19 1.31 1.44 1.61 1.61 1.54 1.47 1.32 1.21 1.14 1.00 0.83 0.69 0.63 0.56 0.52 0.45 0.37 0.31 0.28 0.27 0.24 0.22 0.21 0.20 0.22 0.23
0.14 0.24 0.50 0.70 1.02 1.32 1.25 0.61 0.43 0.77 1.29 0.83 0.65 0.65 0.72 0.84 1.02 1.08 1.00 1.04 1.26 1.44 1.53 1.48 1.29 1.11 0.99 0.82 0.66 0.60 0.58 0.53 0.47 0.35 0.26 0.24 0.24 0.23 0.20 0.18 0.18 0.18 0.20 0.23
0.37 0.43 0.61 0.80 1.13 1.27 0.72 0.40 0.50 1.06 1.26 0.99 0.83 0.78 0.86 1.04 1.09 0.88 0.79 0.88 1.03 1.19 1.29 1.24 1.12 0.99 0.81 0.64 0.56 0.55 0.47 0.41 0.32 0.24 0.21 0.22 0.24 0.24 0.21 0.20 0.21 0.21 0.21 0.26
0.50 0.69 0.81 0.95 1.23 1.24 0.50 0.37 0.67 0.82 0.70 0.69 0.65 0.60 0.63 0.63 0.61 0.61 0.69 0.82 0.95 1.02 1.03 0.98 0.93 0.83 0.69 0.58 0.57 0.56 0.50 0.39 0.31 0.30 0.28 0.26 0.24 0.15 0.13 0.23 0.25 0.22 0.26 0.29
0.41 0.57 0.75 0.94 1.09 0.87 0.45 0.36 0.38 0.44 0.50 0.48 0.48 0.43 0.46 0.48 0.51 0.52 0.58 0.69 0.78 0.81 0.78 0.72 0.63 0.61 0.57 0.54 0.55 0.55 0.48 0.36 0.36 0.41 0.38 0.30 0.24 0.20 0.17 0.21 0.23 0.24 0.26 0.24
0.44 0.32 0.46 0.67 0.67 0.56 0.42 0.35 0.29 0.27 0.32 0.32 0.32 0.36 0.43 0.48 0.47 0.45 0.46 0.50 0.56 0.58 0.57 0.57 0.54 0.54 0.49 0.45 0.43 0.45 0.39 0.35 0.43 0.47 0.40 0.33 0.29 0.24 0.20 0.18 0.15 0.18 0.18 0.18
0.47 0.54 0.71 0.82 0.68 0.59 0.51 0.40 0.31 0.26 0.24 0.24 0.27 0.32 0.35 0.37 0.36 0.34 0.35 0.36 0.37 0.38 0.43 0.46 0.44 0.41 0.35 0.31 0.29 0.27 0.26 0.29 0.41 0.44 0.38 0.33 0.25 0.22 0.23 0.17 0.08 0.06 0.07 0.05
0.36 0.65 1.07 0.90 0.72 0.73 0.62 0.45 0.36 0.35 0.36 0.34 0.28 0.26 0.27 0.27 0.26 0.26 0.29 0.32 0.31 0.30 0.32 0.34 0.33 0.28 0.24 0.22 0.23 0.20 0.16 0.18 0.28 0.33 0.31 0.25 0.20 0.19 0.17 0.17 0.13 0.04 0.01 0.01

GEFSCGP_prec_meanprecacc_168.txt.gz
Total_Precipitation_Accumulation
0.00 0.00 0.01 0.01 0.01 0.01 0.02 0.02 0.03 0.04 0.05 0.08 0.17 0.32 0.45 0.51 0.58 0.66 0.75 0.75 0.94 0.99 1.19 1.57 1.93 2.20 2.48 2.43 2.45 2.37 2.40 2.58 2.65 2.79 2.91 3.15 3.13 3.11 3.37 3.64 3.77 3.95 4.02 3.85
0.00 0.00 0.01 0.01 0.01 0.01 0.02 0.02 0.05 0.08 0.09 0.14 0.25 0.40 0.55 0.62 0.62 0.75 0.90 0.94 1.24 1.35 1.38 1.53 1.86 2.20 2.45 2.51 2.51 2.55 2.70 2.74 2.83 3.18 3.63 4.03 4.33 4.46 4.53 4.73 4.74 4.62 4.46 4.33
0.00 0.00 0.00 0.00 0.01 0.02 0.03 0.03 0.05 0.09 0.14 0.21 0.32 0.60 0.70 0.67 0.69 0.86 1.05 1.11 1.30 1.47 1.58 1.46 1.51 1.71 2.05 2.31 2.49 2.56 2.84 3.19 3.54 4.01 4.54 4.96 5.31 5.48 5.35 5.17 5.04 4.81 4.59 4.40
0.00 0.01 0.00 0.00 0.01 0.02 0.03 0.03 0.04 0.07 0.14 0.28 0.32 0.63 0.78 0.76 0.86 0.96 1.04 1.04 1.19 1.24 1.33 1.40 1.41 1.51 1.77 2.02 2.30 2.62 2.91 3.47 4.21 4.86 5.41 5.87 6.04 6.00 5.83 5.55 5.16 4.76 4.42 4.10
0.01 0.01 0.01 0.01 0.01 0.01 0.01 0.02 0.03 0.07 0.10 0.21 0.26 0.52 0.82 0.88 0.94 1.02 1.15 1.09 1.09 1.15 1.14 1.19 1.26 1.39 1.63 1.85 2.15 2.55 2.96 3.62 4.27 4.89 5.45 5.87 6.04 5.92 5.63 5.17 4.68 4.19 3.72 3.35
0.01 0.01 0.00 0.00 0.00 0.00 0.00 0.02 0.04 0.09 0.13 0.26 0.23 0.42 0.89 1.11 1.18 1.32 1.31 1.37 1.40 1.25 1.17 1.16 1.15 1.21 1.35 1.61 1.93 2.33 2.76 3.26 3.76 4.15 4.67 4.99 5.15 5.08 4.76 4.27 3.67 3.20 2.88 2.60
0.02 0.02 0.01 0.00 0.00 0.00 0.00 0.03 0.13 0.22 0.25 0.30 0.24 0.46 0.99 1.27 1.29 1.38 1.37 1.47 1.52 1.36 1.24 1.15 1.11 1.10 1.20 1.42 1.74 1.99 2.21 2.60 2.87 3.21 3.60 3.82 3.83 3.68 3.47 3.21 2.92 2.50 2.14 1.84
0.08 0.05 0.02 0.01 0.01 0.01 0.01 0.03 0.18 0.37 0.34 0.36 0.45 0.81 1.25 1.28 1.17 1.20 1.26 1.26 1.25 1.11 1.09 1.14 1.17 1.15 1.23 1.27 1.43 1.60 1.71 1.89 2.01 2.14 2.34 2.37 2.33 2.26 2.24 2.09 1.87 1.63 1.36 1.10
0.15 0.09 0.03 0.01 0.01 0.01 0.01 0.04 0.09 0.16 0.22 0.40 0.76 1.23 1.54 1.41 1.32 1.22 1.11 0.96 1.03 1.00 0.98 1.04 1.08 1.13 1.18 1.18 1.17 1.16 1.16 1.20 1.20 1.22 1.34 1.39 1.38 1.35 1.31 1.20 1.07 0.96 0.87 0.76
0.13 0.11 0.05 0.03 0.02 0.02 0.03 0.05 0.07 0.14 0.38 0.56 0.84 1.27 1.72 1.80 1.75 1.67 1.39 1.09 1.07 1.06 1.03 0.93 0.86 0.91 0.98 0.95 0.90 0.85 0.85 0.85 0.79 0.73 0.75 0.79 0.83 0.80 0.76 0.72 0.67 0.63 0.59 0.54
0.10 0.11 0.09 0.06 0.06 0.07 0.05 0.06 0.08 0.16 0.28 0.55 1.00 1.53 1.64 1.87 1.89 1.75 1.48 1.22 1.19 1.14 1.06 0.99 0.98 0.90 0.87 0.86 0.84 0.80 0.78 0.75 0.69 0.64 0.63 0.59 0.55 0.52 0.47 0.44 0.43 0.40 0.37 0.35
0.11 0.15 0.14 0.11 0.10 0.08 0.08 0.08 0.10 0.23 0.28 0.39 0.86 1.63 1.74 1.91 1.93 1.80 1.75 1.54 1.35 1.26 1.14 1.07 1.04 0.91 0.82 0.78 0.79 0.79 0.72 0.65 0.60 0.55 0.51 0.46 0.41 0.38 0.36 0.34 0.31 0.28 0.27 0.26
0.11 0.24 0.34 0.45 0.35 0.17 0.11 0.10 0.13 0.15 0.25 0.47 0.87 1.63 1.86 1.92 1.83 1.75 1.63 1.57 1.62 1.61 1.44 1.23 1.08 0.91 0.76 0.67 0.65 0.66 0.64 0.59 0.53 0.52 0.51 0.47 0.41 0.36 0.35 0.33 0.29 0.25 0.24 0.23
0.11 0.25 0.47 0.85 0.67 0.30 0.17 0.14 0.17 0.20 0.40 0.62 0.84 1.33 1.61 1.79 1.87 1.91 1.83 1.79 1.77 1.52 1.16 0.94 0.86 0.79 0.70 0.65 0.61 0.55 0.53 0.52 0.49 0.50 0.53 0.54 0.52 0.45 0.40 0.36 0.33 0.27 0.23 0.21
0.14 0.28 0.30 0.36 0.33 0.23 0.21 0.19 0.22 0.26 0.29 0.53 0.83 1.24 1.61 1.76 1.85 1.86 1.92 1.84 1.59 1.33 1.12 0.95 0.85 0.82 0.75 0.66 0.57 0.49 0.45 0.42 0.42 0.46 0.48 0.49 0.47 0.46 0.41 0.36 0.34 0.30 0.26 0.24
0.17 0.32 0.28 0.32 0.30 0.33 0.37 0.33 0.34 0.35 0.43 0.60 0.91 1.33 1.54 1.75 1.87 1.79 1.81 1.73 1.66 1.52 1.35 1.18 1.04 0.96 0.86 0.71 0.59 0.55 0.54 0.50 0.47 0.48 0.48 0.43 0.38 0.36 0.33 0.31 0.27 0.24 0.24 0.24
0.23 0.31 0.41 0.43 0.30 0.45 0.73 0.54 0.46 0.50 0.58 0.78 1.09 1.32 1.29 1.35 1.53 1.62 1.66 1.63 1.65 1.60 1.52 1.39 1.27 1.17 1.05 0.90 0.78 0.72 0.68 0.58 0.54 0.55 0.50 0.45 0.41 0.36 0.29 0.25 0.25 0.24 0.25 0.25
0.24 0.37 0.43 0.48 0.57 0.99 0.97 0.62 0.57 0.63 0.72 0.70 0.83 0.92 1.01 1.08 1.18 1.27 1.36 1.52 1.68 1.68 1.58 1.48 1.34 1.23 1.16 1.04 0.90 0.76 0.64 0.55 0.54 0.55 0.48 0.42 0.40 0.36 0.30 0.28 0.29 0.25 0.25 0.26
0.16 0.34 0.51 0.64 0.91 1.14 1.00 0.66 0.65 0.91 1.04 0.69 0.64 0.69 0.71 0.76 0.89 1.21 1.35 1.49 1.63 1.63 1.56 1.48 1.34 1.23 1.18 1.05 0.87 0.72 0.66 0.59 0.56 0.50 0.43 0.38 0.35 0.34 0.30 0.28 0.27 0.24 0.25 0.26
0.15 0.27 0.56 0.77 1.10 1.41 1.31 0.63 0.43 0.79 1.35 0.84 0.65 0.66 0.74 0.87 1.06 1.12 1.05 1.10 1.30 1.46 1.55 1.49 1.30 1.13 1.03 0.86 0.70 0.63 0.60 0.56 0.51 0.40 0.33 0.31 0.32 0.30 0.26 0.23 0.23 0.22 0.24 0.26
0.39 0.47 0.66 0.87 1.19 1.33 0.74 0.41 0.51 1.11 1.32 1.00 0.83 0.79 0.89 1.07 1.12 0.91 0.81 0.91 1.05 1.20 1.30 1.25 1.13 1.00 0.83 0.66 0.59 0.58 0.50 0.44 0.36 0.28 0.26 0.27 0.29 0.29 0.25 0.24 0.25 0.25 0.25 0.29
0.54 0.72 0.84 1.01 1.31 1.31 0.51 0.38 0.69 0.87 0.73 0.70 0.66 0.61 0.66 0.66 0.63 0.63 0.71 0.85 0.97 1.04 1.04 0.99 0.94 0.84 0.70 0.60 0.59 0.59 0.53 0.42 0.33 0.32 0.30 0.29 0.29 0.19 0.17 0.27 0.29 0.26 0.30 0.33
0.44 0.60 0.79 0.99 1.15 0.90 0.46 0.36 0.39 0.45 0.52 0.51 0.51 0.46 0.49 0.51 0.54 0.55 0.60 0.72 0.80 0.82 0.79 0.73 0.64 0.62 0.59 0.55 0.57 0.58 0.52 0.39 0.38 0.43 0.42 0.35 0.29 0.25 0.20 0.23 0.26 0.26 0.28 0.26
0.46 0.33 0.48 0.69 0.69 0.57 0.43 0.35 0.29 0.29 0.35 0.34 0.35 0.38 0.45 0.52 0.52 0.49 0.50 0.53 0.58 0.60 0.59 0.58 0.55 0.55 0.51 0.47 0.45 0.48 0.42 0.38 0.46 0.50 0.45 0.38 0.35 0.31 0.26 0.23 0.18 0.21 0.20 0.19
0.50 0.55 0.73 0.86 0.70 0.60 0.52 0.41 0.32 0.28 0.26 0.25 0.29 0.33 0.37 0.39 0.40 0.38 0.39 0.40 0.39 0.40 0.44 0.47 0.45 0.42 0.37 0.33 0.32 0.30 0.29 0.32 0.45 0.49 0.43 0.37 0.29 0.27 0.29 0.23 0.13 0.11 0.09 0.06
0.37 0.66 1.09 0.95 0.74 0.74 0.63 0.46 0.37 0.36 0.37 0.36 0.29 0.27 0.28 0.29 0.29 0.29 0.32 0.34 0.32 0.30 0.33 0.36 0.35 0.30 0.27 0.24 0.25 0.22 0.19 0.21 0.31 0.37 0.34 0.28 0.22 0.21 0.20 0.20 0.17 0.08 0.05 0.04

GEFSCGP_prec_meanprecacc_174.txt.gz
Total_Precipitation_Accumulation
0.00 0.00 0.01 0.01 0.01 0.02 0.02 0.02 0.04 0.05 0.07 0.14 0.23 0.38 0.55 0.62 0.69 0.76 0.86 0.87 1.07 1.16 1.36 1.70 2.09 2.38 2.67 2.60 2.58 2.45 2.48 2.66 2.71 2.84 2.96 3.21 3.19 3.17 3.43 3.69 3.81 3.98 4.04 3.87
0.00 0.00 0.01 0.01 0.01 0.02 0.02 0.03 0.06 0.11 0.14 0.22 0.33 0.46 0.62 0.72 0.69 0.83 0.99 1.01 1.33 1.50 1.56 1.80 2.16 2.44 2.67 2.71 2.66 2.64 2.77 2.81 2.90 3.23 3.68 4.09 4.40 4.56 4.62 4.80 4.80 4.67 4.50 4.36
0.00 0.00 0.00 0.00 0.01 0.02 0.03 0.04 0.07 0.13 0.20 0.27 0.40 0.70 0.79 0.75 0.76 0.93 1.14 1.18 1.37 1.62 1.79 1.72 1.77 1.93 2.24 2.49 2.64 2.67 2.92 3.25 3.60 4.07 4.60 5.02 5.37 5.54 5.40 5.21 5.09 4.87 4.64 4.43
0.01 0.01 0.00 0.00 0.01 0.02 0.04 0.04 0.05 0.08 0.17 0.33 0.38 0.71 0.85 0.85 0.96 1.06 1.17 1.12 1.26 1.33 1.51 1.65 1.62 1.69 1.95 2.20 2.47 2.74 2.99 3.54 4.27 4.91 5.47 5.93 6.09 6.06 5.89 5.61 5.22 4.80 4.44 4.12
0.01 0.01 0.01 0.01 0.01 0.01 0.02 0.02 0.04 0.08 0.11 0.24 0.30 0.58 0.87 0.93 1.01 1.10 1.27 1.18 1.16 1.21 1.25 1.35 1.43 1.54 1.75 1.97 2.28 2.65 3.04 3.68 4.33 4.94 5.50 5.91 6.09 5.98 5.69 5.23 4.73 4.23 3.75 3.38
0.01 0.01 0.00 0.00 0.00 0.00 0.01 0.02 0.05 0.10 0.14 0.29 0.28 0.46 0.93 1.15 1.23 1.37 1.36 1.42 1.49 1.35 1.26 1.25 1.25 1.30 1.44 1.69 2.00 2.40 2.82 3.31 3.80 4.19 4.71 5.02 5.19 5.12 4.80 4.31 3.71 3.25 2.93 2.63
0.03 0.02 0.01 0.00 0.00 0.01 0.01 0.04 0.14 0.23 0.27 0.33 0.27 0.49 1.03 1.30 1.32 1.42 1.40 1.50 1.58 1.46 1.35 1.26 1.20 1.17 1.26 1.47 1.79 2.03 2.27 2.64 2.90 3.23 3.62 3.85 3.86 3.71 3.49 3.24 2.94 2.52 2.15 1.86
0.08 0.06 0.02 0.01 0.01 0.01 0.01 0.03 0.19 0.39 0.37 0.39 0.48 0.85 1.29 1.32 1.21 1.23 1.28 1.29 1.30 1.19 1.19 1.22 1.23 1.21 1.27 1.32 1.46 1.63 1.74 1.91 2.03 2.17 2.36 2.40 2.37 2.29 2.25 2.10 1.88 1.64 1.37 1.11
0.15 0.10 0.03 0.01 0.01 0.01 0.01 0.04 0.09 0.17 0.25 0.45 0.82 1.30 1.62 1.46 1.38 1.29 1.15 1.00 1.08 1.07 1.05 1.11 1.15 1.20 1.24 1.23 1.22 1.20 1.20 1.24 1.24 1.26 1.38 1.43 1.41 1.38 1.33 1.21 1.08 0.96 0.87 0.76
0.13 0.11 0.05 0.03 0.02 0.02 0.03 0.05 0.08 0.15 0.43 0.62 0.89 1.34 1.84 1.89 1.83 1.75 1.45 1.15 1.12 1.12 1.15 1.02 0.94 0.99 1.06 1.02 0.98 0.92 0.91 0.90 0.83 0.77 0.79 0.83 0.87 0.83 0.79 0.74 0.69 0.64 0.60 0.54
0.11 0.11 0.09 0.06 0.07 0.07 0.06 0.07 0.09 0.17 0.30 0.60 1.06 1.60 1.71 1.95 2.01 1.85 1.57 1.28 1.24 1.20 1.16 1.09 1.08 1.00 0.99 0.95 0.91 0.85 0.81 0.78 0.73 0.69 0.68 0.63 0.58 0.55 0.50 0.47 0.44 0.41 0.38 0.35
0.12 0.16 0.15 0.11 0.10 0.08 0.09 0.09 0.11 0.25 0.30 0.43 0.93 1.70 1.78 1.99 2.07 1.91 1.85 1.64 1.42 1.33 1.24 1.18 1.17 1.06 0.95 0.86 0.83 0.82 0.74 0.67 0.64 0.60 0.56 0.52 0.47 0.43 0.40 0.37 0.33 0.29 0.27 0.26
0.12 0.25 0.36 0.46 0.36 0.17 0.12 0.10 0.14 0.16 0.27 0.50 0.92 1.71 1.90 1.98 1.90 1.82 1.70 1.64 1.68 1.68 1.55 1.34 1.17 0.98 0.82 0.71 0.68 0.68 0.66 0.61 0.56 0.55 0.55 0.53 0.46 0.41 0.39 0.36 0.32 0.27 0.26 0.25
0.12 0.26 0.49 0.87 0.69 0.31 0.17 0.15 0.18 0.21 0.42 0.65 0.87 1.37 1.67 1.86 1.94 1.98 1.89 1.84 1.81 1.57 1.21 0.99 0.91 0.83 0.74 0.69 0.64 0.58 0.55 0.54 0.52 0.53 0.56 0.57 0.56 0.49 0.44 0.39 0.36 0.30 0.26 0.23
0.15 0.29 0.31 0.37 0.34 0.24 0.22 0.21 0.24 0.30 0.34 0.58 0.85 1.27 1.65 1.81 1.91 1.93 1.98 1.88 1.62 1.36 1.14 0.97 0.89 0.84 0.77 0.68 0.59 0.51 0.48 0.46 0.46 0.49 0.50 0.50 0.49 0.48 0.43 0.39 0.36 0.32 0.27 0.24
0.18 0.35 0.32 0.34 0.31 0.35 0.39 0.35 0.36 0.37 0.46 0.63 0.94 1.36 1.60 1.83 1.92 1.85 1.87 1.78 1.69 1.54 1.36 1.19 1.06 0.97 0.88 0.73 0.62 0.58 0.56 0.54 0.51 0.52 0.50 0.44 0.40 0.38 0.35 0.33 0.28 0.25 0.25 0.24
0.24 0.34 0.46 0.45 0.31 0.47 0.76 0.56 0.48 0.52 0.60 0.80 1.11 1.35 1.33 1.42 1.59 1.69 1.72 1.68 1.68 1.62 1.53 1.40 1.28 1.18 1.06 0.91 0.81 0.76 0.73 0.64 0.59 0.59 0.54 0.48 0.43 0.39 0.33 0.28 0.28 0.26 0.26 0.25
0.25 0.40 0.47 0.52 0.60 1.03 1.00 0.65 0.59 0.65 0.74 0.71 0.85 0.95 1.04 1.11 1.21 1.33 1.41 1.57 1.71 1.70 1.59 1.49 1.35 1.24 1.17 1.05 0.92 0.80 0.69 0.62 0.59 0.59 0.54 0.47 0.44 0.41 0.35 0.33 0.34 0.29 0.27 0.28
0.18 0.39 0.57 0.68 0.96 1.19 1.04 0.69 0.68 0.94 1.09 0.73 0.67 0.72 0.74 0.79 0.94 1.26 1.38 1.53 1.67 1.65 1.57 1.50 1.35 1.25 1.19 1.06 0.89 0.75 0.69 0.62 0.59 0.53 0.47 0.43 0.41 0.41 0.38 0.35 0.34 0.30 0.29 0.29
0.17 0.30 0.61 0.81 1.16 1.46 1.34 0.65 0.46 0.82 1.39 0.88 0.69 0.73 0.78 0.92 1.12 1.17 1.09 1.15 1.35 1.50 1.57 1.51 1.32 1.14 1.04 0.88 0.72 0.65 0.63 0.58 0.53 0.42 0.35 0.35 0.37 0.36 0.32 0.31 0.32 0.29 0.28 0.28
0.43 0.51 0.70 0.93 1.27 1.38 0.77 0.43 0.53 1.14 1.36 1.05 0.87 0.84 0.93 1.11 1.15 0.94 0.85 0.95 1.10 1.25 1.34 1.27 1.15 1.02 0.85 0.68 0.61 0.60 0.52 0.46 0.38 0.31 0.29 0.31 0.34 0.35 0.31 0.30 0.33 0.32 0.29 0.32
0.59 0.79 0.90 1.06 1.36 1.35 0.53 0.40 0.71 0.89 0.75 0.73 0.69 0.65 0.70 0.69 0.67 0.67 0.74 0.88 1.01 1.09 1.07 1.03 0.98 0.87 0.73 0.62 0.61 0.61 0.55 0.43 0.34 0.34 0.32 0.32 0.32 0.24 0.21 0.30 0.33 0.31 0.34 0.35
0.48 0.66 0.84 1.03 1.19 0.92 0.48 0.39 0.41 0.49 0.55 0.53 0.53 0.49 0.53 0.57 0.58 0.58 0.64 0.76 0.86 0.89 0.85 0.77 0.68 0.66 0.62 0.59 0.59 0.60 0.53 0.40 0.39 0.45 0.43 0.37 0.32 0.27 0.23 0.26 0.28 0.29 0.30 0.29
0.51 0.38 0.52 0.74 0.72 0.58 0.45 0.39 0.33 0.31 0.37 0.36 0.37 0.40 0.48 0.56 0.58 0.57 0.55 0.58 0.63 0.67 0.67 0.64 0.59 0.60 0.56 0.50 0.47 0.49 0.44 0.39 0.47 0.52 0.47 0.39 0.36 0.33 0.28 0.25 0.20 0.23 0.22 0.21
0.55 0.61 0.80 0.93 0.74 0.66 0.58 0.44 0.35 0.30 0.28 0.27 0.31 0.35 0.39 0.41 0.43 0.41 0.42 0.43 0.44 0.45 0.51 0.53 0.51 0.47 0.42 0.36 0.34 0.31 0.31 0.33 0.47 0.50 0.45 0.38 0.30 0.28 0.30 0.24 0.14 0.13 0.12 0.09
0.42 0.71 1.15 1.00 0.78 0.79 0.66 0.48 0.40 0.39 0.41 0.39 0.32 0.29 0.29 0.31 0.32 0.31 0.34 0.37 0.36 0.36 0.40 0.41 0.40 0.35 0.30 0.27 0.27 0.24 0.22 0.24 0.34 0.39 0.36 0.30 0.23 0.22 0.21 0.21 0.18 0.10 0.07 0.06

GEFSCGP_prec_meanprecacc_180.txt.gz
Total_Precipitation_Accumulation
0.00 0.00 0.01 0.01 0.01 0.02 0.02 0.03 0.04 0.06 0.08 0.16 0.26 0.41 0.57 0.65 0.73 0.81 0.92 0.94 1.17 1.24 1.44 1.81 2.24 2.53 2.81 2.72 2.71 2.60 2.66 2.86 2.89 2.99 3.11 3.34 3.29 3.25 3.49 3.74 3.85 4.02 4.09 3.92
0.00 0.00 0.01 0.01 0.01 0.02 0.02 0.03 0.06 0.12 0.15 0.23 0.35 0.47 0.64 0.75 0.73 0.89 1.05 1.07 1.41 1.59 1.64 1.88 2.29 2.56 2.78 2.86 2.82 2.83 2.99 3.01 3.08 3.38 3.82 4.21 4.49 4.61 4.66 4.83 4.82 4.70 4.54 4.42
0.00 0.01 0.00 0.00 0.01 0.02 0.03 0.04 0.07 0.13 0.21 0.29 0.42 0.72 0.82 0.77 0.79 0.97 1.18 1.21 1.42 1.70 1.87 1.79 1.86 2.03 2.36 2.64 2.82 2.88 3.17 3.48 3.80 4.23 4.71 5.10 5.44 5.61 5.45 5.24 5.12 4.91 4.68 4.50
0.01 0.01 0.01 0.00 0.01 0.02 0.04 0.04 0.06 0.09 0.18 0.34 0.40 0.73 0.87 0.87 0.99 1.09 1.21 1.14 1.29 1.38 1.59 1.75 1.75 1.83 2.07 2.34 2.66 2.94 3.21 3.74 4.46 5.07 5.58 6.01 6.16 6.11 5.94 5.65 5.26 4.83 4.47 4.15
0.01 0.01 0.01 0.01 0.01 0.01 0.02 0.03 0.05 0.09 0.12 0.25 0.31 0.59 0.88 0.95 1.03 1.15 1.32 1.21 1.19 1.25 1.30 1.43 1.54 1.66 1.89 2.14 2.45 2.80 3.16 3.79 4.44 5.05 5.60 5.99 6.15 6.03 5.73 5.27 4.77 4.27 3.80 3.42
0.01 0.01 0.01 0.00 0.00 0.00 0.01 0.03 0.06 0.10 0.15 0.30 0.29 0.47 0.95 1.16 1.24 1.40 1.40 1.45 1.52 1.40 1.31 1.31 1.32 1.39 1.53 1.78 2.09 2.50 2.94 3.43 3.91 4.28 4.78 5.08 5.24 5.17 4.83 4.34 3.73 3.28 2.95 2.65
0.03 0.02 0.01 0.00 0.00 0.01 0.01 0.04 0.14 0.24 0.27 0.33 0.28 0.50 1.04 1.31 1.33 1.43 1.41 1.52 1.61 1.50 1.39 1.31 1.27 1.26 1.34 1.55 1.87 2.13 2.38 2.77 3.03 3.32 3.69 3.90 3.90 3.74 3.51 3.26 2.96 2.54 2.16 1.87
0.08 0.06 0.02 0.01 0.01 0.01 0.01 0.03 0.19 0.39 0.37 0.39 0.49 0.86 1.30 1.33 1.23 1.25 1.30 1.30 1.33 1.22 1.22 1.26 1.28 1.26 1.34 1.38 1.53 1.71 1.83 2.01 2.14 2.24 2.42 2.44 2.40 2.31 2.28 2.12 1.90 1.65 1.38 1.12
0.15 0.10 0.04 0.01 0.01 0.01 0.01 0.04 0.10 0.18 0.25 0.45 0.82 1.30 1.63 1.48 1.40 1.31 1.16 1.02 1.11 1.10 1.08 1.14 1.19 1.23 1.27 1.27 1.26 1.27 1.28 1.31 1.30 1.31 1.41 1.46 1.44 1.40 1.35 1.24 1.11 0.99 0.88 0.77
0.13 0.11 0.06 0.03 0.02 0.03 0.03 0.06 0.08 0.16 0.43 0.62 0.89 1.34 1.84 1.90 1.85 1.77 1.47 1.16 1.14 1.15 1.18 1.05 0.97 1.02 1.10 1.07 1.04 0.99 0.99 0.97 0.89 0.81 0.83 0.87 0.90 0.86 0.81 0.76 0.72 0.67 0.62 0.57
0.12 0.11 0.09 0.06 0.07 0.08 0.06 0.07 0.10 0.18 0.32 0.62 1.08 1.62 1.72 1.97 2.02 1.87 1.59 1.30 1.26 1.22 1.18 1.12 1.12 1.05 1.06 1.04 1.00 0.94 0.91 0.87 0.80 0.74 0.72 0.67 0.61 0.58 0.53 0.49 0.46 0.43 0.40 0.38
0.13 0.16 0.15 0.11 0.10 0.09 0.10 0.10 0.12 0.26 0.31 0.44 0.95 1.72 1.79 2.01 2.10 1.94 1.89 1.67 1.46 1.37 1.27 1.22 1.21 1.10 1.02 0.95 0.93 0.91 0.83 0.75 0.70 0.67 0.62 0.57 0.50 0.46 0.43 0.40 0.35 0.31 0.30 0.28
0.13 0.26 0.37 0.47 0.36 0.18 0.12 0.11 0.15 0.17 0.27 0.51 0.92 1.71 1.91 2.00 1.93 1.86 1.74 1.69 1.74 1.72 1.58 1.37 1.20 1.02 0.87 0.77 0.74 0.75 0.74 0.68 0.64 0.63 0.62 0.58 0.50 0.44 0.41 0.39 0.34 0.30 0.29 0.28
0.13 0.27 0.49 0.88 0.69 0.31 0.18 0.16 0.19 0.22 0.42 0.66 0.88 1.38 1.68 1.88 1.97 2.03 1.93 1.87 1.84 1.60 1.24 1.02 0.94 0.86 0.78 0.72 0.68 0.63 0.62 0.60 0.58 0.61 0.63 0.62 0.59 0.52 0.46 0.41 0.38 0.32 0.28 0.25
0.16 0.30 0.32 0.38 0.35 0.25 0.23 0.21 0.25 0.31 0.35 0.59 0.86 1.28 1.67 1.84 1.95 1.97 2.02 1.92 1.65 1.38 1.17 1.00 0.93 0.88 0.80 0.70 0.61 0.54 0.52 0.50 0.51 0.55 0.55 0.55 0.53 0.51 0.45 0.40 0.37 0.33 0.28 0.26
0.19 0.36 0.33 0.35 0.32 0.36 0.39 0.35 0.37 0.37 0.46 0.64 0.94 1.37 1.60 1.85 1.95 1.88 1.89 1.80 1.71 1.56 1.38 1.22 1.10 1.00 0.89 0.75 0.64 0.60 0.59 0.58 0.56 0.56 0.55 0.49 0.45 0.42 0.37 0.34 0.29 0.26 0.26 0.26
0.25 0.36 0.47 0.46 0.32 0.48 0.77 0.58 0.49 0.53 0.61 0.80 1.12 1.36 1.34 1.43 1.61 1.71 1.74 1.70 1.70 1.63 1.55 1.43 1.31 1.22 1.08 0.94 0.83 0.78 0.75 0.68 0.63 0.64 0.58 0.53 0.48 0.44 0.35 0.30 0.30 0.27 0.28 0.27
0.26 0.41 0.48 0.53 0.61 1.04 1.02 0.67 0.61 0.66 0.75 0.72 0.86 0.95 1.05 1.12 1.23 1.35 1.42 1.58 1.72 1.71 1.61 1.51 1.37 1.27 1.20 1.09 0.95 0.83 0.72 0.65 0.64 0.63 0.58 0.52 0.48 0.45 0.38 0.35 0.36 0.31 0.29 0.30
0.19 0.39 0.58 0.70 0.98 1.20 1.05 0.70 0.70 0.95 1.10 0.73 0.68 0.72 0.75 0.80 0.95 1.27 1.39 1.54 1.68 1.66 1.59 1.51 1.37 1.28 1.22 1.10 0.93 0.79 0.72 0.64 0.62 0.56 0.50 0.47 0.44 0.45 0.42 0.39 0.38 0.34 0.32 0.32
0.18 0.32 0.63 0.84 1.19 1.47 1.36 0.67 0.48 0.83 1.41 0.89 0.70 0.73 0.79 0.93 1.13 1.18 1.10 1.15 1.36 1.52 1.59 1.53 1.35 1.17 1.07 0.91 0.75 0.68 0.65 0.61 0.55 0.45 0.39 0.38 0.41 0.41 0.36 0.35 0.38 0.36 0.35 0.35
0.44 0.53 0.72 0.95 1.29 1.40 0.79 0.45 0.56 1.17 1.37 1.05 0.87 0.84 0.94 1.12 1.16 0.95 0.86 0.97 1.11 1.29 1.37 1.30 1.18 1.05 0.87 0.70 0.63 0.62 0.55 0.49 0.40 0.34 0.32 0.35 0.39 0.40 0.35 0.34 0.37 0.37 0.36 0.38
0.60 0.81 0.93 1.09 1.39 1.37 0.55 0.43 0.75 0.91 0.76 0.74 0.70 0.66 0.71 0.71 0.68 0.68 0.76 0.89 1.02 1.13 1.11 1.05 1.00 0.90 0.75 0.64 0.63 0.64 0.58 0.46 0.38 0.37 0.37 0.37 0.37 0.29 0.26 0.35 0.37 0.34 0.38 0.40
0.50 0.69 0.88 1.07 1.21 0.94 0.49 0.41 0.43 0.50 0.56 0.54 0.55 0.51 0.55 0.58 0.60 0.61 0.66 0.77 0.87 0.92 0.88 0.79 0.70 0.69 0.65 0.62 0.63 0.64 0.57 0.45 0.43 0.49 0.47 0.42 0.39 0.36 0.32 0.34 0.34 0.32 0.34 0.32
0.52 0.40 0.55 0.76 0.74 0.60 0.47 0.41 0.35 0.33 0.38 0.37 0.39 0.42 0.50 0.58 0.60 0.58 0.57 0.59 0.64 0.69 0.69 0.67 0.61 0.61 0.58 0.54 0.52 0.54 0.48 0.44 0.50 0.55 0.50 0.43 0.42 0.40 0.34 0.30 0.24 0.25 0.24 0.22
0.56 0.63 0.83 0.97 0.76 0.68 0.60 0.46 0.36 0.32 0.29 0.28 0.33 0.36 0.41 0.43 0.45 0.43 0.44 0.46 0.46 0.47 0.53 0.55 0.53 0.50 0.45 0.42 0.40 0.37 0.36 0.39 0.51 0.53 0.47 0.41 0.33 0.31 0.33 0.27 0.17 0.15 0.14 0.10
0.43 0.73 1.18 1.03 0.80 0.81 0.68 0.50 0.41 0.40 0.42 0.41 0.34 0.30 0.30 0.32 0.33 0.33 0.37 0.40 0.39 0.39 0.43 0.44 0.43 0.40 0.36 0.33 0.35 0.32 0.29 0.29 0.38 0.42 0.38 0.31 0.25 0.24 0.22 0.22 0.19 0.11 0.07 0.07

GEFSCGP_prec_meanprecacc_186.txt.gz
Total_Precipitation_Accumulation
0.00 0.00 0.01 0.01 0.01 0.02 0.02 0.03 0.04 0.06 0.09 0.17 0.28 0.44 0.60 0.66 0.75 0.82 0.95 0.98 1.19 1.26 1.46 1.83 2.27 2.56 2.83 2.76 2.76 2.66 2.72 2.92 2.96 3.08 3.20 3.44 3.40 3.36 3.61 3.85 3.95 4.10 4.14 3.97
0.00 0.00 0.01 0.01 0.01 0.02 0.02 0.03 0.06 0.13 0.15 0.23 0.35 0.49 0.65 0.76 0.74 0.90 1.07 1.09 1.42 1.61 1.67 1.90 2.31 2.58 2.81 2.90 2.88 2.89 3.05 3.09 3.18 3.48 3.94 4.34 4.61 4.71 4.76 4.92 4.90 4.77 4.60 4.47
0.00 0.01 0.01 0.01 0.01 0.02 0.03 0.05 0.07 0.14 0.21 0.29 0.43 0.73 0.82 0.78 0.80 0.98 1.20 1.23 1.44 1.71 1.89 1.81 1.89 2.07 2.40 2.70 2.87 2.93 3.24 3.57 3.90 4.35 4.84 5.21 5.53 5.68 5.50 5.30 5.18 4.95 4.73 4.54
0.01 0.01 0.01 0.01 0.01 0.03 0.04 0.04 0.06 0.09 0.19 0.36 0.41 0.74 0.88 0.89 1.00 1.10 1.22 1.15 1.30 1.39 1.60 1.77 1.78 1.88 2.13 2.41 2.70 2.98 3.26 3.82 4.55 5.17 5.66 6.09 6.22 6.16 5.97 5.69 5.30 4.86 4.50 4.19
0.01 0.01 0.01 0.01 0.01 0.01 0.02 0.03 0.06 0.09 0.12 0.26 0.32 0.60 0.89 0.96 1.04 1.16 1.33 1.22 1.19 1.26 1.31 1.45 1.57 1.70 1.96 2.18 2.48 2.83 3.19 3.84 4.50 5.10 5.66 6.05 6.21 6.08 5.78 5.32 4.80 4.30 3.83 3.44
0.01 0.01 0.01 0.01 0.00 0.01 0.01 0.03 0.07 0.11 0.15 0.31 0.30 0.48 0.96 1.17 1.25 1.41 1.41 1.45 1.53 1.41 1.32 1.32 1.35 1.42 1.56 1.80 2.12 2.54 2.97 3.46 3.96 4.33 4.83 5.13 5.30 5.23 4.89 4.39 3.77 3.31 2.98 2.68
0.03 0.02 0.01 0.01 0.01 0.01 0.01 0.05 0.15 0.25 0.28 0.34 0.28 0.51 1.05 1.32 1.33 1.44 1.43 1.52 1.61 1.51 1.40 1.32 1.29 1.28 1.36 1.56 1.90 2.17 2.41 2.81 3.07 3.37 3.75 3.96 3.96 3.80 3.57 3.33 3.02 2.57 2.20 1.89
0.08 0.06 0.02 0.01 0.01 0.01 0.01 0.03 0.20 0.39 0.37 0.40 0.49 0.86 1.31 1.33 1.23 1.25 1.31 1.31 1.33 1.22 1.23 1.27 1.29 1.28 1.35 1.40 1.56 1.75 1.87 2.04 2.17 2.29 2.49 2.52 2.47 2.38 2.34 2.17 1.94 1.69 1.42 1.14
0.15 0.10 0.04 0.01 0.01 0.01 0.02 0.05 0.10 0.18 0.25 0.46 0.83 1.30 1.63 1.49 1.41 1.32 1.17 1.02 1.11 1.10 1.09 1.15 1.20 1.24 1.28 1.28 1.27 1.29 1.30 1.34 1.35 1.37 1.48 1.54 1.51 1.47 1.40 1.29 1.16 1.03 0.91 0.79
0.14 0.11 0.06 0.03 0.02 0.03 0.04 0.06 0.09 0.16 0.44 0.63 0.90 1.35 1.86 1.92 1.86 1.78 1.48 1.17 1.15 1.16 1.19 1.06 0.98 1.03 1.11 1.08 1.06 1.01 1.02 1.02 0.95 0.89 0.90 0.94 0.97 0.92 0.87 0.82 0.78 0.72 0.67 0.60
0.12 0.12 0.09 0.06 0.07 0.08 0.07 0.08 0.10 0.19 0.32 0.63 1.09 1.64 1.74 2.00 2.05 1.90 1.61 1.31 1.28 1.23 1.19 1.14 1.14 1.06 1.07 1.06 1.02 0.96 0.94 0.92 0.88 0.83 0.80 0.74 0.67 0.64 0.59 0.55 0.51 0.48 0.44 0.41
0.13 0.17 0.15 0.11 0.10 0.09 0.11 0.11 0.12 0.28 0.33 0.46 0.96 1.74 1.81 2.04 2.12 1.96 1.92 1.70 1.48 1.39 1.30 1.24 1.22 1.11 1.03 0.97 0.95 0.93 0.87 0.80 0.75 0.74 0.70 0.63 0.57 0.52 0.48 0.43 0.39 0.35 0.34 0.32
0.13 0.27 0.38 0.47 0.37 0.18 0.13 0.12 0.15 0.19 0.29 0.53 0.95 1.74 1.93 2.02 1.95 1.89 1.78 1.73 1.77 1.74 1.60 1.40 1.23 1.04 0.89 0.78 0.75 0.76 0.77 0.72 0.69 0.70 0.71 0.65 0.56 0.50 0.47 0.43 0.39 0.34 0.33 0.32
0.14 0.28 0.51 0.89 0.70 0.32 0.18 0.16 0.20 0.24 0.45 0.68 0.90 1.40 1.70 1.90 1.99 2.06 1.98 1.92 1.88 1.62 1.26 1.04 0.97 0.89 0.81 0.74 0.69 0.65 0.64 0.63 0.63 0.67 0.72 0.70 0.65 0.58 0.52 0.47 0.44 0.38 0.33 0.30
0.17 0.31 0.33 0.39 0.35 0.25 0.23 0.22 0.26 0.31 0.35 0.60 0.87 1.30 1.70 1.86 1.98 2.02 2.06 1.96 1.68 1.43 1.21 1.05 0.97 0.92 0.85 0.74 0.64 0.56 0.55 0.55 0.55 0.62 0.63 0.61 0.57 0.56 0.51 0.46 0.42 0.37 0.32 0.29
0.20 0.37 0.34 0.36 0.32 0.36 0.40 0.36 0.38 0.38 0.47 0.65 0.95 1.38 1.63 1.87 1.97 1.91 1.92 1.83 1.74 1.60 1.43 1.28 1.15 1.03 0.93 0.77 0.66 0.63 0.63 0.62 0.59 0.60 0.60 0.54 0.49 0.47 0.42 0.39 0.34 0.30 0.30 0.29
0.26 0.37 0.49 0.48 0.32 0.48 0.79 0.60 0.52 0.55 0.63 0.82 1.13 1.37 1.35 1.45 1.63 1.73 1.76 1.71 1.71 1.64 1.56 1.44 1.33 1.24 1.10 0.94 0.84 0.79 0.76 0.70 0.65 0.66 0.60 0.55 0.51 0.48 0.40 0.35 0.34 0.33 0.34 0.33
0.27 0.43 0.50 0.54 0.62 1.07 1.05 0.70 0.65 0.70 0.77 0.73 0.87 0.96 1.05 1.12 1.24 1.36 1.43 1.58 1.73 1.72 1.62 1.52 1.39 1.31 1.23 1.10 0.96 0.84 0.73 0.66 0.65 0.65 0.59 0.53 0.50 0.48 0.42 0.39 0.41 0.37 0.36 0.36
0.20 0.41 0.60 0.72 1.00 1.24 1.10 0.74 0.73 0.99 1.13 0.75 0.69 0.73 0.76 0.81 0.95 1.28 1.40 1.54 1.69 1.67 1.60 1.53 1.39 1.31 1.26 1.12 0.95 0.81 0.74 0.66 0.63 0.57 0.51 0.48 0.46 0.47 0.45 0.43 0.43 0.39 0.39 0.38
0.19 0.33 0.65 0.87 1.22 1.52 1.40 0.68 0.49 0.86 1.46 0.90 0.71 0.76 0.81 0.95 1.15 1.19 1.10 1.16 1.37 1.53 1.60 1.54 1.37 1.21 1.11 0.93 0.78 0.71 0.67 0.62 0.58 0.47 0.40 0.40 0.43 0.44 0.40 0.39 0.42 0.40 0.39 0.40
0.46 0.55 0.75 0.98 1.33 1.45 0.82 0.46 0.58 1.22 1.42 1.07 0.89 0.87 0.97 1.15 1.18 0.96 0.87 0.98 1.12 1.30 1.38 1.31 1.21 1.09 0.90 0.74 0.68 0.66 0.58 0.52 0.44 0.37 0.34 0.37 0.42 0.44 0.40 0.39 0.41 0.41 0.38 0.41
0.63 0.85 0.98 1.13 1.43 1.43 0.59 0.45 0.79 0.95 0.78 0.75 0.72 0.68 0.74 0.72 0.69 0.69 0.77 0.90 1.03 1.14 1.12 1.06 1.02 0.92 0.78 0.69 0.68 0.68 0.61 0.49 0.40 0.40 0.38 0.39 0.40 0.32 0.30 0.40 0.42 0.38 0.41 0.43
0.53 0.74 0.94 1.12 1.27 0.99 0.53 0.43 0.46 0.52 0.58 0.56 0.57 0.53 0.57 0.60 0.61 0.62 0.68 0.79 0.88 0.93 0.89 0.81 0.72 0.71 0.68 0.66 0.68 0.67 0.59 0.47 0.45 0.51 0.50 0.44 0.42 0.39 0.36 0.38 0.38 0.38 0.39 0.37
0.55 0.42 0.58 0.79 0.77 0.63 0.48 0.43 0.38 0.35 0.40 0.40 0.41 0.44 0.52 0.61 0.61 0.60 0.58 0.61 0.66 0.71 0.71 0.68 0.63 0.64 0.61 0.57 0.56 0.57 0.50 0.45 0.52 0.58 0.53 0.47 0.45 0.43 0.38 0.36 0.30 0.30 0.29 0.27
0.58 0.65 0.85 0.99 0.79 0.71 0.62 0.49 0.40 0.35 0.31 0.30 0.35 0.39 0.44 0.46 0.46 0.45 0.46 0.47 0.48 0.49 0.55 0.57 0.56 0.54 0.48 0.44 0.42 0.40 0.39 0.42 0.54 0.58 0.52 0.46 0.37 0.33 0.34 0.28 0.19 0.17 0.16 0.14
0.45 0.75 1.20 1.05 0.82 0.84 0.70 0.53 0.44 0.43 0.45 0.42 0.35 0.31 0.32 0.34 0.35 0.34 0.37 0.41 0.41 0.41 0.45 0.47 0.47 0.43 0.38 0.35 0.37 0.35 0.32 0.33 0.43 0.49 0.45 0.36 0.27 0.25 0.23 0.23 0.19 0.12 0.09 0.09

GEFSCGP_prec_meanprecacc_192.txt.gz
Total_Precipitation_Accumulation
0.00 0.00 0.01 0.01 0.01 0.02 0.03 0.04 0.05 0.07 0.11 0.18 0.29 0.46 0.63 0.69 0.80 0.88 1.00 1.02 1.23 1.29 1.48 1.86 2.30 2.61 2.92 2.87 2.87 2.73 2.78 2.98 3.03 3.15 3.26 3.49 3.46 3.44 3.68 3.91 4.01 4.15 4.20 4.05
0.00 0.00 0.01 0.01 0.01 0.02 0.02 0.04 0.10 0.16 0.16 0.26 0.37 0.50 0.69 0.78 0.77 0.93 1.13 1.14 1.46 1.64 1.69 1.92 2.33 2.60 2.83 2.94 2.95 2.96 3.10 3.14 3.24 3.56 4.02 4.43 4.71 4.81 4.83 4.97 4.96 4.83 4.67 4.55
0.01 0.01 0.01 0.01 0.01 0.02 0.04 0.06 0.14 0.24 0.24 0.31 0.45 0.76 0.86 0.81 0.83 1.00 1.22 1.26 1.48 1.75 1.94 1.85 1.91 2.08 2.41 2.71 2.90 2.96 3.28 3.62 3.98 4.45 4.93 5.32 5.63 5.75 5.58 5.38 5.26 5.02 4.79 4.60
0.01 0.01 0.01 0.01 0.01 0.03 0.04 0.06 0.13 0.19 0.23 0.37 0.43 0.79 0.92 0.91 1.04 1.14 1.24 1.18 1.33 1.42 1.65 1.81 1.80 1.91 2.17 2.44 2.71 2.99 3.28 3.86 4.62 5.25 5.74 6.17 6.30 6.24 6.07 5.79 5.38 4.93 4.56 4.24
0.01 0.01 0.02 0.01 0.01 0.01 0.03 0.04 0.09 0.14 0.15 0.27 0.34 0.63 0.92 1.01 1.12 1.22 1.36 1.24 1.22 1.32 1.39 1.49 1.60 1.73 1.99 2.23 2.50 2.85 3.22 3.88 4.56 5.18 5.74 6.14 6.29 6.18 5.89 5.42 4.89 4.37 3.91 3.51
0.01 0.01 0.01 0.01 0.01 0.01 0.02 0.05 0.11 0.17 0.21 0.35 0.33 0.52 1.00 1.22 1.33 1.48 1.46 1.51 1.61 1.50 1.38 1.35 1.37 1.44 1.60 1.84 2.14 2.56 3.01 3.51 4.02 4.39 4.91 5.22 5.38 5.33 5.00 4.48 3.86 3.41 3.08 2.76
0.03 0.02 0.01 0.01 0.01 0.02 0.03 0.08 0.20 0.30 0.34 0.39 0.31 0.56 1.12 1.37 1.39 1.49 1.51 1.60 1.65 1.54 1.43 1.34 1.31 1.29 1.38 1.58 1.92 2.20 2.46 2.86 3.13 3.44 3.82 4.04 4.04 3.90 3.68 3.42 3.11 2.70 2.33 2.00
0.09 0.06 0.03 0.01 0.01 0.02 0.03 0.07 0.26 0.47 0.46 0.46 0.52 0.94 1.41 1.41 1.31 1.31 1.35 1.35 1.37 1.25 1.25 1.29 1.31 1.30 1.38 1.42 1.58 1.77 1.89 2.08 2.22 2.35 2.55 2.59 2.54 2.47 2.42 2.25 2.01 1.77 1.51 1.21
0.17 0.12 0.05 0.02 0.01 0.02 0.02 0.07 0.12 0.24 0.31 0.51 0.88 1.36 1.69 1.53 1.46 1.36 1.21 1.06 1.15 1.13 1.12 1.18 1.22 1.26 1.31 1.30 1.29 1.31 1.33 1.37 1.39 1.43 1.54 1.60 1.58 1.55 1.48 1.37 1.23 1.10 0.98 0.84
0.16 0.13 0.06 0.04 0.03 0.03 0.04 0.06 0.10 0.22 0.51 0.70 0.97 1.43 1.93 1.98 1.92 1.83 1.52 1.21 1.18 1.19 1.21 1.08 1.00 1.05 1.13 1.11 1.08 1.04 1.06 1.05 1.00 0.94 0.96 0.98 1.02 0.98 0.93 0.89 0.84 0.79 0.72 0.65
0.13 0.14 0.11 0.07 0.07 0.09 0.07 0.09 0.13 0.24 0.39 0.70 1.21 1.75 1.80 2.06 2.13 1.95 1.64 1.34 1.31 1.27 1.22 1.17 1.17 1.09 1.09 1.08 1.05 1.00 0.98 0.95 0.91 0.87 0.83 0.77 0.71 0.68 0.64 0.60 0.56 0.53 0.49 0.46
0.14 0.18 0.20 0.12 0.11 0.09 0.11 0.12 0.13 0.33 0.41 0.53 1.06 1.86 1.87 2.09 2.16 2.00 1.95 1.74 1.53 1.46 1.34 1.27 1.26 1.15 1.07 1.00 0.98 0.96 0.90 0.82 0.78 0.77 0.73 0.66 0.61 0.57 0.53 0.48 0.44 0.39 0.38 0.38
0.14 0.29 0.41 0.51 0.40 0.20 0.13 0.12 0.16 0.20 0.34 0.59 1.03 1.83 1.98 2.05 1.98 1.92 1.81 1.77 1.82 1.80 1.63 1.43 1.28 1.08 0.93 0.81 0.78 0.78 0.79 0.74 0.70 0.72 0.74 0.69 0.61 0.55 0.51 0.48 0.44 0.41 0.42 0.41
0.14 0.30 0.57 0.97 0.77 0.34 0.19 0.16 0.20 0.25 0.49 0.73 0.95 1.47 1.76 1.94 2.04 2.10 2.01 1.95 1.90 1.65 1.29 1.08 1.03 0.92 0.83 0.76 0.71 0.67 0.66 0.65 0.64 0.68 0.74 0.74 0.69 0.63 0.57 0.52 0.51 0.47 0.44 0.41
0.19 0.35 0.38 0.41 0.36 0.26 0.24 0.22 0.27 0.33 0.38 0.64 0.93 1.38 1.76 1.92 2.03 2.06 2.08 1.99 1.70 1.45 1.25 1.09 1.02 0.95 0.88 0.76 0.66 0.58 0.58 0.58 0.57 0.64 0.65 0.63 0.60 0.60 0.57 0.53 0.51 0.47 0.42 0.39
0.22 0.40 0.36 0.37 0.33 0.37 0.41 0.38 0.39 0.40 0.49 0.67 0.99 1.46 1.73 1.96 2.03 1.96 1.97 1.86 1.77 1.63 1.47 1.33 1.18 1.06 0.95 0.80 0.70 0.66 0.66 0.65 0.61 0.62 0.62 0.58 0.53 0.51 0.48 0.46 0.42 0.38 0.37 0.35
0.28 0.41 0.52 0.50 0.33 0.51 0.83 0.63 0.55 0.58 0.65 0.85 1.18 1.43 1.41 1.51 1.67 1.76 1.79 1.75 1.75 1.68 1.61 1.49 1.37 1.27 1.12 0.97 0.87 0.82 0.79 0.72 0.68 0.68 0.63 0.58 0.56 0.52 0.45 0.41 0.40 0.39 0.40 0.38
0.28 0.46 0.53 0.58 0.68 1.16 1.12 0.73 0.67 0.73 0.82 0.77 0.91 1.02 1.09 1.15 1.26 1.38 1.45 1.61 1.75 1.74 1.66 1.57 1.43 1.34 1.25 1.12 0.97 0.85 0.75 0.69 0.67 0.67 0.61 0.57 0.55 0.53 0.48 0.45 0.46 0.42 0.41 0.42
0.21 0.43 0.65 0.80 1.09 1.31 1.15 0.76 0.75 1.03 1.23 0.83 0.76 0.79 0.79 0.84 0.99 1.30 1.42 1.56 1.71 1.69 1.62 1.56 1.44 1.35 1.30 1.14 0.97 0.82 0.75 0.68 0.65 0.60 0.54 0.52 0.50 0.52 0.50 0.49 0.48 0.44 0.44 0.44
0.20 0.35 0.71 0.94 1.33 1.61 1.46 0.70 0.50 0.91 1.56 0.96 0.74 0.79 0.86 0.99 1.23 1.25 1.13 1.18 1.38 1.55 1.63 1.59 1.42 1.25 1.15 0.97 0.80 0.73 0.69 0.64 0.60 0.51 0.44 0.43 0.46 0.48 0.45 0.45 0.47 0.45 0.45 0.46
0.48 0.59 0.81 1.06 1.43 1.51 0.85 0.47 0.60 1.33 1.53 1.11 0.94 0.93 1.03 1.21 1.26 1.02 0.91 1.00 1.14 1.33 1.42 1.35 1.25 1.13 0.95 0.77 0.70 0.68 0.61 0.54 0.47 0.41 0.39 0.41 0.46 0.49 0.44 0.44 0.47 0.46 0.44 0.47
0.66 0.90 1.04 1.21 1.53 1.53 0.62 0.47 0.84 1.05 0.84 0.79 0.76 0.73 0.79 0.78 0.72 0.72 0.81 0.94 1.07 1.18 1.16 1.11 1.07 0.96 0.83 0.73 0.71 0.71 0.65 0.52 0.44 0.43 0.42 0.44 0.45 0.35 0.33 0.46 0.49 0.44 0.47 0.49
0.56 0.78 0.98 1.19 1.34 1.05 0.56 0.48 0.52 0.57 0.63 0.61 0.62 0.58 0.62 0.64 0.64 0.65 0.71 0.83 0.91 0.96 0.93 0.85 0.78 0.77 0.74 0.71 0.72 0.71 0.63 0.50 0.48 0.54 0.53 0.49 0.47 0.43 0.43 0.47 0.46 0.43 0.44 0.41
0.56 0.43 0.61 0.82 0.79 0.64 0.52 0.48 0.41 0.38 0.44 0.43 0.44 0.47 0.55 0.65 0.64 0.64 0.62 0.65 0.70 0.74 0.75 0.73 0.70 0.71 0.67 0.63 0.60 0.62 0.54 0.49 0.56 0.62 0.57 0.51 0.50 0.51 0.48 0.44 0.36 0.34 0.32 0.30
0.60 0.67 0.89 1.03 0.81 0.73 0.65 0.52 0.42 0.37 0.33 0.33 0.38 0.41 0.46 0.51 0.51 0.49 0.50 0.52 0.52 0.53 0.59 0.63 0.62 0.58 0.52 0.48 0.45 0.43 0.43 0.46 0.59 0.62 0.57 0.50 0.42 0.42 0.45 0.36 0.23 0.20 0.20 0.16
0.46 0.78 1.26 1.10 0.84 0.86 0.72 0.55 0.46 0.44 0.46 0.44 0.38 0.34 0.35 0.39 0.40 0.39 0.44 0.46 0.44 0.44 0.49 0.51 0.51 0.46 0.41 0.37 0.38 0.37 0.35 0.36 0.47 0.54 0.51 0.42 0.34 0.32 0.28 0.26 0.22 0.14 0.11 0.11

GEFSCGP_prec_meanprecacc_198.txt.gz
Total_Precipitation_Accumulation
0.00 0.00 0.01 0.02 0.02 0.04 0.04 0.05 0.08 0.11 0.14 0.21 0.32 0.48 0.66 0.71 0.82 0.92 1.06 1.08 1.29 1.38 1.55 1.93 2.37 2.69 2.99 2.96 2.97 2.87 2.92 3.09 3.13 3.24 3.33 3.55 3.53 3.53 3.80 4.05 4.13 4.25 4.29 4.13
0.01 0.01 0.01 0.02 0.02 0.03 0.04 0.06 0.13 0.20 0.21 0.30 0.40 0.54 0.72 0.81 0.79 0.98 1.20 1.19 1.52 1.71 1.76 1.99 2.42 2.72 2.96 3.08 3.09 3.11 3.24 3.25 3.33 3.64 4.10 4.51 4.80 4.90 4.92 5.06 5.06 4.92 4.75 4.63
0.01 0.01 0.01 0.01 0.02 0.03 0.05 0.08 0.15 0.27 0.28 0.37 0.49 0.80 0.89 0.84 0.88 1.06 1.30 1.33 1.56 1.81 2.00 1.91 2.02 2.29 2.62 2.91 3.08 3.12 3.39 3.72 4.10 4.57 5.04 5.42 5.73 5.84 5.67 5.46 5.34 5.10 4.86 4.68
0.01 0.01 0.01 0.01 0.02 0.03 0.07 0.07 0.14 0.20 0.25 0.42 0.47 0.85 0.97 0.95 1.12 1.26 1.36 1.27 1.44 1.51 1.74 1.93 1.95 2.06 2.33 2.60 2.84 3.08 3.37 3.95 4.76 5.42 5.89 6.27 6.38 6.31 6.13 5.87 5.48 5.02 4.66 4.33
0.02 0.01 0.02 0.01 0.01 0.02 0.04 0.05 0.10 0.15 0.17 0.30 0.36 0.67 0.98 1.05 1.19 1.34 1.47 1.35 1.36 1.45 1.48 1.60 1.70 1.82 2.11 2.36 2.59 2.91 3.28 3.95 4.64 5.27 5.86 6.25 6.37 6.26 5.99 5.53 5.01 4.49 4.02 3.62
0.01 0.01 0.01 0.01 0.01 0.01 0.02 0.06 0.12 0.19 0.24 0.40 0.36 0.57 1.08 1.28 1.39 1.59 1.60 1.66 1.74 1.61 1.47 1.42 1.43 1.51 1.68 1.97 2.24 2.62 3.05 3.56 4.10 4.47 4.97 5.31 5.49 5.42 5.08 4.58 3.96 3.50 3.19 2.91
0.04 0.03 0.01 0.01 0.02 0.02 0.03 0.09 0.23 0.34 0.41 0.46 0.35 0.62 1.21 1.48 1.48 1.60 1.65 1.75 1.78 1.64 1.51 1.40 1.36 1.37 1.48 1.68 2.00 2.26 2.51 2.91 3.18 3.49 3.89 4.13 4.14 3.98 3.75 3.48 3.20 2.78 2.39 2.07
0.10 0.07 0.03 0.01 0.02 0.03 0.03 0.08 0.29 0.52 0.50 0.51 0.60 1.02 1.53 1.56 1.43 1.42 1.48 1.52 1.52 1.34 1.31 1.34 1.37 1.42 1.54 1.51 1.64 1.82 1.94 2.13 2.27 2.40 2.62 2.67 2.62 2.54 2.49 2.33 2.09 1.84 1.56 1.26
0.18 0.12 0.05 0.02 0.01 0.02 0.03 0.08 0.13 0.27 0.33 0.56 0.97 1.46 1.79 1.62 1.58 1.53 1.36 1.20 1.33 1.26 1.17 1.23 1.29 1.34 1.39 1.35 1.33 1.36 1.38 1.42 1.44 1.47 1.59 1.65 1.64 1.62 1.57 1.45 1.30 1.17 1.05 0.92
0.16 0.14 0.07 0.04 0.03 0.04 0.05 0.07 0.11 0.24 0.55 0.79 1.10 1.56 2.01 2.04 1.99 1.94 1.65 1.33 1.34 1.33 1.30 1.16 1.08 1.12 1.18 1.16 1.15 1.11 1.12 1.10 1.04 0.98 0.99 1.03 1.07 1.04 1.02 0.99 0.91 0.86 0.82 0.75
0.14 0.15 0.12 0.07 0.08 0.11 0.08 0.10 0.15 0.28 0.45 0.79 1.32 1.85 1.90 2.15 2.26 2.07 1.73 1.41 1.37 1.34 1.29 1.24 1.25 1.17 1.16 1.14 1.11 1.05 1.02 0.99 0.94 0.89 0.86 0.79 0.73 0.73 0.71 0.68 0.63 0.59 0.56 0.52
0.15 0.19 0.21 0.13 0.11 0.12 0.13 0.14 0.15 0.35 0.44 0.57 1.14 1.95 1.96 2.19 2.30 2.10 2.01 1.78 1.58 1.53 1.42 1.33 1.32 1.27 1.26 1.13 1.05 1.02 0.94 0.85 0.80 0.80 0.76 0.68 0.63 0.60 0.57 0.55 0.50 0.43 0.43 0.43
0.15 0.29 0.43 0.52 0.41 0.22 0.15 0.14 0.18 0.22 0.35 0.62 1.10 1.91 2.07 2.14 2.07 1.98 1.87 1.83 1.88 1.88 1.71 1.51 1.35 1.16 1.08 0.94 0.85 0.83 0.82 0.77 0.73 0.75 0.77 0.72 0.64 0.57 0.54 0.53 0.49 0.43 0.43 0.43
0.15 0.31 0.59 1.01 0.80 0.37 0.22 0.18 0.22 0.27 0.52 0.76 1.00 1.56 1.88 2.03 2.11 2.17 2.07 2.04 1.97 1.70 1.35 1.15 1.11 0.99 0.89 0.81 0.76 0.71 0.68 0.68 0.68 0.71 0.77 0.76 0.71 0.64 0.59 0.56 0.56 0.51 0.46 0.44
0.20 0.37 0.41 0.45 0.40 0.29 0.26 0.27 0.31 0.35 0.43 0.70 0.97 1.43 1.85 2.00 2.10 2.11 2.12 2.03 1.74 1.49 1.30 1.14 1.07 1.01 0.92 0.80 0.69 0.62 0.61 0.61 0.60 0.66 0.67 0.65 0.62 0.62 0.58 0.55 0.55 0.52 0.46 0.43
0.24 0.44 0.40 0.41 0.37 0.39 0.44 0.43 0.45 0.43 0.52 0.70 1.03 1.53 1.81 2.05 2.11 2.02 2.02 1.94 1.82 1.67 1.52 1.36 1.21 1.10 0.99 0.84 0.73 0.69 0.68 0.67 0.62 0.63 0.64 0.60 0.55 0.53 0.50 0.49 0.46 0.43 0.42 0.40
0.30 0.46 0.57 0.54 0.36 0.55 0.90 0.67 0.59 0.64 0.70 0.91 1.25 1.51 1.51 1.61 1.76 1.83 1.88 1.84 1.79 1.72 1.65 1.53 1.40 1.30 1.15 1.00 0.90 0.84 0.80 0.73 0.69 0.69 0.64 0.60 0.58 0.55 0.48 0.44 0.43 0.42 0.43 0.43
0.29 0.48 0.56 0.62 0.71 1.26 1.21 0.77 0.69 0.77 0.89 0.83 0.99 1.15 1.22 1.26 1.39 1.50 1.57 1.70 1.79 1.78 1.69 1.61 1.47 1.38 1.29 1.14 0.99 0.86 0.76 0.70 0.69 0.69 0.63 0.58 0.56 0.55 0.50 0.49 0.48 0.44 0.44 0.45
0.21 0.45 0.68 0.83 1.14 1.41 1.24 0.80 0.77 1.07 1.29 0.92 0.85 0.90 0.91 0.94 1.12 1.43 1.54 1.66 1.77 1.74 1.66 1.61 1.48 1.39 1.33 1.16 0.99 0.84 0.77 0.69 0.66 0.61 0.55 0.53 0.51 0.53 0.52 0.51 0.50 0.46 0.47 0.49
0.21 0.37 0.73 0.98 1.40 1.69 1.53 0.75 0.53 0.95 1.64 1.03 0.79 0.84 0.95 1.10 1.34 1.36 1.26 1.29 1.48 1.60 1.67 1.62 1.45 1.28 1.18 0.99 0.82 0.75 0.71 0.65 0.61 0.52 0.45 0.44 0.47 0.49 0.47 0.47 0.49 0.47 0.48 0.50
0.50 0.60 0.83 1.11 1.50 1.59 0.91 0.50 0.63 1.39 1.60 1.14 0.99 1.00 1.10 1.30 1.35 1.10 0.99 1.06 1.21 1.37 1.45 1.38 1.27 1.16 0.97 0.80 0.72 0.71 0.62 0.55 0.48 0.42 0.40 0.42 0.48 0.52 0.47 0.46 0.51 0.51 0.49 0.51
0.68 0.93 1.08 1.26 1.58 1.59 0.65 0.49 0.89 1.11 0.87 0.81 0.79 0.77 0.86 0.84 0.79 0.79 0.88 1.01 1.14 1.22 1.19 1.13 1.09 0.99 0.86 0.76 0.73 0.74 0.67 0.54 0.45 0.44 0.43 0.45 0.47 0.38 0.36 0.50 0.54 0.48 0.51 0.55
0.58 0.80 1.00 1.21 1.37 1.07 0.59 0.52 0.56 0.61 0.66 0.63 0.64 0.60 0.64 0.67 0.68 0.70 0.76 0.90 0.99 1.02 0.99 0.90 0.82 0.80 0.78 0.75 0.76 0.74 0.66 0.53 0.51 0.56 0.55 0.51 0.50 0.48 0.51 0.55 0.52 0.49 0.50 0.46
0.58 0.45 0.62 0.85 0.81 0.66 0.54 0.50 0.44 0.42 0.46 0.45 0.46 0.49 0.57 0.67 0.69 0.70 0.67 0.71 0.79 0.81 0.82 0.79 0.75 0.75 0.72 0.69 0.65 0.65 0.57 0.51 0.58 0.63 0.59 0.52 0.53 0.57 0.56 0.51 0.42 0.39 0.36 0.33
0.62 0.69 0.91 1.06 0.83 0.74 0.67 0.54 0.45 0.40 0.37 0.35 0.39 0.41 0.47 0.55 0.57 0.55 0.56 0.59 0.60 0.60 0.65 0.67 0.67 0.63 0.55 0.51 0.48 0.45 0.44 0.47 0.60 0.64 0.59 0.52 0.46 0.46 0.50 0.39 0.27 0.25 0.23 0.20
0.48 0.80 1.29 1.13 0.88 0.90 0.75 0.58 0.49 0.47 0.48 0.45 0.39 0.35 0.36 0.42 0.46 0.46 0.50 0.52 0.50 0.48 0.52 0.54 0.53 0.48 0.43 0.38 0.39 0.38 0.36 0.37 0.48 0.55 0.53 0.45 0.36 0.34 0.30 0.27 0.26 0.19 0.15 0.15

GEFSCGP_prec_meanprecacc_204.txt.gz
Total_Precipitation_Accumulation
0.00 0.01 0.01 0.02 0.02 0.04 0.04 0.05 0.08 0.12 0.15 0.21 0.33 0.49 0.66 0.72 0.82 0.93 1.08 1.10 1.32 1.41 1.58 1.98 2.43 2.74 3.06 3.04 3.07 2.99 3.02 3.18 3.26 3.39 3.43 3.62 3.61 3.61 3.87 4.12 4.18 4.30 4.33 4.17
0.01 0.01 0.01 0.02 0.02 0.03 0.04 0.06 0.13 0.21 0.21 0.31 0.41 0.55 0.73 0.82 0.80 0.99 1.21 1.21 1.54 1.74 1.78 2.02 2.46 2.78 3.03 3.18 3.24 3.29 3.38 3.38 3.48 3.82 4.27 4.63 4.90 4.98 4.97 5.11 5.11 4.97 4.81 4.68
0.01 0.01 0.01 0.01 0.02 0.03 0.05 0.08 0.16 0.27 0.28 0.38 0.50 0.81 0.90 0.85 0.89 1.08 1.32 1.35 1.58 1.84 2.02 1.94 2.05 2.34 2.70 3.02 3.22 3.27 3.53 3.85 4.22 4.70 5.17 5.53 5.81 5.91 5.73 5.53 5.42 5.19 4.95 4.76
0.02 0.01 0.01 0.01 0.02 0.04 0.08 0.08 0.14 0.21 0.26 0.42 0.47 0.86 0.99 0.96 1.14 1.28 1.38 1.29 1.46 1.53 1.75 1.95 2.00 2.13 2.42 2.73 2.97 3.20 3.47 4.06 4.87 5.52 5.97 6.34 6.45 6.38 6.22 5.98 5.62 5.15 4.77 4.42
0.02 0.02 0.02 0.02 0.02 0.02 0.04 0.05 0.10 0.15 0.18 0.30 0.37 0.68 0.99 1.07 1.21 1.38 1.51 1.37 1.38 1.49 1.53 1.65 1.75 1.89 2.20 2.48 2.72 3.04 3.40 4.06 4.75 5.37 5.95 6.34 6.45 6.35 6.09 5.65 5.16 4.65 4.17 3.76
0.02 0.02 0.01 0.02 0.01 0.02 0.02 0.07 0.13 0.19 0.25 0.40 0.37 0.58 1.10 1.29 1.42 1.63 1.65 1.69 1.79 1.68 1.55 1.50 1.51 1.59 1.79 2.08 2.37 2.76 3.17 3.66 4.19 4.56 5.07 5.43 5.60 5.52 5.16 4.66 4.05 3.61 3.31 3.03
0.04 0.03 0.01 0.01 0.02 0.03 0.03 0.09 0.24 0.35 0.42 0.47 0.36 0.64 1.23 1.51 1.52 1.64 1.70 1.80 1.83 1.72 1.63 1.51 1.45 1.46 1.57 1.78 2.09 2.37 2.60 2.99 3.25 3.56 3.98 4.23 4.24 4.08 3.82 3.57 3.29 2.87 2.49 2.15
0.10 0.07 0.03 0.01 0.02 0.03 0.04 0.08 0.29 0.54 0.51 0.52 0.61 1.05 1.57 1.61 1.48 1.47 1.52 1.57 1.58 1.43 1.40 1.42 1.43 1.47 1.58 1.56 1.69 1.88 1.99 2.19 2.33 2.47 2.69 2.74 2.69 2.61 2.58 2.43 2.18 1.92 1.62 1.32
0.18 0.13 0.05 0.03 0.01 0.02 0.03 0.08 0.13 0.28 0.34 0.56 0.98 1.49 1.83 1.68 1.63 1.57 1.41 1.24 1.37 1.30 1.21 1.27 1.32 1.36 1.41 1.37 1.35 1.41 1.48 1.49 1.52 1.55 1.65 1.72 1.70 1.67 1.62 1.50 1.36 1.23 1.11 0.97
0.17 0.15 0.07 0.04 0.03 0.04 0.05 0.08 0.12 0.25 0.55 0.80 1.12 1.60 2.06 2.10 2.04 1.97 1.67 1.35 1.38 1.36 1.33 1.20 1.11 1.16 1.22 1.18 1.18 1.18 1.26 1.19 1.11 1.06 1.07 1.09 1.14 1.08 1.05 1.02 0.95 0.92 0.86 0.80
0.14 0.15 0.12 0.07 0.08 0.11 0.09 0.11 0.15 0.29 0.46 0.80 1.35 1.91 1.95 2.21 2.30 2.09 1.75 1.43 1.41 1.38 1.33 1.27 1.28 1.20 1.19 1.18 1.16 1.10 1.09 1.06 1.00 0.94 0.91 0.83 0.77 0.75 0.73 0.71 0.67 0.63 0.58 0.55
0.15 0.19 0.21 0.13 0.12 0.12 0.14 0.15 0.16 0.37 0.46 0.59 1.17 1.98 2.01 2.24 2.33 2.12 2.02 1.79 1.61 1.56 1.44 1.36 1.36 1.31 1.30 1.17 1.10 1.07 1.02 0.91 0.85 0.84 0.79 0.71 0.65 0.62 0.59 0.57 0.51 0.46 0.45 0.46
0.16 0.30 0.43 0.52 0.42 0.22 0.16 0.15 0.19 0.23 0.36 0.63 1.12 1.94 2.11 2.19 2.10 2.00 1.87 1.85 1.91 1.95 1.79 1.56 1.41 1.24 1.14 1.00 0.90 0.89 0.87 0.82 0.79 0.79 0.79 0.74 0.66 0.59 0.55 0.55 0.51 0.45 0.45 0.45
0.16 0.32 0.60 1.03 0.82 0.39 0.22 0.19 0.23 0.28 0.53 0.78 1.02 1.59 1.91 2.07 2.15 2.19 2.09 2.08 2.00 1.75 1.45 1.25 1.17 1.04 0.95 0.86 0.80 0.76 0.73 0.73 0.73 0.76 0.81 0.79 0.73 0.66 0.61 0.57 0.58 0.52 0.48 0.46
0.20 0.37 0.41 0.47 0.42 0.30 0.27 0.27 0.33 0.37 0.45 0.72 1.01 1.48 1.90 2.05 2.16 2.15 2.16 2.07 1.78 1.54 1.36 1.21 1.12 1.04 0.95 0.83 0.72 0.65 0.64 0.66 0.65 0.72 0.72 0.68 0.64 0.64 0.60 0.56 0.56 0.54 0.48 0.44
0.24 0.45 0.40 0.42 0.38 0.40 0.46 0.45 0.47 0.46 0.54 0.73 1.06 1.57 1.85 2.08 2.14 2.06 2.06 1.97 1.85 1.71 1.56 1.40 1.25 1.13 1.02 0.87 0.77 0.73 0.71 0.70 0.66 0.67 0.67 0.62 0.56 0.54 0.51 0.50 0.47 0.45 0.43 0.42
0.30 0.46 0.57 0.55 0.37 0.57 0.94 0.71 0.62 0.68 0.74 0.96 1.29 1.54 1.53 1.64 1.79 1.87 1.91 1.87 1.82 1.75 1.68 1.56 1.43 1.33 1.18 1.04 0.95 0.90 0.84 0.75 0.71 0.71 0.66 0.62 0.59 0.56 0.49 0.45 0.45 0.44 0.46 0.45
0.29 0.48 0.57 0.62 0.73 1.29 1.26 0.80 0.73 0.82 0.94 0.88 1.02 1.18 1.25 1.31 1.45 1.55 1.60 1.73 1.81 1.80 1.71 1.62 1.49 1.40 1.31 1.17 1.03 0.90 0.78 0.72 0.70 0.70 0.64 0.59 0.57 0.56 0.51 0.50 0.51 0.46 0.46 0.47
0.22 0.45 0.68 0.83 1.15 1.42 1.26 0.82 0.80 1.12 1.36 0.97 0.90 0.93 0.93 0.97 1.16 1.47 1.57 1.69 1.80 1.76 1.68 1.62 1.49 1.40 1.35 1.18 1.01 0.85 0.79 0.71 0.68 0.62 0.56 0.54 0.52 0.54 0.53 0.53 0.51 0.47 0.49 0.52
0.21 0.37 0.73 0.98 1.40 1.70 1.55 0.76 0.54 0.97 1.69 1.07 0.83 0.88 0.98 1.13 1.37 1.38 1.29 1.32 1.51 1.63 1.68 1.63 1.46 1.29 1.19 1.00 0.83 0.76 0.73 0.67 0.63 0.53 0.46 0.44 0.48 0.50 0.49 0.49 0.51 0.50 0.53 0.57
0.50 0.60 0.83 1.11 1.50 1.59 0.92 0.51 0.64 1.42 1.66 1.17 1.01 1.02 1.12 1.32 1.38 1.12 1.01 1.10 1.24 1.40 1.46 1.39 1.29 1.17 0.99 0.80 0.73 0.72 0.64 0.57 0.51 0.44 0.41 0.43 0.49 0.53 0.49 0.48 0.52 0.54 0.54 0.59
0.69 0.94 1.09 1.27 1.59 1.59 0.66 0.50 0.91 1.14 0.91 0.83 0.80 0.78 0.87 0.87 0.83 0.82 0.91 1.05 1.17 1.26 1.23 1.15 1.11 1.00 0.87 0.77 0.75 0.76 0.68 0.56 0.47 0.45 0.44 0.46 0.48 0.40 0.38 0.52 0.56 0.53 0.58 0.62
0.59 0.81 1.01 1.22 1.38 1.08 0.60 0.53 0.58 0.63 0.67 0.64 0.65 0.62 0.66 0.70 0.72 0.75 0.80 0.94 1.04 1.08 1.04 0.93 0.84 0.82 0.80 0.78 0.78 0.77 0.68 0.55 0.51 0.57 0.56 0.52 0.51 0.49 0.51 0.56 0.54 0.52 0.53 0.49
0.59 0.46 0.63 0.86 0.82 0.67 0.55 0.52 0.45 0.43 0.48 0.46 0.47 0.51 0.59 0.70 0.72 0.75 0.73 0.78 0.86 0.86 0.86 0.83 0.77 0.77 0.74 0.71 0.66 0.67 0.59 0.53 0.59 0.65 0.60 0.54 0.54 0.58 0.57 0.52 0.42 0.39 0.36 0.34
0.62 0.70 0.93 1.08 0.85 0.76 0.69 0.56 0.46 0.41 0.37 0.35 0.40 0.43 0.49 0.57 0.60 0.59 0.62 0.65 0.65 0.63 0.66 0.69 0.68 0.64 0.57 0.54 0.49 0.47 0.46 0.49 0.61 0.65 0.61 0.54 0.47 0.48 0.50 0.40 0.28 0.27 0.25 0.22
0.49 0.83 1.32 1.16 0.89 0.91 0.77 0.59 0.50 0.48 0.49 0.46 0.40 0.36 0.38 0.44 0.48 0.49 0.54 0.55 0.52 0.50 0.53 0.55 0.55 0.50 0.45 0.42 0.41 0.40 0.38 0.38 0.49 0.56 0.54 0.47 0.38 0.34 0.30 0.28 0.28 0.21 0.18 0.19

GEFSCGP_prec_meanprecacc_210.txt.gz
Total_Precipitation_Accumulation
0.01 0.01 0.01 0.02 0.02 0.04 0.05 0.06 0.09 0.12 0.15 0.23 0.35 0.51 0.68 0.73 0.86 0.95 1.10 1.12 1.35 1.44 1.61 2.00 2.46 2.77 3.10 3.08 3.13 3.08 3.13 3.30 3.38 3.49 3.49 3.67 3.65 3.65 3.91 4.15 4.23 4.35 4.40 4.24
0.01 0.01 0.01 0.02 0.02 0.04 0.05 0.07 0.15 0.21 0.22 0.32 0.43 0.57 0.75 0.84 0.82 1.01 1.24 1.24 1.57 1.76 1.81 2.04 2.49 2.80 3.07 3.22 3.29 3.38 3.48 3.46 3.57 3.92 4.35 4.71 4.96 5.04 5.02 5.15 5.16 5.02 4.86 4.72
0.01 0.01 0.01 0.01 0.02 0.05 0.07 0.09 0.17 0.28 0.29 0.39 0.52 0.84 0.93 0.87 0.91 1.10 1.34 1.37 1.61 1.86 2.05 1.96 2.08 2.38 2.74 3.05 3.26 3.33 3.61 3.92 4.31 4.81 5.26 5.61 5.88 5.99 5.80 5.59 5.47 5.23 4.98 4.80
0.02 0.01 0.01 0.01 0.02 0.04 0.09 0.09 0.15 0.22 0.27 0.43 0.49 0.89 1.01 0.99 1.16 1.30 1.40 1.31 1.48 1.56 1.79 1.98 2.02 2.17 2.46 2.76 3.02 3.25 3.52 4.11 4.94 5.60 6.06 6.41 6.52 6.45 6.28 6.05 5.68 5.20 4.82 4.48
0.02 0.02 0.02 0.02 0.02 0.02 0.04 0.06 0.11 0.16 0.18 0.31 0.38 0.71 1.01 1.08 1.23 1.40 1.52 1.38 1.40 1.53 1.56 1.68 1.78 1.91 2.23 2.51 2.77 3.09 3.45 4.10 4.79 5.42 6.01 6.41 6.51 6.41 6.16 5.73 5.25 4.72 4.24 3.81
0.02 0.02 0.01 0.02 0.01 0.02 0.03 0.07 0.13 0.20 0.26 0.43 0.38 0.60 1.13 1.33 1.45 1.65 1.66 1.70 1.81 1.70 1.58 1.54 1.54 1.62 1.81 2.10 2.39 2.79 3.20 3.70 4.23 4.61 5.13 5.50 5.66 5.57 5.22 4.73 4.12 3.69 3.39 3.10
0.04 0.03 0.01 0.01 0.02 0.03 0.04 0.10 0.26 0.37 0.44 0.49 0.39 0.67 1.28 1.56 1.55 1.66 1.72 1.82 1.84 1.73 1.66 1.53 1.48 1.47 1.58 1.79 2.10 2.39 2.63 3.03 3.29 3.60 4.03 4.32 4.31 4.13 3.88 3.62 3.35 2.94 2.54 2.20
0.11 0.08 0.04 0.02 0.02 0.04 0.04 0.08 0.31 0.55 0.52 0.53 0.63 1.11 1.65 1.68 1.53 1.50 1.55 1.59 1.61 1.45 1.43 1.45 1.45 1.49 1.59 1.57 1.70 1.91 2.03 2.23 2.38 2.51 2.73 2.80 2.75 2.65 2.62 2.48 2.23 1.97 1.67 1.37
0.19 0.14 0.06 0.03 0.02 0.03 0.04 0.09 0.14 0.29 0.35 0.59 1.02 1.56 1.95 1.77 1.67 1.60 1.43 1.27 1.42 1.34 1.25 1.29 1.34 1.38 1.43 1.39 1.40 1.50 1.52 1.52 1.57 1.60 1.70 1.76 1.75 1.72 1.67 1.55 1.41 1.27 1.15 1.01
0.17 0.15 0.08 0.05 0.04 0.05 0.06 0.09 0.13 0.26 0.58 0.84 1.18 1.68 2.16 2.17 2.07 2.00 1.70 1.40 1.45 1.42 1.37 1.22 1.12 1.17 1.24 1.21 1.23 1.29 1.33 1.23 1.15 1.10 1.10 1.12 1.17 1.12 1.08 1.06 0.99 0.96 0.91 0.83
0.14 0.16 0.13 0.08 0.09 0.12 0.10 0.11 0.16 0.30 0.47 0.83 1.41 1.99 2.01 2.25 2.32 2.12 1.78 1.49 1.47 1.43 1.37 1.29 1.29 1.21 1.19 1.19 1.18 1.13 1.12 1.08 1.02 0.97 0.93 0.85 0.79 0.77 0.76 0.73 0.69 0.66 0.63 0.58
0.15 0.20 0.22 0.14 0.12 0.13 0.15 0.15 0.17 0.39 0.47 0.62 1.22 2.06 2.06 2.28 2.37 2.15 2.04 1.82 1.65 1.61 1.48 1.39 1.39 1.33 1.31 1.18 1.12 1.09 1.03 0.93 0.87 0.87 0.82 0.74 0.68 0.64 0.62 0.60 0.54 0.48 0.49 0.49
0.17 0.30 0.44 0.54 0.43 0.24 0.16 0.15 0.20 0.24 0.38 0.67 1.18 2.02 2.18 2.23 2.13 2.03 1.90 1.87 1.93 1.98 1.82 1.60 1.46 1.26 1.15 1.00 0.91 0.90 0.89 0.83 0.80 0.81 0.81 0.77 0.70 0.63 0.60 0.59 0.54 0.48 0.48 0.48
0.17 0.32 0.61 1.05 0.85 0.40 0.24 0.20 0.24 0.30 0.57 0.83 1.08 1.65 1.97 2.10 2.17 2.21 2.11 2.09 2.01 1.77 1.48 1.33 1.23 1.05 0.96 0.87 0.81 0.77 0.74 0.74 0.75 0.79 0.85 0.85 0.79 0.72 0.65 0.60 0.61 0.56 0.52 0.49
0.20 0.39 0.43 0.48 0.43 0.31 0.29 0.29 0.34 0.39 0.49 0.80 1.08 1.56 1.96 2.09 2.18 2.17 2.18 2.09 1.80 1.56 1.40 1.27 1.15 1.06 0.96 0.83 0.73 0.66 0.65 0.67 0.67 0.74 0.76 0.73 0.69 0.69 0.63 0.59 0.59 0.56 0.51 0.47
0.24 0.46 0.41 0.43 0.39 0.41 0.47 0.47 0.49 0.48 0.58 0.79 1.12 1.65 1.92 2.13 2.18 2.09 2.08 1.99 1.88 1.75 1.60 1.42 1.26 1.14 1.03 0.88 0.77 0.74 0.72 0.72 0.68 0.69 0.71 0.65 0.58 0.57 0.54 0.53 0.49 0.46 0.45 0.44
0.30 0.47 0.58 0.55 0.37 0.58 0.96 0.74 0.66 0.71 0.78 1.00 1.36 1.61 1.59 1.69 1.82 1.90 1.95 1.90 1.85 1.77 1.70 1.57 1.45 1.35 1.20 1.05 0.96 0.90 0.85 0.77 0.72 0.72 0.68 0.64 0.62 0.58 0.52 0.48 0.47 0.47 0.48 0.47
0.29 0.48 0.57 0.63 0.73 1.31 1.29 0.83 0.75 0.85 0.97 0.92 1.06 1.21 1.28 1.33 1.47 1.57 1.64 1.76 1.83 1.81 1.72 1.64 1.50 1.41 1.32 1.19 1.04 0.91 0.80 0.73 0.72 0.72 0.66 0.61 0.59 0.58 0.54 0.53 0.53 0.48 0.48 0.50
0.22 0.45 0.69 0.83 1.16 1.44 1.28 0.84 0.81 1.13 1.38 1.00 0.92 0.94 0.94 0.98 1.18 1.49 1.59 1.70 1.82 1.77 1.69 1.64 1.51 1.41 1.35 1.19 1.02 0.86 0.80 0.72 0.69 0.64 0.58 0.56 0.54 0.56 0.56 0.55 0.53 0.49 0.51 0.56
0.21 0.37 0.74 0.98 1.41 1.71 1.56 0.77 0.54 0.98 1.71 1.09 0.85 0.90 1.00 1.15 1.39 1.41 1.31 1.33 1.53 1.64 1.69 1.65 1.47 1.31 1.21 1.01 0.84 0.77 0.73 0.68 0.64 0.55 0.49 0.47 0.50 0.53 0.51 0.51 0.53 0.52 0.56 0.59
0.50 0.61 0.83 1.12 1.51 1.61 0.93 0.52 0.64 1.45 1.69 1.19 1.03 1.05 1.15 1.35 1.41 1.16 1.03 1.11 1.25 1.41 1.48 1.40 1.30 1.18 1.00 0.81 0.74 0.73 0.65 0.58 0.52 0.46 0.45 0.46 0.50 0.55 0.51 0.50 0.55 0.56 0.55 0.60
0.69 0.94 1.09 1.28 1.60 1.62 0.67 0.51 0.92 1.16 0.92 0.85 0.82 0.81 0.91 0.91 0.86 0.85 0.93 1.06 1.19 1.29 1.25 1.16 1.11 1.01 0.87 0.77 0.75 0.77 0.70 0.57 0.49 0.48 0.47 0.48 0.49 0.41 0.39 0.53 0.58 0.55 0.59 0.64
0.59 0.81 1.02 1.24 1.41 1.11 0.63 0.55 0.60 0.64 0.69 0.66 0.67 0.64 0.70 0.74 0.75 0.77 0.83 0.97 1.07 1.11 1.07 0.95 0.84 0.82 0.81 0.78 0.79 0.78 0.70 0.57 0.55 0.61 0.58 0.53 0.52 0.50 0.53 0.58 0.55 0.53 0.54 0.50
0.60 0.47 0.64 0.88 0.85 0.69 0.57 0.53 0.46 0.44 0.49 0.48 0.50 0.53 0.62 0.74 0.76 0.78 0.76 0.81 0.88 0.89 0.88 0.84 0.77 0.77 0.75 0.72 0.67 0.68 0.62 0.58 0.64 0.67 0.61 0.54 0.56 0.60 0.59 0.54 0.43 0.40 0.37 0.35
0.63 0.71 0.94 1.11 0.87 0.77 0.70 0.56 0.47 0.41 0.38 0.37 0.42 0.46 0.53 0.62 0.65 0.64 0.66 0.68 0.68 0.66 0.68 0.69 0.69 0.65 0.58 0.54 0.51 0.50 0.49 0.53 0.63 0.66 0.62 0.56 0.50 0.50 0.52 0.41 0.29 0.28 0.26 0.23
0.49 0.84 1.34 1.19 0.91 0.93 0.78 0.60 0.50 0.48 0.49 0.47 0.41 0.38 0.39 0.46 0.50 0.51 0.56 0.57 0.53 0.50 0.53 0.56 0.56 0.51 0.47 0.45 0.46 0.43 0.40 0.39 0.50 0.58 0.56 0.49 0.39 0.35 0.31 0.29 0.29 0.23 0.19 0.20

GEFSCGP_prec_meanprecacc_216.txt.gz
Total_Precipitation_Accumulation
0.02 0.02 0.03 0.05 0.04 0.06 0.07 0.08 0.12 0.13 0.16 0.24 0.37 0.55 0.70 0.75 0.88 0.97 1.14 1.16 1.39 1.48 1.67 2.07 2.53 2.87 3.18 3.14 3.19 3.15 3.21 3.42 3.53 3.65 3.63 3.78 3.74 3.72 3.96 4.19 4.26 4.38 4.44 4.29
0.02 0.01 0.02 0.02 0.03 0.05 0.07 0.09 0.16 0.23 0.23 0.34 0.45 0.60 0.77 0.86 0.84 1.04 1.28 1.28 1.60 1.80 1.85 2.10 2.56 2.89 3.14 3.28 3.35 3.45 3.55 3.56 3.69 4.07 4.50 4.85 5.09 5.14 5.10 5.22 5.22 5.07 4.90 4.78
0.02 0.01 0.01 0.01 0.02 0.05 0.09 0.11 0.18 0.30 0.32 0.41 0.54 0.89 0.98 0.92 0.94 1.13 1.38 1.40 1.63 1.89 2.09 2.01 2.14 2.48 2.81 3.09 3.31 3.40 3.69 4.00 4.40 4.92 5.39 5.74 6.02 6.12 5.91 5.68 5.56 5.32 5.07 4.89
0.02 0.01 0.01 0.02 0.03 0.05 0.09 0.09 0.15 0.23 0.30 0.46 0.52 0.96 1.08 1.05 1.20 1.34 1.43 1.33 1.50 1.58 1.83 2.02 2.06 2.24 2.52 2.80 3.06 3.31 3.59 4.19 5.03 5.71 6.17 6.51 6.64 6.59 6.42 6.15 5.78 5.28 4.89 4.54
0.02 0.02 0.02 0.02 0.02 0.03 0.04 0.06 0.11 0.16 0.20 0.35 0.41 0.78 1.11 1.14 1.30 1.45 1.56 1.41 1.43 1.55 1.59 1.71 1.81 1.96 2.27 2.56 2.81 3.15 3.51 4.19 4.89 5.53 6.11 6.53 6.65 6.56 6.30 5.84 5.34 4.80 4.32 3.89
0.02 0.02 0.01 0.02 0.01 0.02 0.03 0.07 0.14 0.21 0.31 0.50 0.42 0.66 1.21 1.41 1.54 1.70 1.69 1.73 1.83 1.73 1.61 1.57 1.58 1.67 1.86 2.14 2.42 2.83 3.24 3.76 4.31 4.69 5.22 5.61 5.79 5.70 5.33 4.83 4.22 3.79 3.47 3.16
0.05 0.04 0.02 0.01 0.02 0.04 0.05 0.13 0.35 0.45 0.52 0.56 0.41 0.74 1.39 1.63 1.60 1.71 1.77 1.84 1.87 1.76 1.69 1.56 1.51 1.52 1.63 1.84 2.14 2.41 2.66 3.08 3.35 3.66 4.11 4.39 4.41 4.23 3.98 3.73 3.46 3.03 2.61 2.26
0.12 0.10 0.05 0.02 0.04 0.05 0.05 0.11 0.38 0.64 0.59 0.58 0.67 1.21 1.75 1.73 1.57 1.54 1.59 1.62 1.63 1.48 1.46 1.48 1.48 1.52 1.63 1.61 1.74 1.93 2.06 2.28 2.44 2.57 2.80 2.87 2.83 2.73 2.70 2.55 2.30 2.03 1.74 1.45
0.21 0.16 0.07 0.04 0.03 0.03 0.05 0.10 0.15 0.33 0.40 0.65 1.11 1.65 2.02 1.82 1.72 1.63 1.45 1.30 1.44 1.38 1.29 1.34 1.38 1.43 1.48 1.46 1.46 1.53 1.56 1.57 1.63 1.65 1.75 1.82 1.80 1.78 1.74 1.63 1.48 1.36 1.24 1.08
0.18 0.18 0.09 0.05 0.05 0.06 0.06 0.09 0.14 0.31 0.66 0.93 1.28 1.79 2.26 2.22 2.11 2.03 1.73 1.43 1.48 1.45 1.41 1.30 1.18 1.22 1.30 1.30 1.31 1.36 1.38 1.27 1.20 1.16 1.17 1.19 1.22 1.18 1.15 1.12 1.05 1.03 0.99 0.89
0.16 0.18 0.15 0.09 0.10 0.13 0.11 0.13 0.19 0.36 0.54 0.93 1.55 2.13 2.11 2.33 2.38 2.18 1.83 1.53 1.51 1.47 1.44 1.41 1.36 1.25 1.23 1.23 1.23 1.20 1.17 1.13 1.07 1.03 1.01 0.94 0.87 0.84 0.83 0.81 0.77 0.74 0.69 0.64
0.17 0.21 0.25 0.15 0.13 0.13 0.15 0.17 0.20 0.45 0.54 0.68 1.32 2.18 2.15 2.34 2.42 2.20 2.08 1.86 1.69 1.69 1.56 1.48 1.46 1.36 1.33 1.20 1.14 1.13 1.08 0.98 0.92 0.91 0.88 0.79 0.73 0.71 0.70 0.68 0.62 0.56 0.58 0.57
0.18 0.33 0.48 0.57 0.45 0.25 0.17 0.16 0.21 0.27 0.42 0.74 1.30 2.13 2.25 2.29 2.18 2.07 1.95 1.91 1.98 2.05 1.89 1.66 1.52 1.30 1.17 1.02 0.94 0.93 0.92 0.88 0.84 0.85 0.86 0.83 0.75 0.69 0.66 0.66 0.60 0.55 0.56 0.54
0.18 0.35 0.66 1.09 0.88 0.43 0.25 0.21 0.25 0.32 0.61 0.91 1.17 1.74 2.04 2.16 2.23 2.26 2.18 2.14 2.06 1.81 1.52 1.38 1.28 1.10 0.98 0.89 0.84 0.79 0.78 0.78 0.79 0.82 0.89 0.89 0.84 0.77 0.70 0.67 0.68 0.63 0.57 0.53
0.21 0.41 0.46 0.50 0.44 0.32 0.30 0.30 0.35 0.41 0.53 0.84 1.14 1.63 2.03 2.14 2.23 2.22 2.22 2.12 1.83 1.59 1.44 1.32 1.19 1.10 0.99 0.85 0.75 0.68 0.67 0.69 0.70 0.77 0.79 0.76 0.73 0.73 0.68 0.65 0.66 0.62 0.57 0.52
0.25 0.48 0.44 0.44 0.39 0.42 0.48 0.48 0.51 0.49 0.59 0.81 1.15 1.70 1.98 2.17 2.20 2.11 2.11 2.02 1.90 1.77 1.64 1.48 1.32 1.19 1.06 0.89 0.79 0.75 0.73 0.73 0.69 0.71 0.72 0.67 0.62 0.62 0.59 0.59 0.54 0.50 0.51 0.52
0.32 0.49 0.61 0.58 0.38 0.59 1.00 0.78 0.69 0.74 0.80 1.04 1.40 1.66 1.62 1.72 1.85 1.93 1.97 1.93 1.87 1.79 1.73 1.63 1.52 1.40 1.22 1.07 0.97 0.92 0.87 0.78 0.73 0.73 0.69 0.66 0.66 0.64 0.59 0.56 0.54 0.51 0.52 0.52
0.31 0.51 0.60 0.66 0.75 1.34 1.33 0.85 0.76 0.86 0.99 0.95 1.10 1.23 1.29 1.35 1.50 1.60 1.66 1.78 1.86 1.85 1.76 1.68 1.55 1.46 1.35 1.21 1.06 0.93 0.81 0.74 0.72 0.72 0.66 0.62 0.62 0.63 0.61 0.63 0.63 0.57 0.53 0.55
0.22 0.47 0.72 0.87 1.19 1.47 1.31 0.86 0.83 1.15 1.41 1.02 0.94 0.96 0.96 1.00 1.21 1.51 1.61 1.72 1.84 1.79 1.72 1.67 1.55 1.46 1.38 1.21 1.04 0.88 0.81 0.73 0.70 0.65 0.59 0.57 0.56 0.59 0.60 0.61 0.62 0.57 0.57 0.61
0.22 0.38 0.76 1.02 1.45 1.76 1.60 0.79 0.55 1.00 1.77 1.11 0.87 0.91 1.02 1.19 1.45 1.46 1.34 1.35 1.54 1.65 1.70 1.66 1.50 1.34 1.23 1.04 0.87 0.79 0.76 0.69 0.66 0.57 0.50 0.48 0.52 0.55 0.54 0.55 0.60 0.60 0.61 0.65
0.51 0.62 0.85 1.15 1.54 1.64 0.95 0.52 0.65 1.50 1.75 1.21 1.04 1.07 1.17 1.38 1.45 1.18 1.05 1.13 1.27 1.42 1.48 1.40 1.31 1.20 1.02 0.83 0.75 0.76 0.69 0.63 0.55 0.48 0.47 0.48 0.52 0.57 0.54 0.55 0.60 0.61 0.60 0.65
0.71 0.96 1.11 1.30 1.64 1.66 0.70 0.53 0.97 1.22 0.96 0.87 0.84 0.82 0.93 0.93 0.87 0.86 0.94 1.07 1.20 1.30 1.26 1.17 1.13 1.03 0.90 0.80 0.79 0.81 0.75 0.61 0.52 0.52 0.51 0.52 0.52 0.43 0.43 0.57 0.61 0.58 0.62 0.66
0.60 0.84 1.05 1.28 1.45 1.15 0.66 0.58 0.63 0.68 0.74 0.69 0.70 0.66 0.71 0.76 0.76 0.79 0.85 0.99 1.08 1.12 1.08 0.97 0.87 0.85 0.84 0.81 0.83 0.84 0.75 0.61 0.59 0.66 0.63 0.57 0.55 0.53 0.57 0.61 0.58 0.56 0.57 0.54
0.60 0.48 0.67 0.91 0.87 0.71 0.59 0.54 0.48 0.46 0.52 0.51 0.52 0.55 0.64 0.76 0.78 0.81 0.79 0.83 0.90 0.91 0.90 0.86 0.80 0.80 0.78 0.74 0.69 0.71 0.64 0.60 0.67 0.72 0.65 0.59 0.60 0.65 0.62 0.57 0.47 0.44 0.40 0.38
0.64 0.72 0.95 1.14 0.91 0.79 0.71 0.57 0.48 0.42 0.39 0.38 0.44 0.48 0.55 0.64 0.67 0.66 0.69 0.71 0.70 0.68 0.70 0.71 0.71 0.67 0.60 0.56 0.53 0.51 0.51 0.55 0.67 0.71 0.67 0.61 0.54 0.53 0.54 0.43 0.31 0.31 0.28 0.24
0.50 0.85 1.35 1.21 0.95 0.98 0.81 0.61 0.51 0.48 0.50 0.48 0.42 0.40 0.42 0.49 0.53 0.54 0.58 0.59 0.55 0.52 0.55 0.58 0.59 0.54 0.49 0.47 0.47 0.45 0.43 0.43 0.57 0.64 0.60 0.52 0.41 0.37 0.33 0.30 0.30 0.24 0.20 0.21

GEFSCGP_prec_meanprecacc_222.txt.gz
Total_Precipitation_Accumulation
0.03 0.03 0.04 0.05 0.05 0.07 0.08 0.09 0.14 0.17 0.20 0.28 0.40 0.57 0.74 0.80 0.98 1.06 1.19 1.23 1.47 1.56 1.72 2.13 2.60 2.95 3.31 3.35 3.42 3.38 3.44 3.59 3.69 3.81 3.79 3.95 3.90 3.86 4.09 4.29 4.36 4.46 4.51 4.37
0.03 0.02 0.02 0.02 0.03 0.06 0.08 0.09 0.18 0.26 0.27 0.37 0.47 0.63 0.82 0.92 0.93 1.13 1.34 1.35 1.79 1.93 1.93 2.16 2.64 3.00 3.32 3.51 3.62 3.72 3.76 3.74 3.83 4.22 4.64 5.00 5.24 5.28 5.24 5.33 5.33 5.18 5.04 4.93
0.02 0.02 0.01 0.02 0.03 0.07 0.10 0.12 0.20 0.32 0.33 0.43 0.56 0.94 1.06 1.01 1.03 1.20 1.44 1.50 1.86 2.10 2.21 2.07 2.22 2.60 3.00 3.31 3.54 3.61 3.85 4.14 4.54 5.05 5.50 5.84 6.11 6.23 6.05 5.80 5.67 5.42 5.19 5.02
0.02 0.02 0.02 0.02 0.04 0.06 0.10 0.10 0.17 0.24 0.32 0.49 0.54 1.02 1.21 1.17 1.28 1.40 1.49 1.42 1.62 1.70 1.94 2.09 2.12 2.33 2.65 2.93 3.23 3.49 3.76 4.32 5.13 5.80 6.24 6.58 6.71 6.66 6.50 6.25 5.86 5.38 4.99 4.64
0.02 0.03 0.03 0.03 0.03 0.03 0.05 0.06 0.12 0.17 0.22 0.37 0.44 0.84 1.18 1.22 1.40 1.54 1.62 1.48 1.52 1.66 1.67 1.77 1.86 2.02 2.36 2.67 2.95 3.30 3.62 4.27 4.96 5.58 6.18 6.60 6.71 6.62 6.38 5.93 5.42 4.89 4.40 3.98
0.03 0.03 0.02 0.02 0.02 0.03 0.04 0.08 0.16 0.23 0.33 0.54 0.47 0.71 1.27 1.48 1.62 1.77 1.73 1.77 1.91 1.82 1.68 1.65 1.65 1.72 1.94 2.24 2.52 2.92 3.30 3.81 4.36 4.75 5.30 5.69 5.85 5.76 5.40 4.89 4.29 3.87 3.57 3.27
0.06 0.04 0.03 0.03 0.03 0.04 0.06 0.14 0.40 0.50 0.57 0.62 0.45 0.81 1.49 1.71 1.66 1.76 1.80 1.89 1.94 1.85 1.80 1.65 1.62 1.63 1.73 1.94 2.22 2.47 2.70 3.11 3.38 3.70 4.15 4.44 4.46 4.29 4.03 3.78 3.53 3.11 2.71 2.35
0.13 0.11 0.06 0.04 0.05 0.06 0.05 0.12 0.42 0.69 0.67 0.65 0.72 1.29 1.86 1.83 1.65 1.60 1.64 1.70 1.72 1.58 1.54 1.55 1.55 1.59 1.70 1.69 1.81 1.99 2.10 2.31 2.46 2.59 2.82 2.90 2.87 2.78 2.75 2.62 2.37 2.10 1.79 1.51
0.22 0.17 0.07 0.04 0.04 0.05 0.07 0.11 0.17 0.36 0.44 0.72 1.19 1.73 2.11 1.88 1.77 1.68 1.51 1.38 1.52 1.45 1.35 1.40 1.45 1.51 1.59 1.54 1.50 1.56 1.59 1.60 1.66 1.68 1.78 1.86 1.85 1.84 1.80 1.68 1.53 1.41 1.30 1.13
0.19 0.19 0.10 0.05 0.05 0.07 0.08 0.11 0.18 0.35 0.71 1.00 1.36 1.85 2.32 2.27 2.15 2.07 1.81 1.53 1.60 1.55 1.49 1.37 1.27 1.34 1.44 1.39 1.36 1.40 1.42 1.30 1.22 1.18 1.20 1.23 1.27 1.23 1.20 1.17 1.09 1.07 1.04 0.96
0.17 0.18 0.16 0.10 0.12 0.15 0.12 0.14 0.20 0.39 0.59 0.99 1.62 2.20 2.17 2.37 2.43 2.23 1.91 1.63 1.63 1.56 1.52 1.50 1.43 1.32 1.30 1.31 1.32 1.26 1.21 1.16 1.10 1.06 1.04 0.99 0.93 0.91 0.90 0.87 0.82 0.80 0.76 0.73
0.18 0.22 0.26 0.16 0.13 0.14 0.16 0.19 0.22 0.49 0.58 0.71 1.37 2.26 2.21 2.39 2.47 2.25 2.17 1.97 1.79 1.78 1.66 1.57 1.51 1.39 1.36 1.23 1.18 1.16 1.10 1.01 0.95 0.95 0.92 0.84 0.80 0.78 0.77 0.74 0.68 0.62 0.64 0.67
0.18 0.33 0.49 0.58 0.47 0.26 0.18 0.17 0.23 0.30 0.45 0.77 1.35 2.21 2.32 2.34 2.23 2.12 2.02 1.99 2.06 2.13 1.96 1.72 1.56 1.34 1.20 1.04 0.95 0.94 0.94 0.90 0.87 0.90 0.92 0.87 0.80 0.73 0.70 0.69 0.64 0.59 0.61 0.60
0.18 0.36 0.67 1.12 0.90 0.45 0.28 0.24 0.27 0.34 0.63 0.94 1.22 1.79 2.09 2.20 2.27 2.31 2.23 2.19 2.11 1.85 1.56 1.41 1.31 1.14 1.01 0.91 0.85 0.81 0.79 0.81 0.81 0.85 0.92 0.93 0.87 0.80 0.72 0.69 0.71 0.65 0.60 0.57
0.22 0.42 0.47 0.52 0.45 0.33 0.31 0.31 0.36 0.42 0.54 0.86 1.16 1.65 2.06 2.16 2.25 2.25 2.25 2.14 1.86 1.61 1.47 1.35 1.23 1.14 1.03 0.88 0.76 0.70 0.69 0.71 0.71 0.79 0.81 0.79 0.75 0.75 0.69 0.66 0.67 0.63 0.59 0.55
0.26 0.49 0.46 0.45 0.40 0.42 0.49 0.49 0.51 0.50 0.60 0.82 1.16 1.72 2.01 2.18 2.22 2.13 2.13 2.03 1.92 1.80 1.68 1.51 1.35 1.22 1.08 0.92 0.82 0.77 0.76 0.75 0.71 0.73 0.75 0.69 0.63 0.62 0.60 0.60 0.54 0.51 0.54 0.57
0.32 0.51 0.63 0.59 0.39 0.61 1.02 0.79 0.69 0.75 0.81 1.04 1.42 1.68 1.64 1.73 1.86 1.94 1.99 1.94 1.89 1.82 1.76 1.66 1.56 1.45 1.26 1.10 1.02 0.96 0.90 0.79 0.74 0.74 0.70 0.67 0.67 0.64 0.59 0.57 0.55 0.53 0.55 0.58
0.32 0.52 0.63 0.67 0.77 1.38 1.37 0.86 0.77 0.87 1.00 0.96 1.11 1.24 1.31 1.36 1.51 1.61 1.67 1.80 1.88 1.86 1.78 1.71 1.60 1.51 1.39 1.24 1.09 0.96 0.84 0.77 0.74 0.73 0.68 0.63 0.63 0.64 0.62 0.63 0.63 0.60 0.56 0.59
0.23 0.49 0.74 0.90 1.22 1.49 1.34 0.88 0.84 1.16 1.42 1.03 0.95 0.98 0.98 1.01 1.23 1.54 1.64 1.74 1.86 1.81 1.74 1.70 1.59 1.49 1.40 1.23 1.05 0.90 0.84 0.76 0.72 0.67 0.61 0.58 0.57 0.60 0.61 0.62 0.62 0.59 0.61 0.63
0.22 0.39 0.79 1.05 1.48 1.80 1.64 0.80 0.56 1.02 1.81 1.14 0.89 0.93 1.04 1.21 1.48 1.49 1.36 1.36 1.55 1.66 1.71 1.68 1.52 1.36 1.25 1.05 0.88 0.81 0.78 0.72 0.68 0.60 0.53 0.51 0.54 0.56 0.55 0.56 0.61 0.63 0.65 0.68
0.53 0.64 0.87 1.17 1.58 1.68 0.98 0.54 0.68 1.55 1.80 1.25 1.07 1.09 1.19 1.39 1.46 1.19 1.05 1.13 1.27 1.43 1.49 1.42 1.33 1.22 1.03 0.84 0.77 0.78 0.71 0.65 0.57 0.50 0.50 0.52 0.55 0.59 0.56 0.58 0.64 0.66 0.64 0.68
0.73 0.99 1.14 1.33 1.68 1.70 0.72 0.56 1.01 1.26 0.99 0.90 0.86 0.83 0.94 0.94 0.87 0.86 0.94 1.08 1.21 1.30 1.27 1.19 1.15 1.05 0.92 0.82 0.80 0.83 0.76 0.62 0.53 0.53 0.54 0.56 0.57 0.47 0.46 0.61 0.65 0.61 0.64 0.68
0.63 0.86 1.07 1.30 1.48 1.18 0.68 0.60 0.66 0.70 0.77 0.72 0.74 0.68 0.72 0.77 0.78 0.81 0.87 1.01 1.10 1.13 1.10 0.98 0.88 0.87 0.86 0.83 0.85 0.85 0.76 0.62 0.60 0.67 0.67 0.61 0.60 0.58 0.60 0.63 0.59 0.58 0.58 0.55
0.62 0.49 0.69 0.94 0.90 0.74 0.62 0.56 0.49 0.47 0.54 0.53 0.55 0.59 0.67 0.79 0.81 0.83 0.81 0.85 0.92 0.93 0.92 0.88 0.81 0.82 0.80 0.76 0.70 0.72 0.66 0.62 0.69 0.74 0.69 0.64 0.65 0.68 0.65 0.58 0.47 0.45 0.41 0.39
0.64 0.74 0.99 1.18 0.95 0.82 0.72 0.58 0.49 0.43 0.40 0.40 0.45 0.50 0.57 0.66 0.69 0.68 0.71 0.72 0.72 0.70 0.72 0.73 0.74 0.70 0.64 0.59 0.55 0.54 0.54 0.57 0.70 0.73 0.69 0.64 0.56 0.54 0.55 0.43 0.32 0.31 0.28 0.25
0.51 0.87 1.37 1.22 0.96 1.00 0.82 0.62 0.52 0.49 0.51 0.49 0.44 0.41 0.43 0.50 0.54 0.54 0.59 0.59 0.56 0.54 0.57 0.60 0.61 0.57 0.54 0.51 0.50 0.50 0.47 0.47 0.60 0.65 0.62 0.53 0.42 0.37 0.33 0.30 0.30 0.25 0.20 0.22

GEFSCGP_prec_meanprecacc_228.txt.gz
Total_Precipitation_Accumulation
0.03 0.03 0.04 0.05 0.05 0.07 0.08 0.09 0.14 0.17 0.21 0.29 0.40 0.58 0.75 0.82 1.00 1.08 1.22 1.25 1.49 1.58 1.75 2.17 2.65 3.02 3.40 3.45 3.53 3.48 3.56 3.74 3.86 3.98 3.96 4.09 4.01 3.97 4.18 4.38 4.44 4.56 4.60 4.44
0.03 0.02 0.02 0.02 0.03 0.06 0.08 0.10 0.18 0.26 0.28 0.38 0.48 0.64 0.83 0.94 0.95 1.15 1.37 1.38 1.82 1.97 1.97 2.20 2.70 3.08 3.42 3.62 3.69 3.80 3.89 3.90 4.01 4.39 4.80 5.13 5.37 5.40 5.32 5.40 5.41 5.26 5.13 5.02
0.02 0.02 0.01 0.03 0.04 0.08 0.10 0.12 0.20 0.33 0.34 0.44 0.58 0.96 1.08 1.05 1.07 1.24 1.48 1.54 1.89 2.14 2.26 2.12 2.27 2.68 3.10 3.41 3.62 3.69 3.93 4.25 4.70 5.24 5.66 5.96 6.23 6.33 6.11 5.86 5.74 5.51 5.27 5.10
0.03 0.02 0.02 0.03 0.04 0.06 0.10 0.10 0.17 0.24 0.32 0.50 0.55 1.06 1.29 1.25 1.32 1.43 1.53 1.47 1.66 1.75 1.99 2.15 2.17 2.40 2.74 3.03 3.30 3.56 3.83 4.41 5.25 5.91 6.35 6.69 6.79 6.73 6.56 6.31 5.93 5.44 5.06 4.71
0.03 0.03 0.03 0.03 0.03 0.03 0.05 0.07 0.13 0.17 0.22 0.38 0.46 0.89 1.24 1.27 1.43 1.57 1.65 1.52 1.57 1.72 1.73 1.83 1.92 2.09 2.46 2.78 3.04 3.38 3.73 4.36 5.05 5.68 6.27 6.67 6.78 6.68 6.44 5.99 5.48 4.94 4.46 4.05
0.03 0.03 0.03 0.02 0.02 0.03 0.04 0.08 0.16 0.23 0.34 0.55 0.49 0.75 1.32 1.53 1.66 1.81 1.77 1.82 2.01 1.92 1.76 1.73 1.73 1.80 2.02 2.34 2.61 3.00 3.39 3.91 4.46 4.85 5.37 5.74 5.90 5.81 5.45 4.93 4.34 3.93 3.64 3.34
0.06 0.05 0.03 0.03 0.03 0.04 0.06 0.14 0.40 0.50 0.58 0.63 0.47 0.84 1.54 1.76 1.71 1.81 1.86 1.98 2.08 1.95 1.88 1.74 1.70 1.70 1.80 2.00 2.27 2.53 2.76 3.19 3.47 3.79 4.22 4.48 4.49 4.33 4.08 3.82 3.58 3.18 2.78 2.45
0.14 0.12 0.06 0.05 0.06 0.06 0.05 0.12 0.43 0.70 0.67 0.65 0.73 1.33 1.91 1.86 1.70 1.64 1.72 1.84 1.86 1.67 1.61 1.61 1.61 1.65 1.77 1.75 1.87 2.04 2.15 2.35 2.51 2.65 2.87 2.93 2.89 2.81 2.80 2.68 2.43 2.17 1.87 1.60
0.22 0.18 0.08 0.05 0.04 0.05 0.07 0.11 0.17 0.36 0.44 0.73 1.22 1.77 2.14 1.91 1.82 1.74 1.60 1.47 1.59 1.51 1.40 1.46 1.53 1.57 1.66 1.61 1.58 1.64 1.66 1.66 1.71 1.73 1.82 1.88 1.88 1.88 1.85 1.77 1.63 1.51 1.39 1.22
0.19 0.19 0.10 0.06 0.05 0.07 0.08 0.11 0.18 0.35 0.72 1.01 1.38 1.88 2.35 2.30 2.21 2.14 1.89 1.58 1.64 1.59 1.53 1.43 1.36 1.44 1.53 1.46 1.42 1.46 1.49 1.36 1.27 1.22 1.24 1.26 1.32 1.30 1.30 1.28 1.20 1.16 1.14 1.07
0.17 0.19 0.16 0.10 0.12 0.15 0.12 0.14 0.21 0.40 0.60 0.99 1.63 2.22 2.19 2.41 2.49 2.30 1.98 1.69 1.68 1.61 1.56 1.54 1.49 1.40 1.37 1.37 1.37 1.30 1.24 1.19 1.13 1.09 1.07 1.02 0.98 0.96 0.95 0.92 0.87 0.85 0.83 0.81
0.18 0.22 0.27 0.17 0.14 0.14 0.17 0.19 0.23 0.49 0.58 0.71 1.37 2.28 2.23 2.42 2.51 2.31 2.25 2.05 1.85 1.82 1.68 1.59 1.53 1.43 1.40 1.27 1.22 1.19 1.14 1.04 0.98 0.98 0.95 0.87 0.82 0.82 0.83 0.79 0.72 0.66 0.67 0.69
0.18 0.33 0.49 0.59 0.47 0.26 0.19 0.18 0.23 0.30 0.45 0.77 1.36 2.23 2.34 2.36 2.26 2.17 2.08 2.06 2.11 2.16 1.98 1.74 1.59 1.36 1.22 1.07 0.98 0.98 0.97 0.93 0.89 0.92 0.93 0.89 0.81 0.76 0.73 0.72 0.66 0.61 0.63 0.63
0.18 0.36 0.67 1.12 0.91 0.46 0.29 0.25 0.29 0.35 0.64 0.95 1.23 1.81 2.11 2.22 2.30 2.34 2.28 2.24 2.14 1.88 1.58 1.43 1.33 1.15 1.03 0.93 0.88 0.84 0.81 0.82 0.83 0.86 0.94 0.94 0.89 0.81 0.74 0.71 0.72 0.67 0.63 0.60
0.22 0.42 0.48 0.52 0.46 0.34 0.32 0.32 0.37 0.43 0.55 0.87 1.17 1.66 2.08 2.18 2.28 2.27 2.27 2.17 1.88 1.64 1.49 1.37 1.24 1.16 1.05 0.91 0.79 0.71 0.70 0.72 0.72 0.80 0.82 0.79 0.76 0.76 0.71 0.68 0.69 0.66 0.62 0.58
0.26 0.50 0.46 0.46 0.40 0.43 0.50 0.49 0.52 0.51 0.60 0.82 1.17 1.73 2.02 2.20 2.24 2.15 2.15 2.05 1.93 1.82 1.71 1.54 1.38 1.25 1.11 0.94 0.83 0.78 0.76 0.76 0.72 0.74 0.75 0.70 0.64 0.64 0.62 0.62 0.57 0.53 0.56 0.59
0.33 0.51 0.63 0.60 0.40 0.62 1.02 0.80 0.70 0.76 0.81 1.05 1.42 1.69 1.65 1.74 1.87 1.96 2.01 1.96 1.91 1.83 1.78 1.69 1.59 1.48 1.29 1.13 1.04 0.97 0.91 0.80 0.75 0.75 0.71 0.69 0.68 0.65 0.60 0.58 0.56 0.54 0.56 0.60
0.33 0.53 0.63 0.68 0.78 1.39 1.37 0.87 0.78 0.87 1.01 0.97 1.12 1.25 1.31 1.37 1.51 1.62 1.68 1.81 1.91 1.89 1.80 1.73 1.62 1.54 1.41 1.25 1.10 0.97 0.85 0.78 0.75 0.74 0.68 0.64 0.64 0.65 0.63 0.65 0.66 0.62 0.58 0.62
0.23 0.49 0.75 0.91 1.23 1.50 1.35 0.89 0.85 1.17 1.43 1.04 0.97 0.99 0.98 1.02 1.23 1.55 1.65 1.76 1.88 1.83 1.75 1.72 1.61 1.51 1.42 1.24 1.06 0.90 0.85 0.77 0.73 0.69 0.62 0.59 0.58 0.62 0.63 0.64 0.65 0.62 0.63 0.66
0.23 0.39 0.79 1.06 1.50 1.81 1.65 0.81 0.58 1.04 1.84 1.17 0.91 0.95 1.05 1.22 1.49 1.50 1.36 1.37 1.56 1.66 1.72 1.69 1.53 1.37 1.26 1.06 0.89 0.82 0.78 0.73 0.69 0.61 0.55 0.53 0.56 0.58 0.57 0.59 0.63 0.64 0.66 0.69
0.54 0.64 0.87 1.18 1.59 1.69 0.99 0.55 0.69 1.58 1.83 1.27 1.11 1.12 1.22 1.41 1.47 1.20 1.06 1.13 1.27 1.43 1.50 1.43 1.34 1.23 1.04 0.85 0.78 0.78 0.72 0.66 0.57 0.51 0.52 0.55 0.58 0.62 0.59 0.61 0.67 0.68 0.65 0.69
0.74 0.99 1.14 1.34 1.70 1.73 0.73 0.57 1.04 1.29 1.00 0.91 0.87 0.85 0.96 0.96 0.89 0.87 0.95 1.08 1.21 1.31 1.29 1.21 1.17 1.06 0.93 0.82 0.81 0.83 0.76 0.63 0.54 0.54 0.55 0.58 0.59 0.50 0.48 0.62 0.65 0.62 0.65 0.68
0.64 0.87 1.08 1.32 1.50 1.20 0.69 0.62 0.68 0.72 0.78 0.73 0.75 0.69 0.73 0.79 0.79 0.81 0.87 1.02 1.11 1.14 1.11 1.00 0.91 0.89 0.88 0.85 0.85 0.86 0.77 0.63 0.61 0.69 0.68 0.63 0.61 0.60 0.62 0.64 0.60 0.58 0.58 0.55
0.63 0.50 0.70 0.96 0.91 0.75 0.64 0.57 0.50 0.48 0.55 0.54 0.56 0.60 0.68 0.81 0.82 0.84 0.82 0.86 0.93 0.93 0.92 0.89 0.84 0.84 0.81 0.77 0.71 0.73 0.66 0.63 0.71 0.76 0.70 0.65 0.66 0.70 0.67 0.59 0.48 0.45 0.41 0.40
0.65 0.75 1.01 1.21 0.97 0.84 0.74 0.59 0.50 0.44 0.41 0.41 0.47 0.51 0.58 0.68 0.70 0.68 0.72 0.73 0.72 0.70 0.73 0.75 0.75 0.72 0.65 0.60 0.55 0.54 0.54 0.58 0.72 0.76 0.71 0.65 0.58 0.56 0.56 0.44 0.32 0.31 0.29 0.26
0.51 0.88 1.38 1.23 0.98 1.02 0.84 0.63 0.52 0.50 0.52 0.50 0.45 0.42 0.45 0.51 0.55 0.55 0.60 0.61 0.57 0.55 0.58 0.61 0.63 0.58 0.55 0.52 0.50 0.50 0.47 0.48 0.62 0.67 0.64 0.55 0.45 0.39 0.34 0.31 0.31 0.25 0.21 0.22

GEFSCGP_prec_meanprecacc_234.txt.gz
Total_Precipitation_Accumulation
0.03 0.03 0.04 0.05 0.05 0.07 0.08 0.09 0.15 0.17 0.21 0.30 0.41 0.60 0.77 0.84 1.02 1.10 1.26 1.31 1.54 1.62 1.77 2.18 2.65 3.03 3.41 3.48 3.58 3.55 3.62 3.79 3.91 4.03 4.02 4.17 4.10 4.02 4.22 4.43 4.49 4.62 4.68 4.53
0.04 0.03 0.02 0.03 0.03 0.06 0.08 0.10 0.19 0.27 0.29 0.38 0.49 0.66 0.87 0.99 0.97 1.16 1.39 1.42 1.87 2.00 1.99 2.21 2.70 3.09 3.43 3.65 3.75 3.87 3.96 3.95 4.06 4.45 4.87 5.19 5.44 5.45 5.37 5.45 5.47 5.32 5.19 5.10
0.03 0.02 0.02 0.03 0.04 0.08 0.10 0.13 0.21 0.34 0.35 0.45 0.60 0.98 1.11 1.08 1.09 1.25 1.50 1.58 1.94 2.16 2.27 2.13 2.28 2.69 3.11 3.44 3.66 3.75 3.99 4.31 4.76 5.31 5.73 6.03 6.31 6.40 6.18 5.94 5.81 5.55 5.31 5.16
0.03 0.03 0.02 0.03 0.04 0.06 0.11 0.11 0.18 0.25 0.33 0.52 0.57 1.09 1.31 1.27 1.34 1.45 1.55 1.51 1.72 1.78 2.01 2.16 2.19 2.41 2.76 3.05 3.34 3.61 3.89 4.46 5.33 5.98 6.41 6.76 6.87 6.79 6.62 6.38 6.00 5.50 5.11 4.77
0.04 0.04 0.04 0.04 0.03 0.04 0.06 0.07 0.13 0.18 0.24 0.39 0.47 0.91 1.27 1.29 1.45 1.59 1.67 1.56 1.62 1.76 1.76 1.85 1.94 2.11 2.50 2.83 3.09 3.44 3.78 4.43 5.11 5.73 6.31 6.73 6.84 6.75 6.51 6.05 5.53 4.99 4.51 4.09
0.04 0.04 0.03 0.03 0.02 0.03 0.04 0.09 0.17 0.24 0.35 0.57 0.50 0.78 1.37 1.56 1.70 1.84 1.79 1.86 2.05 1.98 1.82 1.77 1.76 1.84 2.07 2.39 2.67 3.06 3.45 3.97 4.52 4.92 5.42 5.80 5.97 5.87 5.50 4.99 4.39 3.97 3.68 3.39
0.07 0.05 0.03 0.03 0.03 0.05 0.06 0.15 0.42 0.52 0.60 0.65 0.48 0.86 1.58 1.78 1.74 1.86 1.93 2.03 2.14 2.04 1.94 1.80 1.74 1.73 1.85 2.06 2.33 2.59 2.83 3.25 3.55 3.87 4.30 4.56 4.56 4.40 4.13 3.87 3.64 3.23 2.83 2.50
0.15 0.12 0.06 0.05 0.06 0.06 0.06 0.13 0.43 0.71 0.69 0.67 0.75 1.36 1.95 1.90 1.74 1.69 1.79 1.91 1.94 1.75 1.69 1.68 1.65 1.68 1.80 1.78 1.91 2.10 2.21 2.40 2.57 2.73 2.94 2.98 2.95 2.89 2.85 2.73 2.48 2.22 1.92 1.64
0.23 0.18 0.08 0.05 0.04 0.05 0.07 0.11 0.17 0.36 0.45 0.74 1.23 1.79 2.17 1.95 1.86 1.80 1.67 1.54 1.66 1.59 1.49 1.53 1.59 1.63 1.71 1.66 1.62 1.69 1.72 1.71 1.78 1.82 1.92 1.97 1.94 1.93 1.91 1.82 1.68 1.54 1.43 1.26
0.19 0.19 0.11 0.06 0.05 0.07 0.08 0.11 0.18 0.36 0.73 1.02 1.39 1.90 2.37 2.34 2.27 2.21 1.95 1.63 1.69 1.65 1.59 1.50 1.45 1.53 1.60 1.52 1.47 1.50 1.53 1.45 1.41 1.36 1.35 1.35 1.38 1.36 1.34 1.31 1.22 1.18 1.16 1.09
0.17 0.19 0.17 0.11 0.13 0.15 0.12 0.15 0.21 0.40 0.60 1.00 1.64 2.24 2.22 2.45 2.55 2.37 2.06 1.74 1.73 1.65 1.61 1.61 1.56 1.46 1.42 1.41 1.41 1.33 1.28 1.25 1.20 1.14 1.11 1.06 1.01 0.99 0.97 0.93 0.89 0.87 0.85 0.83
0.18 0.23 0.28 0.18 0.14 0.14 0.17 0.19 0.23 0.51 0.60 0.72 1.38 2.30 2.26 2.45 2.56 2.37 2.30 2.08 1.88 1.86 1.73 1.63 1.58 1.48 1.44 1.31 1.25 1.22 1.18 1.09 1.01 1.00 0.97 0.89 0.84 0.83 0.86 0.82 0.74 0.69 0.70 0.72
0.19 0.34 0.51 0.61 0.49 0.27 0.20 0.19 0.24 0.31 0.47 0.78 1.37 2.25 2.36 2.39 2.29 2.20 2.11 2.08 2.13 2.18 2.01 1.77 1.62 1.40 1.27 1.12 1.03 1.01 1.01 0.96 0.92 0.95 0.95 0.90 0.83 0.78 0.75 0.73 0.67 0.63 0.65 0.65
0.19 0.37 0.69 1.14 0.93 0.47 0.30 0.26 0.29 0.35 0.65 0.96 1.24 1.83 2.13 2.24 2.31 2.36 2.29 2.25 2.16 1.90 1.60 1.46 1.36 1.19 1.08 0.99 0.94 0.88 0.85 0.85 0.85 0.89 0.96 0.96 0.91 0.83 0.76 0.73 0.75 0.69 0.65 0.61
0.23 0.44 0.49 0.53 0.47 0.35 0.32 0.32 0.37 0.44 0.55 0.88 1.18 1.67 2.10 2.20 2.29 2.28 2.28 2.18 1.89 1.65 1.52 1.39 1.28 1.20 1.09 0.96 0.85 0.75 0.73 0.75 0.75 0.83 0.85 0.81 0.79 0.78 0.72 0.69 0.71 0.68 0.63 0.59
0.27 0.52 0.48 0.47 0.41 0.43 0.50 0.49 0.52 0.51 0.61 0.83 1.18 1.75 2.03 2.21 2.25 2.16 2.16 2.06 1.94 1.83 1.72 1.57 1.42 1.29 1.15 0.98 0.89 0.83 0.81 0.80 0.76 0.78 0.78 0.72 0.66 0.65 0.64 0.64 0.59 0.55 0.57 0.61
0.33 0.52 0.65 0.60 0.40 0.62 1.03 0.80 0.70 0.76 0.82 1.07 1.44 1.70 1.66 1.75 1.88 1.96 2.01 1.97 1.92 1.85 1.79 1.71 1.63 1.52 1.32 1.16 1.08 1.01 0.95 0.83 0.78 0.77 0.73 0.70 0.70 0.68 0.63 0.61 0.59 0.57 0.58 0.62
0.33 0.53 0.64 0.69 0.79 1.40 1.38 0.88 0.79 0.88 1.01 0.98 1.14 1.27 1.33 1.38 1.52 1.62 1.68 1.81 1.91 1.91 1.82 1.75 1.64 1.56 1.44 1.28 1.12 0.98 0.87 0.79 0.76 0.75 0.69 0.65 0.66 0.69 0.68 0.71 0.72 0.67 0.62 0.64
0.23 0.49 0.76 0.92 1.24 1.51 1.36 0.90 0.86 1.19 1.45 1.06 0.98 1.00 0.99 1.02 1.24 1.56 1.65 1.76 1.88 1.84 1.77 1.73 1.62 1.52 1.44 1.26 1.07 0.92 0.87 0.79 0.75 0.70 0.63 0.60 0.59 0.64 0.66 0.67 0.69 0.67 0.67 0.68
0.23 0.40 0.80 1.07 1.51 1.82 1.66 0.82 0.58 1.07 1.87 1.18 0.92 0.96 1.06 1.23 1.50 1.51 1.38 1.38 1.57 1.68 1.73 1.70 1.54 1.38 1.27 1.07 0.90 0.83 0.80 0.74 0.70 0.62 0.56 0.54 0.56 0.60 0.60 0.62 0.65 0.66 0.68 0.70
0.55 0.65 0.88 1.19 1.60 1.70 1.00 0.55 0.71 1.61 1.86 1.28 1.11 1.13 1.23 1.43 1.49 1.22 1.08 1.15 1.28 1.44 1.51 1.44 1.35 1.25 1.05 0.86 0.79 0.80 0.73 0.67 0.58 0.52 0.53 0.56 0.59 0.63 0.60 0.63 0.68 0.69 0.67 0.70
0.75 1.01 1.15 1.35 1.71 1.74 0.74 0.58 1.06 1.32 1.02 0.92 0.88 0.86 0.98 0.97 0.91 0.89 0.96 1.09 1.22 1.32 1.29 1.22 1.19 1.08 0.96 0.84 0.83 0.86 0.78 0.64 0.55 0.55 0.57 0.58 0.60 0.51 0.48 0.63 0.67 0.63 0.66 0.69
0.65 0.88 1.09 1.33 1.51 1.21 0.69 0.62 0.68 0.73 0.79 0.74 0.76 0.70 0.75 0.80 0.81 0.83 0.89 1.03 1.12 1.15 1.12 1.01 0.92 0.91 0.90 0.87 0.87 0.88 0.79 0.64 0.62 0.69 0.69 0.63 0.62 0.60 0.62 0.65 0.61 0.59 0.60 0.56
0.63 0.50 0.71 0.97 0.92 0.76 0.64 0.58 0.50 0.49 0.56 0.54 0.57 0.61 0.70 0.82 0.83 0.85 0.83 0.87 0.95 0.95 0.94 0.90 0.85 0.86 0.83 0.79 0.72 0.74 0.67 0.63 0.71 0.76 0.71 0.66 0.67 0.71 0.67 0.60 0.49 0.46 0.43 0.41
0.65 0.75 1.01 1.21 0.98 0.84 0.74 0.60 0.50 0.44 0.41 0.41 0.47 0.52 0.59 0.68 0.70 0.69 0.73 0.74 0.73 0.71 0.74 0.76 0.77 0.73 0.67 0.62 0.57 0.56 0.56 0.59 0.73 0.77 0.72 0.66 0.59 0.57 0.57 0.45 0.33 0.32 0.30 0.27
0.53 0.89 1.39 1.24 0.99 1.03 0.85 0.64 0.53 0.50 0.52 0.50 0.45 0.43 0.46 0.52 0.55 0.56 0.61 0.61 0.58 0.56 0.59 0.62 0.64 0.60 0.56 0.54 0.53 0.52 0.49 0.49 0.63 0.69 0.65 0.56 0.45 0.40 0.36 0.32 0.32 0.26 0.21 0.23

GEFSCGP_prec_meanprecacc_240.txt.gz
Total_Precipitation_Accumulation
0.03 0.04 0.05 0.05 0.05 0.08 0.09 0.10 0.16 0.19 0.22 0.30 0.43 0.63 0.82 0.87 1.03 1.11 1.28 1.32 1.55 1.65 1.80 2.20 2.67 3.04 3.44 3.52 3.63 3.61 3.70 3.87 4.00 4.13 4.12 4.25 4.19 4.11 4.31 4.50 4.56 4.68 4.74 4.59
0.04 0.03 0.03 0.03 0.03 0.07 0.10 0.12 0.21 0.30 0.30 0.40 0.51 0.68 0.89 1.00 0.98 1.18 1.41 1.44 1.90 2.02 2.02 2.23 2.72 3.11 3.45 3.68 3.79 3.92 4.02 4.02 4.14 4.54 4.96 5.28 5.53 5.53 5.44 5.53 5.56 5.40 5.27 5.18
0.04 0.03 0.02 0.03 0.04 0.08 0.13 0.15 0.23 0.36 0.36 0.47 0.61 1.01 1.14 1.10 1.10 1.27 1.51 1.60 1.97 2.19 2.31 2.17 2.30 2.72 3.14 3.47 3.70 3.79 4.04 4.36 4.83 5.40 5.81 6.12 6.39 6.46 6.25 6.02 5.91 5.64 5.41 5.27
0.04 0.03 0.02 0.03 0.05 0.07 0.12 0.12 0.18 0.25 0.35 0.55 0.59 1.15 1.36 1.30 1.37 1.48 1.57 1.53 1.75 1.80 2.04 2.18 2.21 2.45 2.80 3.09 3.39 3.68 3.95 4.53 5.41 6.07 6.51 6.85 6.95 6.87 6.70 6.47 6.09 5.59 5.21 4.88
0.05 0.04 0.05 0.04 0.03 0.04 0.06 0.08 0.14 0.18 0.25 0.43 0.50 0.98 1.34 1.32 1.50 1.64 1.75 1.59 1.65 1.79 1.78 1.88 1.96 2.14 2.53 2.88 3.15 3.50 3.85 4.51 5.20 5.83 6.41 6.83 6.94 6.85 6.61 6.15 5.64 5.07 4.60 4.19
0.05 0.04 0.03 0.03 0.02 0.03 0.04 0.09 0.18 0.25 0.39 0.63 0.53 0.83 1.44 1.60 1.75 1.93 1.89 1.90 2.09 2.03 1.86 1.82 1.79 1.86 2.10 2.45 2.74 3.12 3.53 4.07 4.64 5.04 5.55 5.92 6.09 5.98 5.61 5.09 4.49 4.06 3.75 3.46
0.08 0.06 0.03 0.04 0.04 0.05 0.06 0.17 0.48 0.61 0.69 0.72 0.50 0.89 1.63 1.83 1.79 1.94 2.03 2.08 2.19 2.11 2.00 1.88 1.81 1.79 1.91 2.15 2.41 2.67 2.92 3.36 3.68 4.01 4.43 4.68 4.67 4.48 4.21 3.94 3.71 3.31 2.90 2.57
0.18 0.14 0.07 0.05 0.07 0.08 0.07 0.14 0.49 0.79 0.77 0.73 0.78 1.41 2.00 1.94 1.77 1.73 1.85 1.96 1.98 1.81 1.75 1.75 1.72 1.74 1.86 1.86 2.01 2.19 2.31 2.52 2.70 2.87 3.07 3.07 3.03 2.97 2.94 2.81 2.55 2.29 1.98 1.69
0.26 0.20 0.09 0.05 0.04 0.06 0.08 0.13 0.20 0.39 0.48 0.80 1.29 1.84 2.21 1.97 1.88 1.83 1.71 1.56 1.69 1.65 1.55 1.59 1.65 1.68 1.77 1.73 1.70 1.79 1.82 1.82 1.88 1.92 2.05 2.08 2.03 2.04 2.02 1.93 1.78 1.63 1.51 1.33
0.21 0.21 0.12 0.06 0.06 0.08 0.09 0.12 0.19 0.39 0.79 1.09 1.46 1.97 2.43 2.38 2.31 2.26 1.99 1.67 1.73 1.70 1.65 1.58 1.53 1.59 1.65 1.57 1.53 1.56 1.60 1.52 1.48 1.42 1.41 1.41 1.47 1.47 1.46 1.44 1.33 1.26 1.23 1.15
0.18 0.20 0.18 0.11 0.13 0.15 0.13 0.15 0.22 0.43 0.65 1.08 1.72 2.32 2.27 2.50 2.59 2.43 2.11 1.78 1.76 1.69 1.67 1.70 1.63 1.52 1.48 1.45 1.44 1.36 1.32 1.29 1.24 1.18 1.16 1.11 1.08 1.07 1.06 1.01 0.95 0.94 0.92 0.90
0.19 0.24 0.29 0.19 0.15 0.15 0.17 0.20 0.24 0.54 0.65 0.77 1.46 2.37 2.33 2.54 2.60 2.41 2.34 2.11 1.91 1.89 1.77 1.67 1.62 1.52 1.49 1.35 1.29 1.25 1.20 1.12 1.06 1.05 1.03 0.95 0.90 0.90 0.92 0.88 0.81 0.76 0.77 0.77
0.21 0.37 0.57 0.65 0.51 0.28 0.21 0.19 0.25 0.33 0.51 0.82 1.42 2.32 2.42 2.43 2.31 2.22 2.13 2.10 2.15 2.21 2.04 1.80 1.64 1.43 1.30 1.16 1.07 1.05 1.03 0.98 0.96 1.00 1.01 0.98 0.90 0.86 0.82 0.79 0.72 0.68 0.71 0.71
0.20 0.40 0.75 1.20 0.95 0.48 0.32 0.27 0.30 0.38 0.68 0.99 1.27 1.86 2.18 2.31 2.35 2.38 2.32 2.28 2.19 1.93 1.64 1.49 1.38 1.21 1.11 1.02 0.97 0.91 0.86 0.87 0.87 0.92 1.01 1.03 0.97 0.89 0.81 0.78 0.80 0.73 0.69 0.66
0.26 0.48 0.53 0.55 0.47 0.36 0.34 0.33 0.38 0.46 0.59 0.92 1.20 1.70 2.14 2.29 2.36 2.30 2.31 2.20 1.91 1.68 1.55 1.44 1.31 1.24 1.13 1.00 0.89 0.79 0.75 0.78 0.78 0.86 0.90 0.88 0.84 0.83 0.77 0.74 0.77 0.72 0.68 0.64
0.29 0.55 0.52 0.50 0.41 0.44 0.50 0.50 0.54 0.54 0.63 0.86 1.21 1.78 2.07 2.26 2.31 2.20 2.22 2.10 1.96 1.84 1.74 1.59 1.44 1.34 1.20 1.02 0.92 0.86 0.83 0.83 0.80 0.82 0.84 0.76 0.70 0.69 0.67 0.67 0.64 0.60 0.62 0.67
0.35 0.56 0.69 0.64 0.41 0.63 1.05 0.81 0.72 0.82 0.84 1.08 1.48 1.74 1.70 1.80 1.92 2.00 2.07 2.05 1.95 1.86 1.81 1.74 1.67 1.58 1.37 1.20 1.11 1.04 0.98 0.86 0.81 0.80 0.77 0.73 0.72 0.70 0.66 0.63 0.63 0.61 0.63 0.66
0.36 0.58 0.67 0.71 0.81 1.43 1.40 0.88 0.79 0.91 1.04 1.00 1.16 1.28 1.36 1.41 1.55 1.65 1.72 1.86 1.93 1.92 1.84 1.78 1.68 1.61 1.49 1.33 1.17 1.03 0.92 0.84 0.79 0.78 0.72 0.67 0.68 0.71 0.71 0.73 0.75 0.72 0.67 0.70
0.26 0.52 0.77 0.94 1.27 1.53 1.38 0.91 0.87 1.21 1.48 1.09 1.00 1.02 1.03 1.08 1.29 1.59 1.69 1.81 1.90 1.87 1.82 1.77 1.66 1.56 1.47 1.29 1.11 0.97 0.93 0.83 0.79 0.73 0.66 0.61 0.60 0.65 0.67 0.69 0.72 0.72 0.73 0.75
0.23 0.40 0.82 1.11 1.54 1.85 1.69 0.83 0.60 1.10 1.93 1.21 0.94 0.98 1.09 1.28 1.63 1.64 1.45 1.41 1.59 1.71 1.77 1.75 1.58 1.41 1.29 1.10 0.93 0.88 0.85 0.78 0.74 0.65 0.57 0.54 0.57 0.61 0.61 0.63 0.68 0.71 0.73 0.74
0.58 0.68 0.91 1.22 1.63 1.73 1.01 0.56 0.72 1.67 1.92 1.30 1.13 1.14 1.25 1.46 1.56 1.31 1.13 1.17 1.30 1.47 1.53 1.46 1.37 1.26 1.08 0.89 0.83 0.87 0.78 0.70 0.60 0.53 0.54 0.57 0.61 0.65 0.61 0.64 0.70 0.72 0.70 0.74
0.78 1.06 1.21 1.39 1.75 1.77 0.76 0.59 1.08 1.36 1.04 0.93 0.89 0.88 1.00 1.01 0.94 0.91 0.97 1.10 1.23 1.33 1.31 1.24 1.21 1.11 0.99 0.88 0.88 0.93 0.85 0.67 0.56 0.57 0.58 0.59 0.61 0.51 0.49 0.65 0.68 0.65 0.70 0.74
0.67 0.92 1.15 1.39 1.58 1.25 0.72 0.66 0.72 0.76 0.81 0.76 0.77 0.72 0.77 0.82 0.83 0.85 0.89 1.04 1.13 1.16 1.13 1.03 0.95 0.94 0.93 0.91 0.93 0.95 0.85 0.68 0.64 0.71 0.70 0.64 0.63 0.60 0.63 0.66 0.62 0.60 0.62 0.59
0.64 0.53 0.74 1.01 0.97 0.80 0.67 0.61 0.54 0.52 0.59 0.58 0.60 0.63 0.72 0.85 0.85 0.87 0.84 0.88 0.95 0.96 0.95 0.92 0.87 0.89 0.86 0.82 0.76 0.79 0.72 0.66 0.74 0.78 0.72 0.67 0.68 0.71 0.68 0.61 0.50 0.47 0.44 0.42
0.67 0.77 1.04 1.25 1.01 0.88 0.78 0.62 0.52 0.45 0.42 0.43 0.50 0.54 0.62 0.71 0.73 0.71 0.74 0.76 0.75 0.73 0.75 0.78 0.81 0.77 0.70 0.65 0.60 0.60 0.60 0.62 0.77 0.80 0.74 0.67 0.60 0.58 0.58 0.46 0.34 0.34 0.32 0.29
0.54 0.91 1.42 1.28 1.02 1.06 0.88 0.66 0.54 0.51 0.53 0.51 0.46 0.44 0.47 0.55 0.59 0.57 0.61 0.62 0.59 0.57 0.61 0.66 0.68 0.63 0.59 0.57 0.55 0.56 0.53 0.52 0.67 0.72 0.68 0.58 0.47 0.42 0.37 0.33 0.33 0.27 0.23 0.25

GEFSCGP_prec_meanprecacc_246.txt.gz
Total_Precipitation_Accumulation
0.03 0.04 0.05 0.06 0.06 0.09 0.10 0.11 0.17 0.22 0.25 0.31 0.44 0.65 0.85 0.90 1.07 1.16 1.32 1.39 1.68 1.81 1.92 2.25 2.72 3.10 3.53 3.60 3.69 3.67 3.76 3.95 4.11 4.26 4.21 4.32 4.28 4.23 4.42 4.58 4.62 4.75 4.82 4.64
0.04 0.03 0.03 0.03 0.03 0.07 0.11 0.12 0.23 0.34 0.35 0.41 0.52 0.71 0.92 1.03 1.02 1.24 1.51 1.58 2.07 2.20 2.12 2.29 2.76 3.15 3.52 3.76 3.85 3.99 4.10 4.09 4.22 4.65 5.06 5.35 5.61 5.60 5.51 5.59 5.61 5.45 5.31 5.23
0.04 0.03 0.02 0.03 0.04 0.08 0.14 0.16 0.26 0.41 0.39 0.50 0.65 1.06 1.18 1.15 1.15 1.32 1.63 1.75 2.10 2.27 2.36 2.21 2.34 2.76 3.20 3.54 3.76 3.87 4.11 4.43 4.92 5.50 5.93 6.23 6.49 6.54 6.32 6.09 5.97 5.69 5.45 5.32
0.05 0.03 0.03 0.04 0.06 0.07 0.13 0.13 0.20 0.28 0.39 0.58 0.62 1.21 1.42 1.36 1.43 1.54 1.68 1.70 1.89 1.89 2.10 2.23 2.26 2.50 2.86 3.16 3.47 3.78 4.08 4.65 5.51 6.15 6.59 6.94 7.01 6.93 6.76 6.53 6.15 5.64 5.26 4.94
0.06 0.05 0.05 0.05 0.04 0.04 0.07 0.09 0.15 0.20 0.28 0.45 0.53 1.03 1.40 1.38 1.56 1.71 1.89 1.80 1.77 1.86 1.82 1.92 2.01 2.19 2.58 2.94 3.24 3.61 3.99 4.64 5.31 5.92 6.50 6.91 7.00 6.90 6.68 6.22 5.70 5.13 4.66 4.25
0.06 0.04 0.04 0.03 0.03 0.03 0.05 0.10 0.19 0.27 0.43 0.68 0.57 0.88 1.49 1.65 1.81 1.99 1.98 1.99 2.17 2.09 1.91 1.86 1.83 1.91 2.15 2.52 2.84 3.27 3.67 4.19 4.79 5.17 5.67 6.04 6.19 6.06 5.68 5.16 4.55 4.13 3.82 3.52
0.09 0.06 0.04 0.04 0.04 0.05 0.07 0.18 0.50 0.64 0.74 0.80 0.56 0.94 1.67 1.87 1.85 2.01 2.09 2.15 2.29 2.22 2.07 1.92 1.85 1.85 1.98 2.24 2.54 2.81 3.05 3.48 3.81 4.14 4.57 4.83 4.81 4.60 4.33 4.05 3.80 3.38 2.98 2.64
0.19 0.15 0.08 0.06 0.07 0.08 0.08 0.16 0.52 0.84 0.81 0.78 0.84 1.45 2.04 1.97 1.80 1.78 1.90 2.02 2.07 1.95 1.87 1.80 1.78 1.87 1.94 1.94 2.13 2.31 2.40 2.63 2.84 3.01 3.19 3.20 3.16 3.09 3.05 2.91 2.65 2.35 2.03 1.73
0.28 0.22 0.09 0.06 0.05 0.06 0.09 0.15 0.22 0.42 0.52 0.85 1.35 1.89 2.28 2.02 1.92 1.88 1.75 1.62 1.76 1.75 1.66 1.69 1.76 1.84 1.86 1.80 1.79 1.88 1.90 1.91 1.98 2.03 2.14 2.16 2.11 2.11 2.09 2.02 1.87 1.68 1.56 1.37
0.24 0.23 0.13 0.07 0.06 0.08 0.10 0.13 0.22 0.42 0.84 1.15 1.52 2.03 2.53 2.46 2.37 2.33 2.05 1.71 1.78 1.78 1.74 1.67 1.62 1.67 1.73 1.64 1.63 1.71 1.74 1.60 1.54 1.48 1.47 1.46 1.52 1.53 1.54 1.50 1.38 1.31 1.27 1.19
0.21 0.24 0.20 0.12 0.14 0.16 0.14 0.17 0.26 0.45 0.67 1.11 1.75 2.37 2.34 2.57 2.67 2.51 2.17 1.84 1.83 1.76 1.75 1.76 1.68 1.55 1.53 1.51 1.52 1.44 1.43 1.39 1.32 1.25 1.22 1.17 1.13 1.12 1.11 1.05 1.00 0.99 0.99 0.96
0.21 0.26 0.31 0.20 0.15 0.15 0.18 0.22 0.27 0.56 0.67 0.79 1.50 2.41 2.37 2.63 2.74 2.54 2.40 2.16 1.96 1.94 1.84 1.73 1.66 1.55 1.52 1.40 1.36 1.30 1.25 1.19 1.12 1.11 1.11 1.01 0.94 0.94 0.98 0.95 0.88 0.82 0.82 0.80
0.22 0.39 0.60 0.68 0.53 0.30 0.22 0.21 0.26 0.35 0.53 0.84 1.48 2.38 2.46 2.48 2.37 2.28 2.18 2.14 2.21 2.29 2.09 1.84 1.67 1.45 1.33 1.18 1.10 1.08 1.07 1.02 1.00 1.04 1.07 1.03 0.96 0.91 0.87 0.84 0.76 0.70 0.72 0.72
0.21 0.41 0.77 1.23 0.97 0.50 0.33 0.30 0.33 0.40 0.71 1.02 1.32 1.92 2.22 2.36 2.39 2.42 2.38 2.36 2.26 1.99 1.68 1.54 1.44 1.26 1.15 1.06 1.03 0.96 0.91 0.90 0.91 0.96 1.05 1.07 1.00 0.92 0.83 0.80 0.81 0.75 0.70 0.67
0.26 0.49 0.54 0.57 0.48 0.37 0.35 0.35 0.40 0.48 0.60 0.94 1.23 1.74 2.17 2.35 2.46 2.35 2.39 2.30 1.95 1.71 1.59 1.51 1.43 1.34 1.19 1.06 0.95 0.84 0.80 0.81 0.80 0.88 0.93 0.90 0.86 0.85 0.78 0.74 0.77 0.73 0.70 0.66
0.30 0.56 0.53 0.50 0.42 0.45 0.52 0.51 0.55 0.55 0.65 0.89 1.24 1.81 2.11 2.33 2.41 2.31 2.31 2.15 1.99 1.88 1.77 1.68 1.62 1.50 1.30 1.08 0.97 0.90 0.87 0.86 0.82 0.84 0.86 0.78 0.72 0.71 0.67 0.68 0.65 0.60 0.63 0.68
0.36 0.58 0.72 0.66 0.43 0.65 1.07 0.83 0.73 0.83 0.85 1.12 1.52 1.78 1.75 1.85 1.97 2.07 2.12 2.11 2.01 1.93 1.88 1.84 1.81 1.70 1.49 1.28 1.18 1.07 1.01 0.88 0.82 0.82 0.78 0.75 0.74 0.71 0.67 0.64 0.64 0.62 0.64 0.68
0.38 0.62 0.72 0.76 0.86 1.48 1.43 0.90 0.80 0.92 1.05 1.04 1.20 1.32 1.38 1.43 1.58 1.68 1.76 1.96 2.06 2.01 1.94 1.89 1.80 1.68 1.56 1.42 1.25 1.07 0.94 0.85 0.80 0.79 0.74 0.68 0.69 0.71 0.71 0.74 0.76 0.73 0.69 0.72
0.28 0.54 0.80 0.98 1.31 1.56 1.40 0.94 0.88 1.22 1.51 1.12 1.05 1.06 1.06 1.12 1.32 1.61 1.72 1.90 2.07 2.00 1.92 1.86 1.73 1.61 1.53 1.37 1.18 1.01 0.94 0.85 0.80 0.74 0.67 0.62 0.60 0.65 0.67 0.69 0.72 0.73 0.74 0.77
0.25 0.43 0.86 1.14 1.58 1.87 1.70 0.85 0.61 1.11 1.96 1.25 0.99 1.04 1.14 1.32 1.67 1.67 1.50 1.53 1.71 1.80 1.89 1.86 1.65 1.47 1.34 1.15 0.98 0.91 0.87 0.81 0.76 0.66 0.58 0.55 0.57 0.61 0.61 0.64 0.68 0.72 0.75 0.76
0.60 0.71 0.94 1.25 1.66 1.75 1.03 0.57 0.73 1.70 1.96 1.34 1.17 1.19 1.31 1.51 1.60 1.34 1.16 1.22 1.35 1.52 1.60 1.56 1.43 1.31 1.12 0.93 0.87 0.92 0.82 0.72 0.62 0.54 0.55 0.58 0.61 0.66 0.62 0.65 0.71 0.72 0.71 0.75
0.81 1.09 1.24 1.42 1.77 1.80 0.77 0.60 1.10 1.38 1.07 0.97 0.94 0.93 1.04 1.05 0.96 0.93 0.99 1.12 1.25 1.36 1.35 1.28 1.24 1.14 1.01 0.91 0.92 0.98 0.89 0.69 0.58 0.57 0.59 0.60 0.62 0.52 0.50 0.66 0.69 0.65 0.71 0.75
0.71 0.95 1.18 1.42 1.60 1.28 0.75 0.68 0.74 0.79 0.84 0.80 0.82 0.77 0.82 0.87 0.87 0.88 0.92 1.05 1.14 1.17 1.15 1.05 0.97 0.97 0.95 0.94 0.96 0.99 0.89 0.71 0.66 0.72 0.71 0.65 0.64 0.62 0.64 0.67 0.64 0.62 0.64 0.60
0.68 0.56 0.77 1.05 0.99 0.82 0.69 0.63 0.56 0.54 0.63 0.63 0.65 0.68 0.77 0.90 0.90 0.92 0.88 0.91 0.97 0.97 0.96 0.93 0.90 0.91 0.88 0.84 0.79 0.82 0.74 0.69 0.76 0.80 0.73 0.68 0.69 0.72 0.69 0.62 0.51 0.49 0.46 0.44
0.70 0.81 1.08 1.30 1.04 0.89 0.80 0.66 0.54 0.47 0.45 0.46 0.54 0.59 0.68 0.79 0.81 0.78 0.78 0.78 0.76 0.73 0.76 0.79 0.82 0.79 0.72 0.67 0.62 0.61 0.62 0.64 0.78 0.81 0.75 0.68 0.60 0.59 0.59 0.46 0.35 0.35 0.33 0.30
0.58 0.95 1.46 1.32 1.05 1.08 0.90 0.68 0.57 0.54 0.57 0.56 0.50 0.47 0.51 0.58 0.63 0.61 0.64 0.63 0.60 0.58 0.62 0.67 0.70 0.66 0.62 0.58 0.57 0.57 0.54 0.54 0.68 0.73 0.68 0.58 0.47 0.43 0.38 0.34 0.33 0.28 0.24 0.26